GFSSGP_sfc_dewp_000.txt.gz
Dewpoint
74 72 71 69 58 48 50 51 51 52 54 57 58 56 58 60 55 55 65 67 68 68 70 70 75 74 75 74 75 76 77 76 77 76 75 74 75 76 76 76 75 75 75 75 74 74 74 73 73
70 69 68 61 43 41 45 49 49 53 55 57 58 58 56 58 62 64 65 68 67 66 67 68 75 75 74 74 75 75 75 75 75 75 74 74 75 75 76 75 75 75 75 74 74 74 74 73 73
66 67 60 45 35 40 45 50 53 55 55 55 57 58 57 59 62 62 66 67 66 68 67 71 74 74 74 74 75 76 76 75 76 75 74 74 74 75 75 75 74 74 74 74 73 73 73 73 74
63 61 58 38 32 40 47 52 55 55 56 56 56 57 60 61 62 63 66 67 66 68 69 72 73 74 74 75 75 75 76 76 76 75 74 74 75 74 74 74 74 74 74 74 73 73 73 73 74
60 53 38 34 37 40 46 53 54 53 54 55 54 56 59 64 65 66 67 67 66 67 69 69 76 75 75 75 75 76 75 75 76 75 75 75 74 74 74 74 74 73 72 73 72 73 73 73 74
51 47 34 32 38 42 47 53 54 54 56 56 55 58 60 64 65 66 67 67 67 67 69 71 75 76 76 76 76 77 76 76 76 75 75 74 74 74 74 73 73 72 72 72 72 73 73 73 74
46 40 36 36 39 42 46 51 51 54 56 55 56 57 62 62 66 67 68 68 67 67 69 70 71 75 76 76 76 76 76 75 75 75 75 74 74 73 74 73 72 72 73 74 74 73 72 73 73
48 41 36 38 38 39 45 49 52 51 55 56 56 56 60 62 66 66 67 67 67 68 69 72 73 73 73 73 76 76 75 74 74 75 75 74 74 73 73 74 73 73 73 73 74 73 73 73 73
50 40 35 36 40 42 47 48 53 54 56 57 57 55 59 62 64 65 67 67 68 68 69 70 71 74 75 72 73 75 74 74 74 74 75 73 69 70 69 73 73 73 72 72 73 73 73 72 72
43 40 36 37 40 44 47 47 53 54 55 55 58 58 60 61 64 64 65 66 67 68 68 68 70 72 72 69 74 74 70 69 69 69 71 69 71 72 70 72 73 73 72 72 73 72 72 72 65
36 39 39 40 41 44 47 48 52 50 52 53 57 59 60 61 63 63 64 65 65 67 68 70 70 73 72 72 70 70 69 69 70 73 72 70 70 71 70 70 69 69 71 68 70 69 67 69 68
32 35 36 39 43 45 46 48 49 50 48 52 56 60 61 61 61 62 63 64 65 67 67 68 70 72 72 77 70 70 68 69 68 69 73 72 70 70 72 70 72 72 69 70 71 68 70 70 69
28 29 30 34 41 43 47 48 49 51 52 54 57 61 60 61 61 62 62 63 65 66 67 68 70 73 74 74 70 69 70 68 67 68 71 70 68 75 72 73 72 71 71 70 70 70 69 70 68
26 27 29 31 40 44 47 49 51 51 52 56 58 60 60 61 61 62 63 63 65 66 67 69 70 73 74 73 74 72 70 69 69 67 68 73 70 76 70 70 69 70 70 70 70 70 70 69 67
27 31 40 39 42 46 48 50 50 52 55 58 59 60 60 61 62 63 63 64 66 66 68 69 71 72 74 75 74 72 70 69 68 68 72 72 74 74 73 70 69 69 73 73 71 71 69 66 65
27 31 32 41 45 47 47 40 50 53 55 58 58 60 60 61 61 63 64 65 66 67 69 70 68 70 73 74 73 71 69 69 69 68 70 74 74 74 73 71 69 70 70 69 68 68 66 64 63
29 28 30 42 45 49 48 40 49 53 54 55 58 58 59 61 63 64 64 65 65 69 70 71 71 70 72 74 72 72 73 74 76 74 71 72 73 73 72 70 69 72 70 73 69 66 67 63 61
28 28 30 33 45 47 46 42 50 53 53 53 58 58 59 59 61 63 65 65 67 69 71 72 71 73 74 77 77 73 73 71 70 70 74 74 75 73 74 72 71 71 73 68 68 69 65 65 62
27 30 31 32 42 45 43 43 45 54 53 53 56 58 58 58 60 63 65 66 67 69 71 73 73 74 74 74 69 69 68 69 71 69 74 74 73 74 73 70 72 72 70 69 69 66 65 60 64
27 28 30 33 42 43 40 42 45 48 54 53 54 56 59 58 59 63 65 65 66 69 71 73 74 75 75 71 73 71 73 68 70 70 73 73 73 74 73 73 71 72 66 70 67 67 61 61 63
27 28 30 33 42 43 40 42 42 44 51 54 53 54 57 59 59 61 63 65 65 68 71 73 75 75 76 75 73 73 74 74 70 71 72 74 74 75 75 74 71 71 67 60 67 66 65 58 65
25 26 29 32 37 36 41 33 37 40 47 52 54 54 53 58 60 61 62 64 65 67 70 73 75 76 76 77 74 76 70 67 66 68 67 71 74 74 74 74 72 69 63 67 65 65 64 65 60
25 25 28 30 34 36 38 37 36 40 40 46 51 53 53 54 58 60 61 63 65 66 68 71 75 77 77 77 77 73 74 68 67 67 72 74 74 74 71 74 70 68 64 68 68 67 67 63 61
23 26 29 30 29 31 35 34 31 32 40 38 45 51 53 52 54 59 61 62 64 65 67 69 74 77 77 76 76 76 74 73 67 70 68 66 66 70 72 73 70 68 65 67 66 67 66 65 64
21 26 27 27 26 27 34 33 34 31 31 35 32 43 52 53 53 56 59 61 63 65 67 68 73 75 76 76 75 76 76 75 74 72 69 67 64 64 70 73 70 66 68 67 66 67 65 65 63
20 23 24 28 22 24 31 30 30 33 33 32 33 39 49 52 51 54 58 60 63 64 66 68 71 74 75 75 77 78 77 73 72 73 68 66 64 63 67 72 69 67 67 66 65 62 61 63 62
21 22 23 23 24 20 21 30 30 31 34 35 37 42 45 51 52 52 56 59 62 64 67 70 73 74 74 73 75 76 77 76 72 74 73 69 70 63 68 69 68 66 67 65 65 60 62 62 63
15 22 22 23 29 26 23 26 27 33 31 29 35 42 45 51 52 51 54 57 60 63 65 68 70 73 73 73 73 74 75 76 75 74 74 72 71 70 68 68 65 65 65 65 66 62 63 63 58
15 17 24 23 24 23 23 23 29 33 34 32 29 42 43 48 53 53 52 55 59 61 63 66 69 71 72 72 74 74 73 73 75 74 75 74 73 70 69 68 65 65 64 65 66 65 62 62 63
13 20 24 22 31 25 24 20 24 28 29 29 29 29 32 47 52 54 54 55 57 60 61 63 66 68 70 72 74 73 73 73 73 74 74 73 72 69 69 67 67 65 64 64 65 63 61 61 61

GFSSGP_sfc_dewp_003.txt.gz
Dewpoint
73 71 71 70 62 55 49 48 50 51 53 55 54 60 58 58 58 58 68 68 67 66 68 70 75 75 76 77 77 76 76 76 77 76 76 76 76 78 77 75 75 75 75 74 74 74 74 74 73
69 69 69 63 50 52 51 49 50 52 53 55 55 56 56 60 61 63 65 66 66 64 65 68 76 75 75 76 76 76 75 75 76 76 75 76 76 76 75 75 75 74 74 74 74 73 74 74 74
69 67 64 57 43 44 46 51 50 52 52 53 54 57 58 60 61 63 65 65 64 66 68 71 75 75 75 76 76 76 76 75 75 75 74 74 75 75 74 74 74 74 74 74 73 73 73 73 74
64 61 58 34 31 42 49 49 50 50 51 53 55 56 58 59 60 62 64 65 66 67 68 73 75 75 75 76 77 76 76 76 75 74 74 74 75 74 74 74 74 74 74 73 73 73 73 73 74
61 55 48 31 33 39 47 49 49 50 51 52 55 56 58 61 62 63 63 64 65 67 67 70 76 76 75 76 76 76 75 75 75 75 74 74 74 74 74 74 73 73 73 72 73 73 73 73 73
55 45 38 29 31 37 45 48 48 49 51 52 55 57 60 63 63 64 64 66 66 67 67 70 75 75 76 76 76 76 75 75 76 75 75 74 74 73 74 73 72 72 72 72 73 72 72 73 73
52 48 37 31 34 34 40 45 45 47 51 51 56 57 60 62 63 64 67 67 66 67 68 70 71 75 76 76 76 76 76 75 75 75 75 74 73 73 73 72 71 72 72 73 73 72 72 73 73
46 41 32 40 31 31 37 42 43 46 50 53 55 56 59 63 64 66 66 66 66 67 68 70 71 71 73 73 76 76 75 74 74 75 74 74 73 73 72 72 72 72 72 72 72 72 72 72 72
40 41 34 34 42 35 37 38 44 49 50 51 52 56 60 63 63 64 66 66 67 68 69 69 68 71 74 74 75 76 74 73 74 74 74 73 70 71 71 74 72 72 72 72 72 72 73 72 73
39 48 37 33 42 37 38 37 43 46 49 50 53 57 61 63 62 62 65 67 66 67 66 67 70 71 71 67 74 72 69 68 69 68 70 69 70 73 69 72 74 72 73 72 73 73 73 73 69
34 44 41 36 37 40 38 39 42 44 46 50 53 56 60 61 62 61 63 64 63 64 64 69 73 73 72 74 69 69 68 68 68 71 71 69 69 72 71 74 71 72 72 73 72 71 70 68 67
31 39 38 37 38 40 38 40 40 41 44 48 53 55 59 60 61 61 62 62 63 65 65 67 71 73 72 72 69 67 66 66 66 68 73 72 69 73 70 72 73 72 72 70 71 70 69 69 69
29 32 33 33 37 38 42 40 39 40 44 48 54 55 57 59 61 61 61 61 63 64 65 67 69 72 72 74 68 67 67 65 66 67 70 69 67 74 74 71 69 70 72 72 69 69 68 69 69
29 30 29 31 34 39 41 41 42 41 46 49 54 55 56 58 59 61 62 62 63 64 65 66 69 73 74 74 74 71 69 70 66 66 67 72 70 76 70 75 73 73 72 73 67 70 69 70 68
27 27 31 33 33 37 39 40 39 43 48 50 53 56 56 57 58 60 61 62 63 64 66 67 69 71 73 74 74 71 68 67 68 66 70 70 72 72 74 73 70 69 72 72 72 73 72 67 60
24 27 27 33 33 35 38 39 43 45 46 48 52 55 56 57 57 60 61 62 64 65 67 68 66 68 72 74 74 71 69 73 69 70 72 72 73 74 74 70 69 73 70 73 69 72 67 61 60
26 24 27 33 34 38 39 40 44 47 45 47 50 53 55 57 58 60 60 62 63 66 68 69 70 69 71 76 73 72 74 72 73 71 71 75 73 74 73 70 72 74 71 70 68 68 67 60 60
27 26 28 35 33 39 38 42 44 46 47 43 48 50 54 55 57 59 61 62 63 65 68 70 70 73 73 78 78 74 69 71 71 71 70 73 72 74 73 70 72 71 74 68 72 69 63 63 62
26 27 26 29 31 36 38 38 42 46 47 46 46 48 52 54 57 59 61 62 63 65 68 71 73 76 73 71 73 71 69 70 69 68 74 75 74 74 74 71 73 71 71 72 68 65 65 60 62
24 26 28 29 31 34 36 38 39 48 48 47 47 47 49 52 54 59 61 62 62 66 69 73 74 77 76 72 74 72 72 68 66 67 72 73 75 74 73 75 70 71 69 70 68 67 62 59 62
24 25 27 27 37 38 36 38 38 41 48 49 47 48 48 50 51 57 60 62 63 66 70 73 77 78 77 77 74 75 74 71 71 68 70 72 73 73 74 73 73 73 69 58 67 65 64 58 63
22 24 26 27 34 35 33 31 38 37 41 48 49 48 48 50 52 55 59 62 62 65 69 74 77 78 78 78 74 76 70 67 64 66 66 70 74 73 73 74 72 72 65 69 65 63 65 65 60
21 23 27 28 31 41 31 30 36 36 37 42 47 49 48 49 51 54 58 61 62 64 66 71 77 79 79 78 77 72 73 66 65 63 74 73 76 72 70 71 72 70 63 67 67 65 67 65 61
20 23 26 26 27 28 32 32 35 36 37 38 42 48 50 50 50 55 57 60 62 63 65 69 77 79 79 78 77 77 77 73 66 67 68 67 66 69 71 69 72 70 65 66 65 67 67 66 65
19 21 22 24 23 23 29 32 42 37 34 36 36 39 47 51 51 53 58 59 62 65 67 69 76 79 79 77 77 77 77 77 75 73 69 69 63 64 72 72 74 68 68 66 67 68 67 65 64
18 19 20 27 23 23 28 28 30 34 33 31 33 32 40 49 51 50 56 60 64 65 69 70 74 78 79 77 78 79 79 72 70 73 69 66 64 64 71 71 71 70 67 67 67 63 62 66 63
15 18 20 21 24 22 23 27 29 33 34 32 32 31 32 45 50 51 53 58 62 64 68 70 74 76 77 74 79 79 78 77 72 76 75 69 73 65 66 69 71 70 67 67 68 62 66 64 64
9 15 18 22 28 25 22 26 25 33 32 31 33 31 34 39 50 51 52 55 60 61 65 69 72 75 75 75 76 76 76 78 77 77 76 74 73 71 71 69 69 69 69 69 70 66 67 66 61
9 10 19 20 22 22 22 24 28 34 36 33 32 31 32 40 48 51 51 53 57 59 62 66 69 73 74 75 75 76 75 75 76 75 75 75 74 74 72 72 70 68 67 67 68 67 65 67 67
11 13 14 21 31 23 24 22 26 28 29 31 32 31 33 40 46 50 51 52 54 59 59 61 64 66 71 74 76 76 76 75 75 76 76 76 75 74 72 72 70 67 67 68 67 65 63 63 62

GFSSGP_sfc_dewp_006.txt.gz
Dewpoint
73 72 69 70 61 55 52 50 53 57 52 56 57 59 58 60 59 57 68 68 68 67 69 72 76 76 76 77 77 77 77 77 77 77 78 78 78 77 77 77 77 76 76 75 74 74 74 73 73
68 69 71 65 57 52 52 52 53 54 53 59 59 58 58 58 62 63 66 67 66 66 67 69 76 77 77 77 77 77 76 77 77 77 77 77 77 77 76 75 75 75 75 74 74 74 74 74 73
67 68 67 62 51 51 53 58 51 53 56 57 57 59 59 60 62 64 65 65 64 66 68 71 76 76 77 77 77 77 76 76 77 77 76 77 77 76 76 75 74 74 74 74 74 73 73 73 74
68 67 64 57 45 50 51 53 47 49 55 55 56 57 60 61 62 63 64 64 65 67 69 74 76 76 77 77 77 77 77 76 76 76 76 77 76 75 74 74 73 73 73 73 74 73 73 73 74
68 63 57 49 38 48 51 48 51 49 53 54 55 55 57 61 62 63 64 65 67 68 69 71 76 77 77 77 77 76 76 76 76 76 76 76 75 74 74 73 73 73 73 73 73 73 73 73 73
64 60 52 29 32 38 44 49 51 50 54 55 55 58 60 60 61 64 64 65 66 65 68 71 76 76 76 77 77 77 76 76 76 76 75 75 74 74 74 72 72 72 73 73 73 72 73 73 72
59 56 43 39 31 36 40 43 46 47 50 53 57 58 61 60 63 64 65 66 66 67 69 71 72 75 76 77 77 77 76 76 75 75 75 74 73 73 74 73 71 72 73 73 73 72 71 72 72
59 54 42 39 31 29 38 41 43 44 52 53 59 56 59 62 65 65 65 66 67 66 68 71 72 72 74 74 77 75 75 75 75 75 74 74 73 74 74 74 74 72 71 72 72 71 71 71 72
45 38 40 38 34 32 36 36 44 49 48 55 56 56 60 62 64 64 65 65 67 67 69 69 69 73 75 74 74 76 75 74 74 74 75 75 72 72 72 75 75 73 73 72 73 72 72 72 73
40 42 41 43 40 35 35 37 40 43 46 49 54 57 59 62 62 64 64 63 66 65 68 70 69 72 72 69 75 75 72 70 72 71 74 72 73 75 73 74 73 74 74 72 73 73 73 74 71
41 42 41 41 41 39 35 36 37 43 43 48 56 57 58 60 63 64 64 63 64 66 65 67 71 73 72 73 73 71 71 71 71 75 74 75 73 73 73 74 72 75 73 74 72 72 72 71 69
32 38 40 38 36 40 35 37 37 42 43 49 55 59 59 59 59 60 62 62 63 65 69 71 72 74 75 75 73 72 70 71 70 72 76 77 75 75 73 73 73 73 73 73 73 72 71 70 71
27 36 37 33 35 37 37 38 38 38 44 48 52 58 59 58 58 60 60 62 63 62 68 70 73 76 77 77 73 71 72 69 69 73 75 73 75 75 73 76 75 76 74 73 74 72 72 73 72
26 28 30 29 31 34 39 38 37 38 42 47 51 55 57 58 58 60 60 61 63 64 65 69 73 75 75 76 79 77 76 71 73 70 74 76 77 77 71 76 73 74 73 75 73 74 74 72 70
25 26 28 28 29 34 37 38 37 40 40 46 50 53 55 57 59 60 60 61 63 64 67 69 71 73 74 77 77 77 74 69 72 72 74 76 77 78 78 77 76 75 74 75 74 74 71 68 66
21 24 25 28 30 32 36 37 37 41 40 43 50 51 53 55 56 60 61 61 63 65 69 70 65 71 73 75 76 74 72 74 75 76 71 75 77 77 78 76 73 72 75 75 73 73 72 68 66
21 22 24 26 31 32 34 42 42 42 42 42 47 50 51 55 57 60 60 62 63 67 71 71 71 71 74 75 75 75 74 75 75 75 76 75 74 76 76 75 74 75 73 74 72 69 71 67 67
21 23 24 26 33 30 33 48 48 47 41 43 44 48 52 52 55 59 59 61 64 67 71 72 71 75 75 76 77 76 75 73 75 75 75 74 76 76 77 75 75 76 76 73 74 71 70 68 67
21 25 24 27 35 31 38 51 53 49 45 41 45 46 50 52 55 58 59 61 62 67 70 72 73 76 76 75 73 73 72 75 73 73 74 75 77 77 77 75 75 73 76 70 71 70 68 68 68
23 24 26 27 34 34 33 47 49 50 45 44 42 44 46 48 52 57 60 60 62 66 69 73 73 76 76 75 75 74 73 71 72 73 75 76 75 77 75 76 75 73 73 73 71 70 68 67 69
22 23 25 25 30 32 31 33 41 44 43 43 44 44 45 48 49 57 59 60 62 66 70 72 75 75 76 76 75 77 77 75 73 74 74 75 76 77 74 75 76 76 73 70 72 70 68 66 70
21 22 23 23 31 31 34 30 43 41 45 44 44 44 44 47 51 54 59 62 62 65 69 73 75 76 76 76 75 74 71 71 72 74 72 74 76 76 76 77 76 76 72 73 71 69 69 69 66
22 23 23 23 26 35 37 34 38 42 42 45 45 45 45 48 48 51 58 61 63 65 69 72 75 76 77 77 76 74 74 71 71 70 77 76 77 76 75 75 75 74 72 73 70 70 69 70 68
19 21 22 22 24 26 31 33 33 37 41 40 45 46 47 48 49 52 57 61 63 64 68 70 75 77 77 77 76 76 73 73 70 73 73 73 73 74 75 74 75 74 72 72 71 71 71 70 70
13 17 21 21 22 23 28 33 39 40 41 40 47 48 48 50 50 52 56 60 63 65 67 70 74 76 77 77 76 76 76 75 76 77 73 73 70 71 74 75 75 72 72 72 71 71 71 70 69
12 14 20 24 22 22 28 26 32 40 41 43 45 49 46 49 49 51 56 59 64 65 67 70 73 75 77 76 77 77 76 74 74 75 72 72 70 71 72 73 74 74 71 71 71 70 69 69 68
12 13 15 19 21 21 23 26 27 32 39 41 37 37 38 47 50 52 56 59 63 65 67 70 73 75 77 76 77 77 77 75 74 75 75 73 74 72 73 72 74 72 71 71 72 68 68 69 70
8 13 11 16 24 25 23 29 29 35 38 41 42 40 36 39 50 52 53 59 62 64 66 69 72 75 77 77 77 76 77 76 75 75 75 73 73 73 71 73 71 72 71 71 71 68 69 69 68
10 10 12 14 19 22 25 26 33 41 43 41 39 37 35 38 49 49 53 56 62 64 65 67 70 74 75 76 76 76 76 76 76 76 76 74 75 73 73 71 72 72 70 71 70 69 68 68 68
13 14 13 14 27 21 23 24 26 39 38 35 37 36 38 40 44 49 53 55 59 62 63 66 68 71 74 75 76 76 76 77 76 75 76 75 76 74 72 73 72 71 69 70 69 67 65 68 67

GFSSGP_sfc_dewp_009.txt.gz
Dewpoint
74 73 70 69 61 58 54 52 57 54 55 57 59 60 60 61 58 56 68 70 69 70 72 73 76 76 77 77 78 78 78 78 78 78 78 78 77 77 77 76 76 76 76 74 74 74 74 73 72
72 71 68 62 57 52 54 55 54 56 57 58 59 59 59 59 63 65 67 68 68 70 71 72 76 77 77 77 78 77 77 76 78 78 78 78 77 77 76 75 75 75 75 74 74 73 74 73 72
70 70 66 61 55 50 52 57 55 59 60 58 57 59 60 61 64 65 67 67 67 68 70 73 77 77 77 77 77 77 77 77 77 77 78 77 77 76 75 75 74 74 74 74 74 73 73 74 73
67 70 66 59 50 54 54 56 59 57 58 58 58 59 61 63 64 65 67 66 67 69 72 76 77 77 77 77 77 77 77 77 77 77 78 77 76 75 75 74 74 74 74 74 74 74 73 73 73
70 67 60 56 49 51 53 57 60 55 56 57 59 59 60 62 64 65 64 67 68 69 72 74 77 77 77 77 77 77 76 76 77 77 77 77 76 76 74 74 73 73 73 74 74 72 73 72 72
62 62 55 44 44 49 51 52 55 54 56 57 58 59 60 63 63 64 66 67 68 69 71 73 76 77 77 76 76 77 76 76 77 77 77 77 76 76 76 74 74 73 73 73 73 72 72 72 72
59 55 48 44 42 42 51 53 55 54 57 57 60 58 60 62 64 65 66 67 67 69 70 73 73 75 76 77 77 76 77 77 77 77 77 76 76 76 75 74 74 73 72 73 72 72 72 72 72
56 54 47 45 42 36 45 46 56 54 56 60 60 57 58 62 64 65 66 66 68 69 71 71 73 74 74 75 76 76 76 76 76 76 76 76 75 74 74 76 75 72 71 72 72 72 73 73 74
56 51 50 47 41 35 40 49 53 55 58 59 60 59 62 63 64 64 65 66 67 69 70 71 72 73 74 74 74 76 76 76 76 76 76 75 72 72 72 73 74 72 72 72 72 73 74 74 74
42 46 45 45 43 36 38 49 52 54 57 58 59 61 63 63 64 63 64 65 66 67 69 70 71 72 72 72 74 74 73 72 73 73 73 73 72 72 74 73 70 73 74 73 74 74 74 74 72
38 40 43 42 42 37 38 39 44 51 54 57 58 61 63 63 64 64 64 65 66 67 68 69 71 72 72 70 73 74 72 71 71 71 72 71 74 71 72 71 66 71 73 73 72 73 72 70 67
36 38 40 42 43 40 36 37 43 45 53 57 59 62 63 63 63 63 63 65 65 66 67 68 71 70 73 72 73 72 70 70 70 72 71 72 72 72 72 69 71 72 72 73 71 72 72 68 68
34 35 37 39 42 39 38 38 43 44 56 58 58 59 61 62 62 63 63 63 64 65 67 68 70 72 72 72 71 70 70 70 70 71 71 70 72 71 71 71 71 72 72 72 70 72 70 69 69
31 31 37 36 34 41 39 37 41 48 56 57 58 58 59 63 63 63 62 62 63 67 69 70 72 73 72 73 73 72 70 69 70 72 72 72 73 72 71 71 69 71 71 73 71 70 69 68 67
27 26 26 29 29 34 43 45 38 47 51 57 58 58 58 59 61 60 61 61 64 66 69 70 72 73 72 73 72 72 72 69 68 70 73 72 72 71 72 72 71 72 71 72 70 70 67 65 66
24 22 21 26 29 31 38 43 45 42 49 53 56 57 58 59 59 60 60 61 61 64 69 71 71 71 72 73 73 73 70 71 70 72 72 73 73 73 72 72 71 71 72 71 70 70 68 67 65
20 18 20 24 29 34 36 40 39 38 48 49 53 54 56 58 59 61 60 61 63 66 69 70 70 70 71 72 73 72 70 72 70 71 72 74 74 74 72 72 71 70 71 70 68 67 68 62 61
18 20 20 23 29 34 39 41 44 42 41 49 50 51 53 55 57 60 60 62 64 67 68 67 70 71 71 72 73 73 72 73 73 73 70 72 72 72 72 72 71 71 71 69 68 67 65 63 63
20 20 20 23 32 34 43 45 46 41 44 45 49 50 52 53 55 59 60 61 64 68 68 68 69 72 72 72 72 72 72 72 71 71 73 72 73 74 72 72 72 71 71 69 68 65 62 63 65
19 20 21 23 32 33 45 44 43 40 39 42 45 50 51 52 53 58 59 60 62 66 68 69 68 73 72 73 72 71 71 71 71 71 72 72 74 73 72 72 72 71 71 68 65 64 62 64 63
19 20 21 23 29 34 43 45 46 42 44 45 46 47 51 51 53 55 57 59 61 65 69 69 69 72 73 73 72 74 73 72 71 71 73 73 73 74 72 73 72 70 68 68 65 64 63 60 65
20 22 22 22 23 28 37 36 46 44 51 51 49 44 47 51 52 55 57 58 60 65 67 70 70 72 72 73 72 71 70 68 70 71 70 72 74 74 72 72 73 71 68 67 65 65 63 64 61
20 23 22 22 22 33 33 32 37 45 47 49 48 43 44 47 50 54 57 58 60 63 67 71 71 71 72 72 72 71 70 69 70 71 69 73 74 73 73 73 73 69 65 67 67 64 62 65 63
13 20 22 22 22 21 31 31 35 39 46 49 46 45 44 45 48 54 57 59 59 64 67 70 72 72 73 72 73 72 71 70 68 69 72 72 72 72 73 72 71 69 68 66 65 65 64 65 64
9 12 16 18 20 20 23 31 36 37 40 42 44 44 46 45 47 49 56 59 60 63 66 70 72 72 73 73 72 73 71 70 70 70 71 71 70 72 72 72 70 68 68 67 66 65 65 64 63
9 9 12 17 19 20 23 23 28 37 42 43 46 46 46 47 46 49 56 58 60 62 66 69 72 72 73 74 74 72 73 69 69 71 71 70 70 70 71 71 70 69 67 68 68 66 66 65 64
11 8 9 12 20 22 21 22 25 37 38 40 42 45 45 45 47 49 53 57 60 62 67 68 72 72 73 74 74 73 73 72 71 72 73 71 68 70 70 72 71 69 67 68 67 66 64 65 64
8 13 9 8 10 16 18 22 26 31 38 42 43 43 43 45 47 49 52 57 60 62 65 68 71 73 74 73 75 74 73 71 71 72 72 71 69 70 69 71 72 70 67 67 67 64 66 65 65
12 7 8 10 11 13 19 21 26 31 41 42 41 41 41 45 46 49 52 56 60 62 65 67 70 72 74 74 74 74 74 73 72 73 72 71 71 70 70 70 72 70 68 68 67 64 64 65 62
12 13 9 14 12 18 14 16 27 23 40 41 40 42 38 44 46 49 51 55 60 62 63 66 71 72 73 74 74 74 74 74 73 72 72 73 71 70 70 70 69 70 68 68 67 65 64 63 64

GFSSGP_sfc_dewp_012.txt.gz
Dewpoint
73 73 71 69 60 59 53 54 57 55 56 59 60 60 60 61 57 55 67 69 69 70 71 73 75 76 77 78 77 77 77 77 78 77 76 76 75 76 75 75 75 75 74 74 74 73 73 72 72
73 71 68 63 57 52 53 56 53 56 58 60 60 60 59 59 63 65 67 69 70 70 72 73 76 76 77 77 77 77 77 76 78 77 76 76 75 76 75 75 75 74 74 74 73 73 74 73 72
67 69 65 61 56 51 51 56 57 58 58 56 58 61 61 62 65 66 68 69 70 71 72 73 76 77 77 77 77 77 77 76 77 76 75 75 75 75 74 74 74 74 74 74 73 73 73 73 72
65 66 63 60 53 53 55 59 58 58 58 58 60 58 62 65 65 66 68 68 69 70 72 75 76 76 76 77 77 76 76 76 77 76 75 75 75 74 74 74 74 74 74 73 73 73 72 72 73
66 65 59 57 52 53 58 59 61 58 57 58 58 59 61 64 66 67 66 67 69 71 72 74 76 77 77 77 76 76 75 75 76 77 75 74 75 74 74 73 73 73 73 73 72 72 72 72 72
61 63 56 47 47 53 58 59 62 58 58 59 60 60 60 65 65 65 67 68 70 71 72 73 76 76 77 76 75 76 75 75 76 76 76 75 75 75 74 73 73 73 73 73 72 72 73 73 73
58 55 51 46 47 53 56 60 56 57 58 59 60 58 61 63 65 66 68 69 70 72 73 73 73 73 75 77 75 75 75 75 75 75 76 76 75 74 73 73 72 72 72 73 72 72 73 73 73
57 55 47 48 45 46 54 55 57 58 58 60 60 59 60 62 64 67 68 68 69 71 73 73 73 73 74 74 75 76 76 75 75 75 75 75 74 74 73 75 74 71 71 72 72 72 73 73 73
61 49 46 47 46 46 55 55 57 59 59 58 59 61 62 63 65 66 66 68 69 70 72 73 73 74 74 74 74 76 76 76 75 75 75 76 73 72 73 73 73 72 72 71 72 72 73 74 74
54 48 46 46 46 46 53 55 57 58 58 58 60 61 62 64 64 65 66 67 68 69 70 72 73 73 74 74 73 74 73 74 74 74 73 73 72 72 74 73 68 70 73 72 73 74 73 73 72
42 41 44 45 46 49 53 55 57 57 56 58 60 61 63 63 64 64 65 67 68 69 70 71 72 73 73 72 74 73 73 72 73 73 72 72 73 70 71 70 67 68 72 71 71 71 72 71 67
35 37 40 42 42 44 51 54 56 57 57 60 62 62 62 63 63 64 65 65 67 69 70 70 71 72 72 71 73 73 72 71 71 71 71 71 72 69 70 67 71 70 72 69 72 71 71 70 68
33 33 35 40 42 40 40 50 56 55 59 61 62 62 63 63 63 64 65 65 67 68 69 69 71 71 71 71 72 72 71 70 70 70 71 72 71 70 69 70 71 70 71 71 71 72 70 69 68
33 31 30 38 40 40 37 44 50 56 59 60 61 62 63 63 63 63 64 65 66 67 67 69 71 70 71 71 71 71 70 70 70 70 72 71 71 70 70 69 70 71 71 71 71 70 68 66 66
31 27 27 25 35 39 41 46 53 57 59 60 61 62 62 63 63 63 63 64 65 65 67 68 70 71 71 70 71 71 71 70 69 70 71 72 72 70 71 71 70 71 71 72 69 68 67 65 66
22 23 21 22 29 40 40 43 55 57 58 60 61 61 62 62 63 63 62 63 64 66 67 68 69 71 71 71 73 72 71 69 68 70 72 72 71 71 72 71 71 71 70 70 70 69 67 66 62
21 19 19 20 26 41 41 41 48 56 56 56 57 60 61 62 62 63 63 62 63 67 69 69 69 71 71 72 72 72 70 71 70 71 71 72 73 73 72 71 71 69 71 69 68 67 67 61 60
19 19 19 20 20 36 40 41 44 56 56 56 57 57 57 61 62 61 62 62 65 67 69 70 70 70 71 72 72 72 70 70 72 71 71 73 73 73 71 71 70 70 70 68 67 66 64 62 62
19 19 20 20 24 38 38 38 41 51 55 56 56 57 57 57 59 60 60 62 63 67 69 69 69 69 70 71 71 71 70 71 71 71 70 71 71 72 71 71 71 71 70 68 67 65 61 61 64
17 17 17 20 23 35 40 38 41 46 49 53 54 55 56 57 57 59 59 62 63 67 68 69 69 69 69 70 70 71 71 71 71 71 71 71 71 72 72 71 71 71 70 68 65 63 61 62 62
16 15 16 20 22 35 42 42 42 43 45 48 51 52 55 56 56 58 59 60 63 66 67 67 70 70 70 70 71 71 71 71 71 71 71 72 72 72 72 72 71 70 69 67 64 63 62 59 63
19 19 17 19 22 22 40 34 45 44 44 44 48 50 51 53 55 57 59 59 62 65 67 67 69 71 71 72 71 70 69 69 69 70 71 72 72 72 72 72 71 69 68 66 64 64 62 61 59
18 20 22 21 22 24 28 35 39 45 43 48 46 47 50 51 53 54 58 59 60 63 66 67 67 72 72 72 71 70 69 69 69 70 70 71 73 73 72 71 71 68 67 66 64 64 62 64 60
18 16 21 23 22 22 30 34 33 44 42 44 45 47 48 51 52 54 57 58 60 62 65 67 67 68 72 72 71 71 69 69 68 69 69 71 73 72 72 72 72 68 65 66 65 63 61 65 64
14 10 11 15 17 19 21 30 32 40 44 44 44 46 47 49 51 53 55 57 58 60 64 67 68 67 69 72 71 71 70 69 69 68 70 71 71 71 72 72 71 68 66 65 64 64 63 63 63
13 10 9 10 16 18 22 23 28 38 43 46 45 45 48 45 49 52 54 57 57 60 64 67 69 68 69 70 71 71 71 70 70 69 71 70 70 70 71 71 70 67 66 65 65 64 64 64 62
15 9 9 11 27 19 20 22 25 29 39 44 46 47 46 45 46 49 54 56 58 60 64 67 69 69 70 71 70 71 72 71 70 71 71 71 70 70 71 71 69 67 66 66 66 64 63 65 63
13 13 13 9 7 9 14 20 22 25 29 40 42 45 46 45 45 47 50 55 58 59 64 67 69 69 71 72 71 71 71 72 70 71 71 71 70 70 70 70 69 67 65 67 66 64 63 64 64
15 11 10 9 8 7 12 12 20 25 30 36 43 45 45 46 47 46 48 55 58 60 64 67 69 69 70 72 71 72 71 71 71 71 71 72 69 69 70 70 70 68 66 66 65 64 64 62 63
16 13 9 8 9 11 8 10 23 24 26 38 42 43 47 47 47 48 49 53 57 60 64 66 69 69 70 72 72 72 72 72 71 71 71 71 70 69 69 69 70 69 67 65 66 64 63 64 62

GFSSGP_sfc_dewp_015.txt.gz
Dewpoint
74 73 71 69 60 58 53 54 58 54 56 60 59 58 60 61 58 54 67 69 69 70 71 72 74 75 76 76 76 76 75 76 76 75 75 75 75 75 75 75 74 74 74 74 74 73 72 72 72
72 68 67 61 56 52 52 56 54 57 59 60 60 60 60 60 63 65 67 69 69 70 72 72 75 76 76 76 76 76 76 76 76 75 75 75 75 75 75 74 74 74 74 73 73 74 73 73 72
69 69 64 60 55 52 52 56 57 58 60 58 60 61 60 62 64 65 67 68 69 70 71 73 75 76 76 76 76 77 77 76 75 75 75 75 75 74 74 74 74 74 73 73 73 73 73 73 73
65 66 64 58 52 54 56 58 58 57 58 60 60 60 63 65 65 67 68 69 70 71 72 74 75 75 75 75 76 76 76 75 75 75 75 75 74 74 74 74 74 73 73 73 73 73 73 73 72
66 65 58 57 52 54 58 56 60 58 58 59 59 59 62 65 67 67 69 69 70 71 72 73 76 76 75 75 75 75 75 76 75 75 74 75 74 74 73 73 73 72 72 73 72 72 73 73 73
61 62 54 50 48 54 57 56 60 58 58 60 60 60 61 66 67 67 68 69 70 71 72 73 75 76 76 75 75 75 74 75 75 75 74 75 74 73 73 73 72 72 72 73 72 72 73 72 73
59 56 51 47 50 54 56 59 60 58 58 58 59 59 63 65 66 66 67 69 70 71 72 73 72 73 75 76 75 74 74 75 75 75 74 74 74 74 73 72 72 72 72 72 72 72 72 72 74
59 54 49 48 51 52 57 60 59 58 58 60 61 59 60 64 65 67 69 69 71 72 72 72 72 71 73 74 75 74 74 75 75 75 74 74 74 74 73 74 72 71 71 71 72 71 72 72 73
62 52 48 45 47 50 56 57 58 60 59 59 60 61 62 65 67 67 68 69 70 71 72 73 72 72 74 74 73 75 75 75 75 74 74 75 73 72 73 74 72 73 72 71 72 72 73 72 72
57 50 48 46 46 53 55 56 58 58 58 59 60 62 64 64 66 66 67 67 69 70 72 73 73 73 74 74 73 74 73 74 73 74 73 74 72 71 73 73 71 70 72 72 73 72 73 72 70
56 53 49 47 45 54 55 56 58 58 57 59 60 61 62 64 65 65 67 68 68 70 71 72 73 74 74 73 73 73 73 73 73 73 73 73 72 72 72 70 69 67 71 71 71 70 71 70 68
42 50 52 46 40 54 55 56 56 57 56 60 60 62 62 63 64 65 66 67 68 69 70 72 73 73 73 72 73 73 72 72 72 72 72 71 71 69 69 66 69 69 71 69 70 70 70 69 69
43 41 36 37 39 52 55 56 56 56 59 60 61 61 62 63 64 65 66 67 68 68 69 71 72 72 72 71 73 72 72 71 70 70 71 71 70 70 69 68 70 70 70 70 71 71 71 69 67
31 32 32 32 29 51 54 55 56 57 59 60 61 61 62 63 63 64 65 67 67 69 69 70 71 71 71 71 71 72 72 70 70 70 71 71 71 70 69 68 69 70 70 70 70 70 68 66 65
30 29 27 27 27 46 52 52 55 57 60 60 61 61 62 62 63 64 65 66 67 68 69 69 70 71 71 70 71 71 71 70 69 69 71 71 71 69 69 69 70 70 71 71 70 68 66 64 62
23 23 22 25 28 32 46 44 52 59 60 60 60 61 62 62 63 64 65 65 67 68 68 69 70 70 70 71 71 70 70 71 70 69 71 71 71 70 70 70 70 70 70 70 69 69 67 65 61
21 22 21 22 24 40 40 43 55 58 59 59 60 61 62 62 63 63 64 65 66 67 67 69 70 70 70 71 71 71 71 70 69 70 70 72 72 72 71 71 70 70 70 68 68 67 66 60 60
20 19 19 20 23 38 40 43 55 58 59 59 60 60 61 62 63 63 63 64 65 66 67 68 69 70 70 71 72 72 70 69 70 70 71 72 72 72 72 70 70 69 70 68 67 65 64 61 61
21 20 19 21 25 37 38 41 55 57 58 59 60 60 61 61 62 63 63 63 64 66 67 68 68 69 70 70 70 70 70 69 70 71 71 72 72 73 71 71 70 70 69 68 66 65 61 60 63
20 18 18 18 22 27 35 38 54 56 56 58 59 60 61 61 62 62 63 63 62 65 67 68 68 69 70 70 70 70 70 70 70 71 70 71 72 72 71 70 70 70 69 67 67 62 61 61 62
19 18 18 17 22 27 39 41 44 55 56 56 57 58 59 59 61 62 61 61 62 65 67 69 69 69 69 69 70 70 70 70 70 70 70 71 71 71 71 71 70 70 69 68 65 63 60 59 62
19 20 18 17 20 18 38 34 42 46 54 54 56 57 57 57 58 60 61 60 61 64 67 69 69 69 69 69 69 69 68 67 69 70 70 71 71 71 72 71 71 70 69 67 65 63 61 60 59
21 22 21 24 20 21 24 31 34 43 45 48 52 54 56 57 57 58 59 60 61 63 66 68 69 69 69 69 69 68 67 68 69 70 70 70 72 72 72 71 70 69 68 67 65 63 63 62 59
24 22 17 22 21 19 20 24 24 42 41 43 46 50 52 54 56 57 58 59 61 63 66 67 68 69 69 69 69 69 68 68 68 68 69 69 71 72 72 71 70 69 67 66 64 64 62 64 62
20 15 15 11 16 15 18 26 23 34 44 43 44 46 50 51 53 55 56 58 59 62 65 67 67 69 70 70 70 69 69 69 68 68 69 69 70 70 71 71 71 69 66 66 64 63 61 64 63
18 16 15 10 15 15 20 21 24 33 39 44 43 45 46 49 51 53 54 56 59 60 64 66 66 67 70 71 70 70 69 69 69 68 68 69 70 71 71 71 71 70 65 65 64 63 63 63 63
15 15 15 10 22 14 19 21 24 28 32 41 43 43 45 47 50 51 53 54 57 60 62 65 66 66 68 70 70 70 70 70 69 69 69 69 70 71 71 71 71 69 66 65 64 63 63 64 62
16 15 15 10 10 11 13 17 18 25 26 38 44 44 45 47 47 50 52 53 56 58 60 64 66 66 66 69 70 70 70 70 70 70 69 69 70 70 70 71 70 69 66 65 64 63 63 64 63
14 14 12 12 10 9 9 11 18 25 28 31 40 45 46 47 47 47 50 52 54 57 59 63 66 66 66 67 68 69 70 70 70 69 70 70 70 70 70 70 70 69 66 66 65 64 63 63 63
13 12 12 11 10 10 9 11 20 22 25 29 31 40 43 47 48 47 47 50 54 57 58 63 65 66 66 67 69 69 69 70 71 70 70 70 70 70 70 70 70 69 67 65 65 64 64 62 61

GFSSGP_sfc_dewp_018.txt.gz
Dewpoint
73 73 72 69 59 57 53 54 57 53 56 60 59 58 59 61 57 53 67 69 69 70 70 72 73 74 75 76 76 76 75 75 75 75 75 75 75 75 75 74 74 74 74 74 73 73 73 72 72
73 70 67 61 54 49 51 57 55 57 59 60 61 61 60 60 63 65 66 68 69 70 71 71 74 76 75 76 76 76 75 75 75 75 75 75 75 75 74 74 74 74 73 73 73 73 72 72 72
69 68 64 58 54 50 51 56 57 59 60 59 59 61 61 62 64 65 67 68 70 71 72 72 75 76 76 75 76 76 75 75 75 75 75 75 74 74 74 74 74 74 74 74 73 73 72 71 70
68 66 65 57 53 54 54 57 58 58 59 60 60 60 63 65 64 66 67 68 70 71 72 74 75 75 76 75 76 76 75 75 75 75 75 74 74 74 74 74 74 74 74 73 73 72 72 70 70
67 64 57 56 54 54 57 58 60 57 59 58 60 59 61 65 67 67 68 68 70 71 73 73 76 76 76 75 75 75 75 75 74 74 74 74 74 73 73 73 73 73 73 73 72 73 72 72 72
60 62 53 50 48 54 56 57 60 58 59 59 58 60 63 66 66 68 68 69 70 71 73 73 75 75 75 75 75 75 75 75 75 74 74 74 73 73 72 72 72 73 74 73 72 72 71 72 73
58 55 51 50 50 54 56 58 60 58 58 58 59 60 64 65 67 68 68 69 70 72 73 73 73 73 75 75 75 74 74 75 75 74 74 74 74 72 72 72 73 72 73 73 72 72 72 73 72
60 54 51 47 51 51 58 59 59 58 58 60 61 59 60 65 67 67 69 69 70 72 73 72 73 72 73 73 74 74 74 75 75 74 74 74 74 73 72 74 72 73 72 71 72 72 71 73 74
62 54 49 45 50 51 59 57 59 60 59 59 59 61 62 66 66 67 68 69 70 71 72 72 71 71 73 74 73 74 74 74 74 74 74 75 73 73 73 73 72 73 72 71 71 72 73 74 72
59 52 49 48 48 52 57 57 58 59 58 59 60 62 65 65 66 66 67 66 69 70 72 72 72 72 74 74 74 74 73 74 74 74 74 75 74 73 73 73 71 70 73 72 72 72 72 72 70
59 55 52 49 48 52 56 57 58 59 56 59 59 62 64 65 65 66 67 66 68 70 71 72 72 73 74 74 73 74 74 74 74 74 74 74 73 73 73 72 71 69 70 72 72 71 71 71 69
51 52 55 52 47 54 55 57 57 58 57 58 61 63 64 65 65 66 66 67 68 69 70 72 73 73 73 73 73 73 73 73 73 73 73 73 72 72 71 69 68 70 71 71 70 72 71 71 70
50 48 43 44 43 49 55 56 56 58 59 61 61 63 63 64 65 66 67 68 68 69 70 72 73 73 73 72 73 72 72 72 72 72 72 72 72 71 70 70 71 71 72 72 72 72 72 70 68
32 38 41 33 32 45 54 55 56 57 59 60 61 62 63 64 65 65 66 67 68 68 69 71 72 73 73 72 72 72 72 72 71 71 71 72 71 71 71 70 70 71 71 72 72 71 70 68 66
29 29 29 29 29 46 54 54 55 58 59 59 60 61 62 64 65 65 66 67 68 68 69 70 71 72 72 72 71 72 72 71 70 70 71 72 72 72 71 70 70 72 72 72 72 70 69 66 64
23 23 23 27 32 43 53 50 56 58 59 59 59 60 62 63 64 65 66 66 68 68 69 70 70 71 71 71 71 71 71 71 71 70 71 72 72 72 71 71 71 72 72 72 71 70 69 66 63
23 23 22 24 24 37 51 43 53 58 59 59 59 60 61 62 63 64 65 66 67 68 69 70 70 70 71 71 71 71 71 71 71 71 71 72 73 72 72 72 72 72 71 71 70 69 68 63 63
23 20 20 22 26 43 46 42 53 58 59 59 59 60 61 61 62 64 65 66 67 68 69 69 70 70 70 71 72 72 71 71 71 70 71 72 72 72 72 72 72 71 71 70 69 68 66 64 64
24 21 21 24 23 31 38 44 56 57 58 58 59 60 61 61 63 64 64 65 66 68 68 69 69 70 70 70 70 71 70 70 71 71 72 72 72 73 72 72 72 70 71 70 69 66 65 63 64
21 20 20 22 21 22 23 30 54 57 57 58 59 60 61 61 62 63 64 64 65 66 67 68 69 70 71 70 70 71 71 70 70 72 72 72 73 73 72 72 72 71 71 69 68 66 63 63 63
21 20 20 20 23 23 34 36 42 55 57 58 59 59 60 61 61 62 63 63 63 65 66 67 69 69 71 71 71 70 71 71 70 70 71 71 72 73 73 72 72 72 71 70 68 66 64 62 64
21 21 20 18 18 16 35 27 41 51 56 56 58 59 59 61 62 62 63 63 63 64 66 68 69 69 70 71 70 70 69 68 69 70 70 71 72 72 72 72 72 72 71 70 68 66 64 64 63
22 21 20 20 18 20 26 22 28 49 54 55 56 57 59 60 61 62 62 63 63 63 65 67 69 69 70 70 70 69 69 69 69 70 70 71 72 72 72 72 72 71 71 70 68 66 65 63 63
23 21 18 23 21 18 19 21 23 41 50 54 55 56 57 58 59 61 62 63 63 64 64 66 69 69 70 70 70 69 69 68 68 69 69 70 71 72 72 72 72 71 70 70 68 67 65 65 63
21 19 18 15 16 16 19 22 21 32 43 46 52 54 56 57 58 58 59 61 63 62 64 66 68 69 70 69 69 69 69 69 69 69 69 70 70 72 72 72 72 70 70 69 68 66 65 66 65
20 18 18 14 13 15 21 18 22 26 39 43 44 48 51 54 56 58 58 59 61 62 63 66 68 68 69 69 69 70 70 69 69 69 69 69 70 71 73 72 72 71 69 68 67 65 64 65 65
19 18 17 13 24 13 18 22 25 30 29 41 43 44 45 49 53 55 58 59 60 61 63 65 67 68 69 69 69 70 70 70 69 70 70 69 71 71 72 72 72 71 69 68 67 65 65 65 65
16 18 15 14 14 13 16 17 21 28 29 33 42 45 45 46 49 52 54 56 58 60 62 65 66 67 68 69 70 69 70 70 70 70 70 70 70 72 72 72 72 71 70 68 67 65 65 65 64
16 15 14 15 15 13 12 14 21 25 30 29 31 43 45 46 47 48 52 54 56 58 61 63 65 66 67 69 70 70 70 70 70 70 70 70 70 71 72 72 72 71 70 68 66 66 65 65 65
19 17 14 14 14 12 14 13 22 22 23 30 31 39 46 48 49 49 50 52 54 56 58 61 64 65 66 67 70 70 70 71 70 70 70 71 70 71 71 72 72 71 70 68 67 66 65 64 64

GFSSGP_sfc_dewp_021.txt.gz
Dewpoint
72 71 70 68 61 58 53 54 57 53 54 58 57 57 57 61 57 54 68 68 68 69 69 71 74 75 76 76 76 76 75 75 76 75 75 74 75 75 74 74 74 74 73 73 73 72 72 72 72
72 71 69 62 56 51 52 55 54 56 59 59 60 60 59 60 63 65 67 67 67 67 68 69 75 76 76 77 77 76 75 75 75 75 75 75 75 75 74 74 73 73 73 73 73 72 71 71 71
71 68 63 60 54 50 52 55 57 58 59 58 59 61 61 61 64 65 66 67 67 67 68 70 75 77 76 76 76 76 76 75 75 75 75 75 74 74 74 74 74 74 74 74 73 72 71 70 70
68 67 64 58 51 53 52 56 57 58 59 60 60 60 62 64 64 66 67 67 66 67 67 73 76 75 76 76 76 75 75 75 75 75 74 74 74 74 74 73 74 74 74 73 72 72 72 70 70
66 62 58 54 49 53 56 57 58 56 58 58 59 59 61 64 66 66 67 66 66 66 69 71 76 76 76 76 76 75 75 75 75 75 74 74 74 74 73 74 73 74 73 72 72 72 72 72 72
61 61 52 48 47 54 55 58 57 57 59 59 58 59 62 67 66 66 66 66 66 67 69 71 75 76 76 76 75 75 75 75 74 74 74 74 74 73 73 73 73 73 73 72 72 71 71 72 73
59 55 50 49 47 51 55 58 58 58 58 57 59 58 63 64 65 66 66 67 67 68 69 71 70 74 75 76 75 75 75 75 74 74 74 74 73 72 72 73 72 72 72 72 71 71 71 71 72
61 56 51 48 48 50 57 56 59 58 58 58 59 58 61 65 66 66 67 67 68 69 69 71 70 70 72 72 74 74 74 75 74 74 74 74 73 72 72 72 72 72 72 71 71 70 70 70 71
61 56 51 46 49 50 58 57 59 59 58 58 59 60 61 65 66 66 66 66 67 68 69 70 69 71 73 73 72 74 74 74 74 73 74 73 74 74 72 73 72 72 72 71 71 71 71 71 72
60 55 50 49 50 44 57 56 58 58 57 57 59 61 63 65 65 64 64 64 65 67 68 69 70 70 72 70 73 74 72 70 72 71 73 73 74 74 72 73 72 70 72 72 71 72 71 70 65
61 55 54 49 48 46 52 56 58 57 56 56 58 61 63 64 64 63 63 64 64 66 67 69 71 72 72 71 71 72 71 72 72 75 74 73 74 73 73 73 72 70 69 70 70 70 71 71 67
57 57 55 49 48 49 52 57 57 58 56 57 59 61 62 63 63 63 63 64 65 66 67 68 70 72 72 71 71 70 71 71 71 72 75 74 72 73 74 72 70 71 70 71 72 70 72 72 70
57 51 49 48 46 42 47 55 55 57 57 58 61 61 61 62 62 63 63 64 66 67 67 69 71 72 73 73 71 71 72 71 71 72 73 72 71 73 73 72 71 72 72 71 72 72 74 70 68
46 43 33 37 39 35 45 50 56 56 59 60 61 61 61 61 62 64 65 66 67 68 68 69 70 72 73 73 74 72 72 72 72 71 71 74 71 72 72 72 70 72 72 72 72 73 70 68 68
32 27 27 27 30 31 41 51 53 57 59 60 60 61 61 62 62 64 65 66 68 68 69 70 71 72 73 73 73 72 70 71 70 70 73 73 73 74 74 73 70 71 74 75 75 71 70 65 63
26 27 22 25 27 34 42 32 51 58 58 59 60 60 61 62 63 65 66 67 68 69 70 70 70 71 72 73 73 71 71 70 70 70 70 72 73 75 74 72 70 72 74 76 76 75 72 67 63
23 22 24 25 27 40 46 34 43 57 58 58 60 60 61 62 64 65 65 67 67 69 70 70 71 71 72 73 72 72 72 71 70 70 70 72 73 74 74 72 72 74 72 75 75 73 70 66 64
20 20 23 25 26 31 42 42 47 56 57 58 59 59 60 61 62 64 65 66 67 69 70 71 70 72 73 72 73 71 70 70 69 70 70 74 73 74 74 73 73 74 72 72 71 72 69 66 65
19 20 22 24 25 33 37 41 47 56 57 57 59 59 59 60 62 64 65 66 67 69 70 71 71 73 72 70 69 69 68 69 70 71 73 74 74 75 75 72 74 74 72 72 72 70 68 64 67
20 19 22 24 23 23 27 31 35 53 57 58 59 59 59 60 61 63 64 65 66 68 70 72 72 74 73 71 71 70 70 69 71 71 73 74 74 75 74 74 74 74 71 73 72 71 66 64 66
20 17 19 22 22 22 26 26 34 51 55 57 58 59 59 60 61 63 64 65 66 67 70 72 74 74 74 73 72 72 72 73 72 71 72 73 74 75 75 75 74 74 73 71 72 71 69 63 65
16 18 18 22 22 22 29 24 36 40 52 55 57 58 59 60 61 62 63 65 65 68 69 72 73 74 73 75 73 74 69 69 69 71 71 72 74 74 75 75 75 75 72 73 72 71 69 67 62
18 20 20 22 22 23 22 25 29 44 48 53 56 57 58 59 61 62 63 64 65 67 67 70 73 74 74 75 75 72 72 69 69 70 74 76 75 74 74 75 75 75 73 74 74 72 70 66 63
26 24 24 25 22 21 23 22 25 30 40 48 54 56 58 59 60 62 63 65 65 66 66 68 72 74 74 74 75 75 74 73 70 71 70 70 71 71 74 74 75 75 74 74 73 73 71 69 66
24 20 19 17 17 18 23 23 27 30 39 37 49 55 57 60 60 61 63 64 66 67 68 68 71 72 74 74 74 74 74 74 74 73 70 71 70 70 73 75 75 74 75 74 74 73 71 70 67
23 19 13 17 13 14 26 22 24 29 31 40 43 50 55 58 59 60 63 65 67 67 68 68 70 72 73 73 74 74 75 72 72 73 70 70 69 70 73 74 75 75 74 74 73 71 69 69 68
22 21 18 14 18 15 16 21 26 29 29 35 40 43 49 54 57 59 62 64 66 67 68 69 69 71 72 72 73 74 74 74 72 74 74 70 74 70 73 74 74 75 74 74 74 70 70 69 69
21 22 17 16 16 14 15 21 19 32 31 33 38 40 43 47 52 56 60 62 64 65 67 68 69 70 71 72 72 72 73 74 74 74 74 74 73 73 73 73 74 74 74 74 74 71 71 70 67
19 20 20 17 16 10 9 11 29 34 39 37 36 39 41 45 48 51 57 60 63 63 65 66 68 70 71 72 72 72 72 73 73 73 74 74 74 74 74 74 74 74 74 74 74 73 71 69 69
21 21 21 16 24 17 14 10 23 28 32 37 35 37 41 48 51 51 52 56 59 63 63 64 66 67 69 71 72 72 73 73 73 73 74 74 74 74 75 75 74 74 74 74 73 72 71 70 69

GFSSGP_sfc_dewp_024.txt.gz
Dewpoint
71 71 70 69 62 58 53 53 54 52 53 56 56 56 56 60 56 58 67 69 70 70 71 72 75 75 74 74 75 75 75 75 75 75 74 75 75 74 74 74 74 74 73 73 73 73 72 72 72
68 69 68 62 57 53 53 54 51 53 56 57 58 58 58 59 62 65 67 69 69 68 68 69 75 76 75 75 76 76 75 75 75 75 75 75 74 74 74 73 73 74 73 73 73 72 72 71 71
69 68 63 58 52 49 51 54 54 55 57 56 58 60 59 60 63 65 67 67 67 67 68 71 75 77 76 76 76 76 75 75 75 75 74 75 74 74 73 74 74 74 74 73 72 72 71 70 70
67 67 62 58 48 50 51 54 55 56 57 57 58 58 62 63 63 65 66 66 65 66 66 73 76 76 76 76 76 75 75 75 75 75 74 74 74 74 73 74 72 73 73 73 72 72 72 70 70
65 60 57 54 48 51 53 56 57 55 56 57 57 58 61 63 65 65 65 65 64 65 67 71 77 76 76 76 75 75 75 75 75 74 74 74 74 74 73 74 74 73 73 72 72 72 72 72 72
61 59 50 41 44 51 53 55 56 55 56 58 57 59 63 65 64 65 64 64 64 65 66 69 76 76 77 76 75 75 75 75 74 74 74 74 74 73 73 74 74 73 72 72 72 71 72 72 72
59 53 46 44 45 49 52 55 54 55 56 56 58 58 62 63 64 64 64 64 64 65 64 68 70 73 75 76 75 75 75 74 74 74 74 73 73 73 72 73 73 72 72 71 71 71 71 72 72
58 54 46 45 44 49 54 55 56 56 56 58 58 57 61 63 64 64 64 64 65 65 64 66 68 68 72 72 75 75 75 74 74 74 74 73 72 72 72 72 73 71 71 71 70 70 70 70 71
60 52 45 43 45 47 54 54 57 58 56 56 57 57 61 64 64 63 64 64 65 65 64 64 64 68 71 71 72 74 74 74 74 73 73 73 70 71 71 73 72 71 71 70 70 70 70 71 72
56 50 43 45 44 42 49 53 57 55 55 54 57 59 62 63 63 63 63 63 65 64 64 63 64 66 68 65 71 71 68 67 68 67 71 70 71 73 71 72 72 70 71 71 71 70 71 72 60
53 49 46 44 44 43 45 53 56 53 53 54 57 60 62 62 63 62 62 63 63 64 64 64 66 68 68 67 68 67 67 67 69 72 71 71 72 72 70 69 69 68 71 69 69 69 66 71 64
51 51 50 46 44 43 41 50 54 54 52 55 58 60 61 61 61 61 61 61 62 64 65 65 67 69 68 67 67 66 65 66 66 68 72 72 70 71 72 69 70 70 67 69 68 68 67 69 70
52 47 45 45 44 42 38 45 49 53 55 55 59 60 60 60 61 61 61 61 62 63 65 65 68 71 70 71 66 65 66 65 66 68 70 69 70 74 73 72 70 71 69 68 71 69 67 70 68
45 48 44 34 34 37 34 41 48 51 56 57 59 59 59 60 60 61 61 62 63 64 65 66 68 71 71 71 72 69 68 67 67 66 66 72 71 73 71 71 70 70 70 70 70 71 71 67 66
42 38 31 29 31 32 32 34 45 50 57 57 58 58 59 59 60 61 62 62 63 64 65 66 69 70 72 72 72 71 68 67 66 65 69 71 72 74 76 71 70 70 74 71 71 70 69 65 62
29 29 27 31 32 30 33 34 44 51 56 57 58 58 59 59 59 61 62 63 64 66 68 69 67 69 71 72 72 69 67 67 65 64 66 71 73 75 75 74 70 71 73 71 69 69 67 66 64
24 25 29 31 31 33 36 35 39 51 54 55 58 58 59 59 60 61 62 63 64 68 69 70 71 70 71 73 71 71 71 68 65 65 65 72 73 74 74 74 70 73 71 71 69 70 68 65 63
25 24 26 29 31 31 32 35 36 47 50 53 57 58 58 58 60 61 63 63 65 67 70 71 70 72 73 72 73 70 67 67 66 66 66 71 72 74 74 72 72 71 71 72 73 72 68 65 59
24 24 26 27 31 30 32 33 35 44 50 50 56 58 58 59 60 61 63 64 65 67 69 71 71 73 72 70 69 68 65 66 66 66 70 73 74 75 76 72 72 71 71 73 72 70 69 63 63
22 22 23 27 28 27 30 30 34 40 49 51 54 57 58 58 59 61 63 63 63 67 69 71 72 74 74 71 71 68 67 65 66 67 71 73 74 76 75 78 74 72 73 74 72 73 66 65 61
21 21 22 24 27 26 27 29 31 31 39 48 51 55 57 58 58 60 62 62 63 66 69 71 73 73 74 73 71 70 69 68 67 68 69 72 74 75 76 75 75 76 72 76 74 72 70 63 62
19 19 19 20 23 25 28 26 33 33 37 42 47 52 55 57 59 60 61 62 62 65 68 71 73 74 74 75 72 74 68 67 67 69 68 70 74 74 74 75 75 76 71 73 75 71 71 71 62
18 13 16 18 19 23 26 25 29 32 33 35 42 47 53 56 58 60 61 61 62 65 66 69 73 76 76 75 75 71 72 68 68 67 74 76 75 75 73 75 75 75 75 74 75 73 74 69 65
20 16 15 18 16 18 25 25 27 29 35 35 42 48 53 55 57 60 61 61 62 64 66 68 74 77 76 76 75 76 76 73 69 71 68 69 70 71 74 74 74 75 75 74 74 75 74 72 69
21 19 16 13 13 15 23 23 28 29 31 34 35 40 52 55 57 58 61 62 62 64 66 68 72 75 75 74 75 75 75 76 75 73 70 72 67 67 73 75 75 74 76 75 75 76 74 73 70
22 18 11 17 9 11 22 22 25 29 31 31 34 34 46 54 56 57 60 62 64 64 67 69 71 74 74 74 76 77 77 72 72 74 70 69 67 68 72 73 74 75 75 75 76 73 72 73 71
23 20 14 10 15 12 12 20 23 27 29 30 31 33 37 51 55 57 58 61 64 65 68 70 72 74 74 72 76 77 77 76 72 76 75 71 74 69 72 73 74 74 74 75 76 72 74 72 72
20 21 14 12 18 17 11 18 19 27 30 31 32 32 36 45 53 55 58 59 62 64 66 69 71 73 74 74 74 74 75 76 76 76 76 76 74 74 72 73 74 74 74 75 76 73 74 74 70
18 19 18 14 13 12 12 11 22 27 31 31 32 34 35 42 47 51 54 58 59 62 65 67 69 71 72 73 74 74 74 74 75 75 76 77 75 76 75 75 74 73 74 75 76 75 73 74 73
19 20 20 15 23 16 15 10 15 21 24 31 31 34 35 39 43 45 48 53 57 60 63 64 66 67 70 72 75 75 75 75 74 76 76 77 77 76 76 75 75 74 73 75 75 75 72 73 72

GFSSGP_sfc_dewp_027.txt.gz
Dewpoint
70 70 71 69 61 58 55 54 53 51 53 54 56 57 58 59 59 60 64 69 66 68 69 72 75 74 74 74 75 76 75 75 75 75 74 75 75 74 74 74 74 74 73 73 73 73 72 72 72
66 69 70 66 59 55 52 53 51 53 54 56 56 56 57 58 62 65 68 67 66 66 68 68 75 75 75 75 75 75 75 75 75 75 75 74 75 74 73 73 74 73 73 73 72 72 71 71 71
67 68 66 59 58 51 48 55 53 54 55 56 57 59 60 60 63 64 68 69 68 69 67 70 75 75 75 75 75 75 75 75 75 75 74 74 74 74 74 73 73 74 73 73 72 71 71 70 70
66 67 63 58 54 46 51 53 53 53 54 55 56 58 61 63 64 66 67 67 65 66 65 73 75 75 76 75 75 75 75 75 75 75 75 74 74 73 74 73 73 73 73 73 72 72 71 71 70
66 61 57 55 51 47 50 53 55 54 54 54 56 58 61 63 64 66 66 66 65 66 66 71 77 77 76 75 75 75 75 75 74 74 74 74 74 73 73 74 73 73 72 72 72 73 72 73 72
63 60 56 49 42 46 50 52 56 55 54 55 58 60 62 64 64 65 65 65 66 66 64 70 75 77 76 75 75 75 75 75 74 74 74 74 74 74 74 74 73 72 72 72 72 72 72 72 73
60 57 55 52 43 45 47 50 53 53 53 53 57 59 62 62 64 64 64 64 65 64 63 67 69 73 76 76 75 75 74 74 74 74 73 73 73 73 73 73 73 72 72 71 71 71 71 72 72
57 53 49 51 49 44 46 46 49 53 54 56 59 59 61 63 63 64 64 64 65 64 62 65 67 68 72 71 74 74 74 74 74 74 73 73 73 73 72 73 73 71 71 71 70 70 71 71 72
56 52 48 41 43 45 47 45 50 54 54 55 56 59 62 63 62 62 63 63 64 63 61 62 64 68 71 70 72 74 74 74 74 73 73 73 73 73 73 73 72 70 71 70 69 70 69 71 72
53 53 55 41 39 41 46 47 48 51 52 54 54 59 61 61 62 62 62 63 63 63 60 61 63 65 67 64 71 71 69 67 69 69 70 75 72 73 71 72 73 72 71 71 69 70 70 73 70
49 50 57 41 41 41 44 48 48 46 49 53 55 59 61 61 62 62 63 63 63 63 60 60 64 67 65 68 66 65 64 65 66 69 70 74 70 71 72 71 70 68 72 71 70 69 70 64 65
45 48 57 42 42 40 41 47 48 47 46 51 57 59 60 60 59 59 61 62 62 61 61 60 64 67 66 65 64 63 62 63 64 66 71 72 70 69 71 72 69 69 71 71 71 69 69 71 67
43 44 45 46 44 41 39 42 50 48 47 51 57 59 59 60 60 59 59 60 61 61 61 61 65 70 71 70 65 63 63 62 62 66 69 68 72 71 72 71 73 72 70 72 67 70 68 68 69
42 44 44 43 41 39 37 37 44 49 49 52 56 58 58 59 59 60 59 60 61 62 62 62 66 70 70 70 72 67 64 64 63 63 66 71 71 71 74 72 72 73 73 73 69 69 72 66 66
41 40 43 44 36 35 37 34 42 49 52 53 55 57 58 58 59 60 60 60 61 62 63 64 66 68 70 71 71 68 65 64 64 64 68 70 72 73 75 74 71 73 72 72 72 70 72 67 60
37 39 38 37 35 34 34 33 38 48 53 53 55 55 57 58 58 60 60 60 62 63 65 66 64 67 69 71 71 68 66 65 64 63 65 70 72 74 74 72 70 74 71 69 71 72 62 64 60
29 29 32 34 34 33 33 35 41 45 51 53 54 55 55 57 58 60 60 61 61 64 66 67 68 67 70 74 71 70 72 67 64 63 63 72 73 73 74 70 74 73 73 68 68 68 66 61 58
27 25 27 29 32 33 32 34 39 46 47 50 54 55 56 55 57 59 60 61 62 64 67 69 68 73 75 72 74 69 67 66 65 64 63 74 72 73 74 73 72 71 72 71 69 72 66 62 57
28 25 25 28 31 30 33 36 36 40 44 45 52 55 56 55 56 58 60 61 62 65 68 71 72 76 73 70 69 68 66 66 65 65 69 71 71 74 75 72 73 71 74 71 71 69 68 60 62
28 27 25 26 27 30 32 33 33 36 41 45 48 53 55 56 56 57 59 60 61 64 68 73 74 76 75 71 72 69 69 64 65 65 71 71 72 74 76 76 72 72 72 72 72 71 70 60 60
21 22 24 24 26 27 30 31 33 33 37 45 47 52 53 55 56 58 59 60 61 64 69 73 75 76 76 76 73 73 70 69 65 66 66 70 73 73 75 74 73 73 74 75 73 71 71 67 59
14 16 19 21 23 24 28 26 34 32 33 42 44 49 52 54 57 59 59 60 60 64 67 73 75 76 76 77 73 74 67 65 64 66 66 69 74 73 73 75 73 77 71 77 75 71 72 71 62
16 15 17 19 21 25 26 27 32 32 31 32 37 44 50 52 55 57 59 60 60 62 64 70 76 77 77 77 76 71 71 65 65 65 73 74 77 74 72 75 76 76 73 76 74 74 74 69 67
18 16 16 16 15 19 24 25 29 29 33 33 36 38 45 49 53 57 59 60 60 61 63 68 75 77 77 77 77 77 74 71 66 68 67 67 67 72 76 74 77 77 76 75 74 75 74 73 70
19 16 13 11 10 14 20 21 28 30 29 32 34 36 40 46 52 56 59 59 60 62 65 68 74 77 77 77 76 76 76 76 77 75 68 69 66 66 74 77 78 74 77 75 77 78 76 74 71
20 16 12 17 9 8 18 20 23 29 30 30 34 35 41 44 50 54 58 60 61 63 66 68 73 76 77 77 77 77 78 72 71 73 68 67 65 66 74 77 76 76 76 75 77 73 73 75 72
21 18 13 10 10 7 8 16 20 25 27 30 31 34 36 43 48 54 57 60 62 62 67 70 72 75 77 76 77 78 77 77 73 75 75 71 74 67 74 75 76 76 76 77 78 72 75 75 74
21 19 13 13 19 17 12 18 17 27 29 30 32 33 35 38 47 52 55 58 62 61 64 69 71 74 76 75 76 76 77 78 77 77 77 75 74 76 75 75 75 76 76 77 78 74 76 76 72
19 19 18 13 13 14 16 14 21 28 30 30 31 33 34 35 45 51 54 56 60 61 62 65 69 73 75 75 76 76 76 76 77 76 77 77 77 78 76 77 76 76 76 77 78 77 75 76 76
20 20 22 16 25 14 14 17 19 20 22 29 31 33 33 36 43 50 52 54 56 60 62 63 66 67 72 74 76 76 76 76 76 77 76 78 78 78 78 77 77 77 76 77 77 76 73 75 75

GFSSGP_sfc_dewp_030.txt.gz
Dewpoint
72 70 69 69 62 60 55 56 59 54 54 56 58 59 57 59 58 57 66 68 66 68 69 72 75 75 75 76 77 76 76 77 76 75 76 75 75 74 75 75 75 75 74 73 73 73 73 72 72
68 69 70 67 59 52 56 56 55 54 54 55 56 56 58 60 60 63 65 67 65 66 66 68 75 75 75 76 77 76 75 75 75 75 75 75 75 75 75 75 74 74 73 73 72 72 72 72 72
66 68 66 63 59 54 54 57 55 54 56 57 57 59 60 61 61 62 63 65 64 66 65 71 76 76 76 77 76 76 76 75 75 75 75 74 74 75 74 74 74 74 73 73 72 72 71 71 71
68 69 67 59 55 55 53 54 55 53 56 57 58 59 61 62 63 63 61 60 62 65 66 74 75 75 76 76 76 76 75 75 75 75 75 74 74 74 73 73 73 73 73 73 73 73 72 71 71
67 62 59 57 54 53 52 53 56 55 53 57 59 59 62 64 66 63 62 62 64 65 69 70 76 76 77 76 76 76 75 75 75 75 75 74 74 74 74 74 73 73 73 73 73 73 73 73 72
64 61 55 52 49 48 50 52 53 55 55 58 59 60 61 65 66 66 66 64 65 66 66 71 76 76 76 76 76 75 75 74 75 75 74 74 74 75 74 74 73 73 73 73 73 72 72 73 71
61 59 55 54 50 46 50 54 52 54 51 57 60 59 62 64 65 66 66 66 62 64 66 71 72 74 76 76 76 75 75 74 74 74 74 74 73 73 73 74 74 73 72 72 71 71 71 71 72
59 61 58 56 49 49 48 51 53 53 53 58 61 59 61 64 65 65 66 64 65 61 66 70 71 70 72 72 75 74 74 74 73 73 73 73 73 72 72 75 75 72 72 71 70 70 70 71 73
59 56 54 53 49 51 45 51 54 53 54 56 59 60 62 63 63 63 64 65 64 62 64 65 66 71 73 73 73 74 74 73 73 73 73 73 76 73 73 74 74 72 71 70 69 69 70 73 73
53 58 54 54 52 49 47 45 49 50 51 55 59 61 62 63 63 62 63 63 63 62 61 63 66 68 70 66 73 74 71 71 72 71 65 68 74 75 73 72 75 72 70 71 71 72 73 71 71
49 53 51 50 51 44 46 43 48 47 49 57 59 59 61 62 62 62 63 63 63 61 60 63 67 70 68 70 71 70 70 70 71 72 66 70 74 74 73 72 71 73 70 70 71 71 70 70 70
44 55 55 52 51 40 49 54 44 49 50 56 59 59 61 61 61 62 62 62 62 62 61 62 66 70 69 70 67 68 67 69 69 71 74 75 73 73 74 73 74 71 72 73 73 72 73 72 71
42 52 51 55 54 39 50 55 52 50 49 55 59 59 59 60 61 62 63 62 63 63 61 63 67 71 74 73 68 66 70 67 70 72 74 73 72 76 75 75 70 71 72 72 72 73 73 73 68
42 42 47 50 51 40 37 48 51 52 48 54 57 58 58 58 59 61 63 63 63 64 61 65 68 71 75 75 77 73 73 69 70 69 71 75 75 76 77 76 71 74 72 72 72 70 70 70 69
39 39 41 42 42 37 36 35 41 53 49 51 55 58 58 58 57 59 62 61 62 61 63 66 68 70 73 75 76 75 73 66 68 70 75 74 76 77 74 75 75 76 77 75 75 73 71 69 66
37 36 37 41 41 37 34 33 45 51 49 50 53 56 57 58 57 59 59 60 62 62 65 67 64 68 71 73 75 73 70 70 71 71 72 74 76 78 78 74 73 73 75 74 73 73 70 70 66
36 33 35 38 39 36 33 32 36 49 48 52 52 54 56 58 59 60 59 61 62 65 68 69 68 69 71 74 73 72 73 73 72 73 71 75 76 77 78 76 75 76 73 75 72 73 73 67 65
34 32 32 35 37 34 32 32 39 43 54 51 54 53 55 55 57 60 60 61 62 66 69 70 68 72 72 73 75 71 71 72 72 73 72 75 76 76 78 76 77 75 72 75 74 74 71 70 66
34 30 27 29 32 33 32 35 40 47 56 55 52 54 54 55 57 60 60 60 62 66 69 70 71 75 73 72 71 71 69 71 71 73 75 76 76 77 79 78 73 76 75 75 74 73 72 68 67
32 30 26 26 26 29 32 31 37 46 53 53 52 57 55 53 55 59 60 60 61 66 70 71 72 75 74 73 73 72 72 71 71 72 75 75 75 77 77 77 76 76 75 76 76 75 73 68 67
31 30 28 25 25 27 31 31 34 41 42 44 49 53 53 55 55 58 60 60 61 66 70 72 73 75 74 75 74 75 75 75 70 71 73 73 75 76 77 77 77 76 76 75 76 75 74 71 67
25 29 26 25 24 22 26 25 37 35 36 40 42 47 51 55 56 58 59 60 61 65 69 73 74 75 75 76 74 74 70 68 70 70 71 72 74 76 76 77 77 78 77 75 75 76 75 74 68
19 17 21 21 23 23 24 24 29 36 34 35 42 47 53 54 55 57 58 61 62 64 68 72 75 75 76 75 76 73 71 70 69 70 74 74 75 75 75 76 77 78 77 76 76 77 76 76 71
15 13 14 15 16 21 23 23 28 30 37 35 39 41 50 51 55 59 59 61 62 64 67 71 75 75 76 76 75 76 73 72 69 70 70 72 73 74 76 77 77 78 76 77 77 77 77 76 75
15 13 14 14 14 15 21 22 29 30 36 35 35 39 44 51 54 59 61 61 62 64 67 69 74 74 75 75 74 75 75 73 75 74 70 71 70 72 74 77 77 76 77 77 76 77 77 76 75
16 13 14 19 14 11 18 19 23 29 30 35 35 36 41 46 50 56 61 61 62 63 66 68 73 74 75 75 75 74 77 73 71 75 70 71 70 70 75 75 76 76 76 76 78 76 75 76 75
19 17 14 12 12 9 10 16 19 26 27 30 29 35 38 42 46 55 59 62 63 63 66 68 72 74 75 74 75 75 75 76 71 73 75 73 74 71 75 75 75 75 76 76 77 75 76 76 75
19 19 15 15 20 18 12 21 18 27 29 31 33 31 38 42 46 53 58 61 62 62 64 67 71 73 75 75 75 75 74 75 75 73 75 73 75 74 77 75 75 76 76 77 77 76 76 75 75
18 19 18 15 15 15 16 13 25 32 33 34 33 34 37 43 47 51 57 60 62 62 63 65 68 72 74 75 75 75 75 75 75 74 74 76 74 78 74 77 76 76 75 76 77 75 75 75 75
18 20 22 19 26 18 19 16 22 28 30 32 33 35 38 42 49 50 54 59 61 62 62 64 67 69 73 75 75 75 75 76 75 74 74 75 77 75 77 76 76 76 75 76 75 75 73 75 75

GFSSGP_sfc_dewp_033.txt.gz
Dewpoint
72 69 70 69 62 59 55 54 59 57 56 59 59 60 60 60 57 55 67 68 68 69 71 73 75 76 75 77 77 76 76 75 76 77 76 75 74 75 76 75 74 74 74 73 73 73 73 72 72
70 69 71 67 58 52 54 57 59 58 57 58 59 60 60 58 62 65 65 67 68 68 70 72 76 76 75 77 77 77 75 75 76 76 76 76 75 76 75 74 74 74 74 73 73 73 72 72 72
68 69 66 62 58 53 55 58 59 57 57 58 59 60 60 59 64 64 66 66 67 67 69 72 76 76 75 76 76 76 76 75 76 76 75 75 76 75 74 75 74 73 73 73 73 72 72 71 71
66 69 67 60 56 56 55 56 58 55 59 60 60 58 60 61 62 64 65 64 65 65 71 75 76 75 76 76 76 76 75 76 76 76 75 75 74 74 74 73 74 73 73 73 73 72 72 71 72
68 66 60 57 57 59 58 57 59 57 58 59 59 58 59 61 63 64 63 63 64 68 72 73 77 76 76 76 75 76 75 75 76 76 75 74 75 75 74 73 74 73 73 74 73 73 73 72 72
65 60 55 52 53 56 57 55 57 57 59 61 61 61 63 60 60 60 60 61 66 70 71 73 76 76 77 75 75 75 75 75 77 76 75 75 75 76 75 73 73 73 73 73 73 73 73 72 71
61 59 53 53 56 54 52 55 55 58 58 59 61 61 64 60 60 60 60 63 67 67 71 73 74 74 75 77 75 75 75 75 75 75 75 75 74 74 74 75 74 73 72 72 72 73 73 73 71
61 58 54 56 53 53 60 53 56 57 59 61 62 61 62 63 64 64 64 65 66 69 71 73 73 73 73 74 75 75 74 74 74 74 74 73 72 73 73 75 75 73 72 72 71 73 74 74 74
62 58 53 55 52 50 56 54 56 59 59 60 60 62 64 65 66 64 64 65 63 68 69 70 71 72 72 73 73 74 74 74 74 74 74 73 73 72 72 74 75 72 72 72 74 74 75 73 71
60 58 56 55 53 53 55 55 53 58 58 60 62 64 64 64 64 64 64 64 63 65 67 68 69 70 71 70 72 72 72 72 72 70 66 68 70 72 73 73 75 73 74 74 75 74 74 74 70
57 54 54 52 51 56 54 54 59 57 58 61 61 63 63 63 64 64 64 64 62 63 65 65 68 70 68 70 72 72 71 71 71 65 69 70 73 73 73 72 72 71 69 68 70 70 70 69 69
51 53 54 51 51 50 50 52 54 54 59 61 62 62 62 62 62 63 63 63 62 61 62 64 67 68 68 69 70 70 69 70 71 68 70 70 71 72 73 72 72 70 71 71 72 72 71 69 68
47 53 50 48 50 50 50 50 52 56 60 61 61 62 61 61 62 63 63 63 62 60 61 63 66 68 69 68 68 67 67 68 70 69 69 72 69 71 72 73 71 71 72 67 66 71 67 69 67
46 50 49 51 49 50 49 47 54 57 59 59 61 61 61 61 61 62 62 62 62 60 60 63 66 69 67 67 66 66 69 66 69 70 71 71 73 72 73 72 71 70 71 69 70 69 66 65 68
46 43 50 50 48 48 52 51 52 58 59 58 60 61 61 61 62 62 62 62 61 62 61 64 64 68 68 68 70 69 69 65 66 69 71 72 71 72 70 71 72 73 72 70 72 70 68 65 66
44 42 40 48 49 48 47 46 48 54 57 57 58 59 60 60 61 62 62 62 62 62 63 65 64 68 70 69 70 70 67 68 68 69 71 71 71 72 72 72 71 71 73 73 71 70 69 68 67
39 39 36 36 40 41 38 41 48 51 54 56 57 57 58 59 60 62 63 62 62 62 65 65 65 67 70 70 71 69 69 69 69 70 70 70 71 72 73 72 72 72 71 71 70 69 70 66 64
37 37 35 34 36 40 37 35 50 50 52 58 59 57 57 57 58 60 62 62 61 64 64 65 66 66 69 70 71 69 69 71 69 69 69 71 72 73 73 73 72 71 70 71 71 68 65 61 60
37 37 34 34 35 37 37 35 48 56 60 60 61 61 57 57 58 58 59 60 61 65 65 66 67 68 68 70 70 69 68 70 68 68 71 72 73 73 74 74 72 73 70 71 69 68 67 60 63
32 34 35 33 30 34 35 33 50 54 54 58 59 57 57 56 57 58 58 59 61 65 66 66 69 69 68 69 68 70 70 70 68 68 73 73 73 74 74 73 72 73 72 71 70 69 68 64 61
29 31 32 32 30 27 31 33 48 51 51 53 55 56 59 55 56 58 58 58 61 65 65 68 68 70 69 70 70 71 71 70 69 68 71 73 73 75 73 73 73 73 73 72 71 71 69 65 63
28 31 32 31 30 26 24 30 36 46 48 50 53 57 57 57 56 58 58 58 61 65 66 67 69 72 70 71 70 69 67 67 68 67 69 71 73 73 74 73 73 73 72 70 71 72 70 68 60
30 29 29 30 29 25 25 27 30 41 45 49 53 57 59 61 56 57 58 59 60 65 67 67 69 72 71 71 70 70 69 69 68 68 68 70 71 73 74 74 74 73 74 71 70 71 71 71 67
32 30 24 28 26 21 21 23 26 33 37 45 50 56 58 52 53 58 59 59 59 64 68 69 70 72 71 71 72 71 70 68 68 68 67 71 71 72 73 74 74 74 73 73 72 72 72 70 71
28 23 17 15 18 17 18 21 23 30 37 37 46 53 53 53 51 59 58 58 60 64 67 70 71 72 72 71 71 73 71 69 68 67 68 70 71 71 72 74 73 74 73 74 73 72 73 72 71
22 19 14 13 13 13 15 15 21 28 31 36 41 50 51 56 57 57 57 58 59 62 66 70 71 71 73 72 70 70 74 71 68 72 67 71 69 71 72 73 74 73 74 74 73 73 73 73 71
19 15 14 13 19 15 14 13 16 17 22 25 35 38 50 54 55 56 57 58 59 62 65 68 71 71 72 72 72 70 71 74 68 67 72 67 71 69 72 72 75 74 73 73 74 73 72 73 72
19 17 13 12 14 13 14 13 14 15 17 23 29 34 42 53 53 57 57 58 59 60 64 66 71 71 71 71 72 72 70 71 73 69 68 72 68 70 70 73 72 74 74 74 73 74 74 73 73
16 18 14 15 17 16 19 18 17 17 21 26 26 35 36 45 54 57 58 59 60 60 63 66 69 71 72 72 71 72 72 70 73 72 69 71 72 71 72 73 72 73 73 75 73 73 73 74 73
20 17 16 14 16 17 16 17 28 26 21 26 26 33 38 43 53 58 59 59 60 60 62 64 67 71 72 72 72 72 73 72 70 73 73 68 73 71 74 74 73 74 73 73 74 73 73 72 73

GFSSGP_sfc_dewp_036.txt.gz
Dewpoint
72 70 70 69 61 58 55 55 60 58 59 60 60 59 58 60 58 53 66 68 69 71 73 74 76 76 76 76 76 75 75 75 75 75 75 75 75 75 75 75 74 74 74 74 73 73 72 73 72
70 69 70 67 58 52 53 59 58 58 59 61 61 60 59 59 63 65 66 69 70 71 72 73 76 76 76 76 76 76 74 75 76 75 75 75 75 75 74 74 74 74 74 73 73 73 73 73 72
70 70 66 62 58 51 54 59 59 58 60 59 59 61 60 61 64 64 67 68 70 71 72 73 76 77 76 76 75 76 75 75 75 75 75 75 75 75 74 74 73 73 73 73 72 72 72 72 72
68 69 67 59 56 56 55 57 59 58 60 60 59 57 60 64 63 65 67 67 68 70 72 75 76 76 76 75 76 75 75 75 75 75 75 74 74 74 74 74 73 73 73 73 72 72 71 71 71
68 66 59 57 56 58 59 59 61 59 60 59 58 58 60 62 65 65 66 66 66 70 73 73 76 77 76 75 75 75 75 75 75 75 75 75 74 74 74 74 74 74 74 73 73 73 72 72 72
64 61 54 52 53 56 57 60 63 61 60 59 59 61 59 64 63 63 64 64 70 71 73 74 76 77 76 75 75 75 75 75 75 75 75 75 75 74 74 74 73 73 73 73 72 73 73 71 72
61 56 53 53 55 56 57 61 60 60 59 58 59 60 58 62 62 62 62 66 70 72 73 73 73 74 75 76 75 75 75 75 75 75 75 75 74 74 74 74 74 73 72 72 72 72 72 72 71
61 55 52 55 54 56 61 61 61 60 60 62 61 60 56 60 61 60 61 68 69 71 73 73 73 73 74 73 75 75 75 75 75 74 74 74 73 73 73 75 75 72 71 71 71 72 73 73 72
64 54 52 50 54 56 61 57 61 62 60 60 61 62 59 59 58 59 62 67 69 71 73 73 72 73 73 73 73 74 75 75 74 74 74 74 72 71 72 73 74 72 70 70 72 74 74 73 72
62 54 52 53 56 55 62 59 59 59 59 61 62 61 60 60 58 61 63 67 68 70 71 72 72 72 72 72 72 72 72 72 72 72 70 70 70 70 72 73 73 72 71 72 74 73 72 72 69
60 57 57 56 56 53 54 57 60 60 60 61 62 61 61 61 62 63 63 66 67 69 70 70 70 71 71 71 72 72 72 72 72 69 66 68 71 71 72 72 72 70 69 69 69 69 70 70 69
54 58 58 55 53 51 51 56 59 58 60 62 63 62 63 63 63 63 63 64 66 67 68 68 70 70 68 71 71 71 71 71 71 65 69 70 70 71 71 71 70 70 70 70 70 71 71 70 66
53 54 55 54 53 50 51 52 52 56 62 62 62 63 63 62 63 64 64 63 64 65 66 67 69 69 68 69 69 70 70 70 71 67 68 71 70 70 71 72 71 71 71 69 65 70 68 68 66
50 51 51 51 50 49 50 49 53 61 62 62 61 62 62 63 63 63 63 63 62 63 64 66 68 68 68 68 67 68 68 68 70 69 69 71 69 71 72 72 71 71 71 69 67 69 66 64 66
43 47 47 50 49 49 49 48 56 61 62 61 62 62 62 62 63 63 62 63 61 61 63 64 67 68 68 66 66 66 67 67 69 70 71 70 71 71 71 71 70 70 70 69 70 69 67 65 65
43 44 44 48 48 48 49 46 57 60 60 60 61 61 61 61 62 62 63 62 63 61 62 64 66 68 67 66 68 69 67 66 69 70 71 71 70 72 72 70 71 72 71 71 70 69 68 67 67
36 37 41 43 49 48 49 45 58 60 60 60 60 60 60 61 61 61 63 62 62 62 62 63 64 68 66 69 69 68 68 68 68 69 70 71 71 73 72 72 71 70 71 70 69 69 70 66 66
32 38 38 39 39 47 47 44 57 58 59 60 60 60 60 60 61 61 62 62 62 63 63 63 63 67 67 70 69 68 68 68 70 70 70 70 71 73 72 71 72 71 69 70 70 67 63 58 60
34 36 37 37 38 35 38 48 56 57 58 59 60 60 60 60 60 62 62 62 62 64 63 63 63 67 68 69 68 66 65 67 68 69 69 70 71 72 73 72 71 71 69 70 68 67 65 58 62
30 31 36 38 39 35 37 47 54 56 57 58 59 59 59 59 60 61 62 62 61 64 64 64 64 65 68 67 68 67 67 68 68 68 70 71 72 73 73 72 71 71 70 70 68 69 67 62 61
29 29 31 35 36 33 34 46 48 53 56 57 58 59 59 58 57 60 61 62 62 63 64 65 65 65 66 68 68 70 70 68 68 67 71 71 72 73 73 72 72 72 71 70 70 69 66 60 63
27 29 30 31 32 31 30 36 50 53 54 53 53 56 57 57 57 58 59 61 60 63 64 66 66 66 66 69 67 67 67 67 68 67 69 71 73 73 73 72 72 72 72 71 71 71 69 64 58
29 30 29 30 31 30 30 26 48 52 52 51 52 53 55 58 57 57 57 59 60 63 64 66 68 67 67 70 67 67 66 67 69 67 67 70 71 73 72 72 72 71 72 70 70 71 70 68 65
34 31 30 30 29 27 28 25 25 50 50 50 50 52 53 57 57 57 58 58 60 63 64 66 69 68 68 70 69 68 67 68 67 67 66 69 70 71 73 73 72 72 73 71 70 70 71 70 67
34 30 28 25 24 24 27 21 24 47 49 50 50 50 54 57 56 56 58 57 59 63 64 66 67 70 69 69 70 69 68 68 68 67 66 69 69 70 72 73 73 72 72 72 71 71 71 70 70
33 29 28 25 21 21 19 17 21 26 44 46 50 51 55 56 56 56 57 58 59 63 65 65 66 68 70 70 70 70 70 69 68 68 67 67 70 69 70 73 73 73 73 72 72 71 71 72 70
29 30 23 15 26 14 16 14 17 19 20 38 50 53 55 56 56 55 57 58 59 63 65 66 66 66 70 69 70 71 71 70 69 68 69 68 70 71 71 71 73 73 73 72 72 71 71 73 71
30 23 19 15 14 16 15 14 14 16 16 21 46 52 55 57 55 54 57 58 59 62 65 67 67 66 69 70 69 69 70 73 70 68 69 71 69 70 71 71 73 73 72 72 73 72 72 72 72
27 21 18 18 16 13 14 14 17 17 21 18 42 48 53 55 54 53 56 58 58 60 64 68 68 68 69 71 71 70 69 69 73 70 67 68 70 69 70 71 72 73 73 72 72 72 73 72 72
28 21 17 14 13 17 18 15 24 18 19 19 23 51 52 53 54 54 57 57 58 59 62 66 69 69 70 71 71 71 71 70 69 73 70 68 69 71 69 72 72 72 73 73 72 72 72 73 72

GFSSGP_sfc_dewp_039.txt.gz
Dewpoint
72 70 70 68 60 58 54 56 59 58 60 61 59 57 59 61 58 53 66 68 70 71 72 73 76 76 75 75 76 75 75 75 75 75 75 75 75 75 74 74 74 74 73 73 73 73 72 72 72
70 69 70 66 58 51 53 59 58 59 60 62 61 60 59 60 62 65 65 69 71 72 73 73 76 76 75 75 76 75 75 75 74 75 75 75 75 75 74 74 74 74 73 73 73 73 72 72 72
69 69 65 62 55 51 53 57 59 60 61 60 60 60 60 61 63 64 67 70 72 72 73 74 76 76 75 75 75 75 75 74 75 75 75 75 75 74 74 74 73 73 73 72 72 72 72 71 71
68 68 66 59 55 55 55 58 61 60 62 60 59 57 61 64 63 66 69 71 71 72 72 75 75 75 74 75 75 75 75 75 75 75 75 75 75 74 74 74 73 73 73 73 72 72 72 72 71
68 66 59 57 56 56 58 61 61 60 61 59 58 58 61 63 66 67 68 70 70 71 73 73 76 76 75 75 75 75 75 75 75 75 74 74 74 74 74 74 74 74 73 73 73 73 72 71 71
64 61 54 52 52 56 59 61 61 60 61 60 59 59 60 65 66 66 67 68 71 72 73 74 75 75 75 74 75 75 75 75 75 75 75 75 74 74 74 74 74 73 73 72 73 72 72 72 71
62 56 52 52 54 55 59 62 60 61 60 59 60 58 62 63 65 65 65 69 71 72 73 73 74 73 75 75 75 75 75 75 75 75 75 75 74 74 74 74 74 73 72 72 72 72 72 72 72
61 55 53 55 53 55 60 61 62 61 60 60 59 57 59 62 64 63 67 70 71 72 73 73 73 72 73 73 74 75 75 75 75 74 74 74 74 74 73 74 75 73 72 72 71 72 72 73 72
62 52 52 51 52 55 59 59 61 63 60 60 61 59 60 62 62 62 68 69 70 72 73 72 72 73 73 73 73 74 75 74 74 74 73 73 72 71 72 72 72 72 72 71 72 72 71 72 72
62 52 51 52 56 56 58 62 60 61 59 61 58 60 61 60 60 62 66 68 68 70 72 72 72 72 72 73 72 72 73 72 73 72 71 70 70 69 72 73 72 71 72 72 73 72 72 71 68
61 55 55 53 56 57 59 60 60 60 60 61 57 59 59 58 60 62 66 67 68 70 72 72 71 71 72 72 72 72 72 72 72 70 68 69 70 70 72 72 72 69 69 69 69 70 70 69 69
58 59 58 56 56 57 58 58 58 60 60 62 58 58 57 57 59 62 66 67 68 69 71 71 71 71 71 71 71 71 71 71 71 68 67 68 70 70 71 71 70 70 69 69 70 70 70 69 66
55 57 57 59 58 55 54 57 59 60 62 62 58 57 56 58 60 63 66 67 68 68 69 69 70 70 70 70 70 70 70 71 71 66 67 70 70 70 71 71 69 70 70 69 65 69 67 66 66
51 53 54 53 53 53 51 57 59 60 62 61 58 57 56 59 62 63 64 66 67 68 68 68 69 70 69 69 68 69 69 70 70 69 66 69 68 69 70 70 70 70 70 69 67 69 64 64 65
43 46 44 48 51 49 50 48 52 61 62 61 59 58 58 61 63 63 63 65 66 66 66 67 68 69 68 68 67 68 68 68 69 70 68 70 69 71 71 71 70 69 70 68 69 69 68 64 65
39 40 40 44 49 49 48 46 60 61 60 60 61 60 60 61 63 64 63 63 64 64 65 66 67 68 67 68 66 66 67 68 68 70 70 70 70 70 70 70 69 70 70 70 69 68 67 66 65
29 35 41 42 47 49 48 50 60 61 60 60 60 60 61 61 63 64 63 63 62 63 63 64 66 68 67 67 67 67 67 67 68 70 70 70 71 72 71 71 71 71 70 70 70 69 69 66 66
29 35 37 38 42 48 48 49 59 60 60 60 60 60 60 61 62 63 63 62 63 62 62 64 65 67 67 67 68 68 68 68 69 69 70 71 72 72 71 71 70 71 69 69 69 66 64 59 62
32 36 37 39 41 42 47 47 58 59 59 60 60 60 60 60 62 62 63 63 63 63 61 63 64 66 67 68 67 66 66 67 68 69 69 70 71 72 71 70 71 70 68 69 67 66 61 60 60
27 28 33 36 37 37 37 45 57 59 59 60 60 60 60 60 60 61 61 62 62 62 62 62 63 65 68 66 67 66 66 66 67 68 69 69 71 72 72 71 71 71 69 69 68 67 65 59 62
26 25 29 33 36 37 39 45 48 58 59 60 60 60 60 60 60 60 61 61 62 62 63 63 63 64 67 67 68 69 68 67 67 67 69 69 71 72 73 72 71 70 70 69 68 68 63 58 63
25 28 29 30 32 31 34 43 54 56 57 57 59 60 60 60 60 60 61 61 61 61 64 64 63 63 66 67 67 66 64 63 64 66 69 70 71 72 73 71 71 71 71 70 69 70 68 60 60
28 29 30 30 30 31 30 30 47 54 55 56 57 59 60 60 60 60 60 61 62 62 63 64 64 64 65 67 66 66 64 64 68 67 67 70 71 72 73 72 71 71 71 70 70 70 68 66 59
33 30 30 30 29 26 28 29 28 48 53 55 57 57 58 59 59 60 60 61 62 62 63 64 65 64 64 67 66 66 65 67 68 67 66 69 70 71 72 72 71 71 71 70 69 70 69 69 66
33 29 27 26 26 26 29 28 29 44 51 53 55 55 56 56 58 58 59 60 61 62 63 64 65 65 65 66 67 66 66 67 67 67 66 67 69 70 71 72 71 71 71 71 70 69 70 69 69
32 32 29 25 26 27 26 25 26 36 49 52 53 54 53 52 57 58 58 59 60 61 63 64 66 65 66 67 67 67 66 67 67 67 67 67 68 69 70 72 72 72 72 72 71 70 70 70 69
33 32 32 24 21 20 26 18 18 26 41 50 51 52 51 51 54 57 58 58 59 61 63 64 65 66 66 67 68 68 68 68 67 68 67 67 68 69 69 71 72 72 72 72 71 70 70 71 70
34 32 29 23 21 19 18 15 22 22 27 38 50 51 51 51 53 56 57 58 58 60 63 64 65 66 67 67 68 68 68 69 68 68 68 67 68 70 70 70 71 72 72 72 71 71 70 70 71
26 29 32 30 21 21 13 17 19 20 22 24 44 47 49 51 54 56 57 57 58 59 63 63 64 65 67 68 68 68 69 69 69 69 69 69 68 69 71 71 71 71 72 72 72 71 71 70 70
25 28 21 28 25 17 18 18 19 19 21 21 31 44 50 53 55 56 56 56 58 58 62 64 64 64 65 68 68 68 69 70 71 70 69 68 70 69 69 71 71 71 72 72 72 71 72 71 70

GFSSGP_sfc_dewp_042.txt.gz
Dewpoint
71 69 70 68 58 58 52 55 59 59 59 61 56 56 57 60 57 53 66 68 70 70 72 73 75 75 74 75 75 75 75 75 75 75 75 75 74 74 74 74 74 74 74 73 73 72 72 72 72
70 69 70 65 57 50 51 58 57 59 61 63 58 60 59 60 62 65 66 70 70 71 72 73 75 75 75 75 75 75 75 75 75 75 75 74 74 74 74 74 74 74 73 72 73 72 72 72 72
69 69 65 62 55 51 53 58 60 61 62 61 59 60 61 60 64 64 68 70 71 72 73 73 76 76 75 75 75 75 74 74 75 74 74 74 74 74 74 74 74 73 73 73 73 72 72 72 71
67 68 66 60 55 55 56 58 60 61 62 62 60 59 62 63 63 66 70 71 72 73 73 75 75 74 75 75 75 74 74 75 75 74 74 74 74 74 74 74 73 73 73 73 72 72 72 71 71
69 66 59 57 55 56 58 62 63 61 62 60 60 59 61 64 67 69 70 71 72 72 73 73 76 75 75 75 75 74 75 75 75 74 74 74 74 74 74 74 74 73 73 73 73 72 71 72 71
64 61 55 52 51 56 59 62 62 61 62 59 58 59 61 66 67 69 70 71 72 72 73 73 75 74 75 75 75 74 74 75 75 75 74 74 74 74 74 74 73 73 73 73 72 72 72 72 72
63 58 52 51 54 56 59 62 61 62 61 58 59 57 63 65 66 68 69 71 72 73 73 74 73 74 75 75 75 75 74 75 75 75 75 74 74 74 74 74 73 72 72 72 72 72 72 72 72
62 54 53 55 53 56 59 61 63 61 60 60 59 57 59 64 66 65 69 70 72 73 73 73 72 72 73 74 75 75 75 75 75 75 74 74 74 74 74 74 74 72 72 72 71 71 72 72 73
61 54 51 51 52 56 60 60 62 63 59 60 59 59 61 64 65 67 69 70 71 72 72 72 72 73 73 73 74 74 75 74 74 74 74 74 73 72 73 73 73 72 71 72 72 72 72 72 72
61 52 51 52 55 56 58 61 61 60 59 59 59 61 63 63 63 66 66 66 69 69 72 72 72 72 73 73 73 73 73 73 73 73 72 72 72 71 72 72 72 71 72 73 73 72 72 71 69
62 55 54 52 56 56 57 59 61 60 59 60 59 60 62 61 62 65 65 65 67 68 70 72 72 72 72 72 72 72 72 72 72 71 70 71 71 71 73 72 73 70 70 70 70 72 71 70 69
59 60 58 57 56 57 57 58 59 60 60 62 60 61 61 60 61 65 65 66 68 69 69 72 72 71 72 72 72 71 72 72 71 70 68 70 70 71 72 72 71 71 71 70 70 71 70 69 67
58 59 58 59 59 57 57 56 58 60 61 59 60 60 59 58 60 65 66 67 68 69 69 71 71 71 71 71 71 71 71 71 71 69 68 70 71 71 72 72 71 71 72 70 68 71 67 68 67
51 53 55 55 55 54 55 56 58 60 59 58 59 58 57 58 60 65 67 67 68 68 70 71 70 71 70 70 70 70 70 71 71 69 66 70 70 71 71 72 72 71 71 71 70 70 67 67 67
48 45 44 44 51 52 52 55 55 61 58 57 57 56 56 59 61 64 66 67 67 67 69 69 70 70 69 69 69 69 70 70 70 71 69 69 70 70 71 71 72 71 72 70 72 71 69 67 66
38 40 40 44 45 48 50 47 58 61 58 56 56 55 56 59 62 64 66 67 67 67 68 68 69 69 69 68 68 68 69 69 69 70 71 70 71 71 72 71 71 72 72 72 72 70 69 68 66
29 38 39 43 46 49 48 48 60 62 60 57 56 55 55 59 62 63 64 66 67 67 67 67 68 69 68 68 68 67 68 68 69 70 71 71 71 72 72 71 71 72 72 72 72 71 70 68 67
31 32 38 41 42 48 47 48 60 60 60 59 58 56 56 58 61 63 64 64 65 66 66 66 67 68 68 68 68 68 68 68 69 70 71 71 72 73 72 71 71 72 71 72 71 69 65 64 65
33 36 37 39 40 47 47 48 59 60 59 60 60 59 58 58 61 63 64 64 64 64 64 66 66 67 68 68 67 68 67 69 70 70 71 71 72 74 72 72 71 72 70 71 70 68 65 64 63
29 27 31 35 39 42 42 47 58 60 59 60 60 60 60 60 60 62 63 63 63 63 63 65 66 67 68 68 68 68 67 68 69 70 71 71 72 73 73 72 72 71 71 72 70 69 67 63 65
24 27 27 33 35 38 40 41 55 59 60 60 60 60 61 60 60 61 63 63 63 63 63 64 65 66 68 68 68 68 68 68 68 69 70 70 72 72 74 73 72 72 71 71 70 70 66 63 65
22 26 29 27 31 30 38 35 50 57 58 59 59 60 60 60 60 61 62 62 63 63 64 64 65 66 67 68 68 68 66 65 66 68 70 70 71 72 73 73 72 72 72 72 71 70 69 65 65
20 26 27 28 30 30 31 32 42 55 56 57 59 60 60 60 60 60 61 62 63 63 64 64 65 65 67 68 68 67 67 66 67 68 69 70 71 72 73 73 73 72 72 72 72 72 70 67 64
30 30 29 30 29 26 28 29 31 52 54 56 58 59 60 60 60 61 61 62 62 63 63 65 65 65 66 68 68 68 67 66 67 67 67 69 70 71 73 73 73 73 72 72 72 72 71 70 68
31 27 26 25 26 26 31 29 31 36 55 56 56 58 59 60 60 60 61 61 62 62 63 64 65 65 65 67 68 67 67 67 67 67 67 68 70 71 72 73 72 72 72 73 72 71 72 71 71
29 29 27 24 24 25 29 28 30 33 48 56 56 57 58 59 60 60 61 61 62 63 63 64 65 65 65 66 67 67 67 67 67 68 68 68 69 70 72 72 73 73 73 73 73 71 70 72 71
30 29 30 27 24 25 24 27 26 33 36 50 53 55 56 58 59 60 60 61 61 63 63 64 65 65 65 65 67 67 67 67 67 69 69 68 70 70 71 72 73 73 73 73 73 72 72 72 72
31 32 29 28 27 20 25 20 30 27 32 40 47 51 54 56 57 57 59 60 61 62 63 64 64 65 65 66 66 67 67 68 68 69 69 69 69 71 71 71 72 73 73 73 73 72 72 72 72
27 32 32 29 27 26 18 20 28 29 31 34 40 51 52 54 54 54 57 59 60 61 63 63 64 65 65 66 67 67 67 68 69 69 69 69 69 70 71 71 71 72 73 73 73 73 72 72 72
34 29 32 30 27 23 24 25 25 25 28 30 31 49 52 54 53 53 54 58 59 60 61 63 64 65 66 67 67 67 68 69 69 69 69 70 69 70 71 71 71 72 72 73 73 72 72 72 71

GFSSGP_sfc_dewp_045.txt.gz
Dewpoint
70 68 68 68 59 58 52 54 58 58 56 60 55 55 55 58 55 55 65 67 67 67 71 72 75 75 75 75 75 75 75 75 75 75 75 75 74 74 74 74 74 74 73 73 73 73 72 72 73
68 69 69 65 56 53 53 57 56 59 58 61 57 59 59 58 62 64 65 67 66 67 70 70 75 76 75 75 76 75 75 74 74 75 75 74 74 74 74 74 73 73 73 73 72 72 73 73 73
68 68 65 61 57 51 53 57 59 60 62 58 58 61 60 60 63 64 65 66 67 68 71 72 75 75 75 74 75 75 75 75 75 75 74 74 74 74 74 74 73 73 72 73 72 72 71 71 71
66 68 66 60 55 54 56 59 60 60 63 62 60 59 62 64 63 65 67 67 67 69 69 73 74 75 75 75 75 74 75 75 75 74 74 74 74 74 74 74 73 73 73 73 72 72 71 71 71
67 67 59 57 55 56 57 61 62 61 61 61 60 59 61 64 65 67 67 67 67 67 70 70 76 76 75 75 74 75 75 74 74 74 74 74 74 74 74 74 73 73 73 73 72 71 71 71 71
64 62 55 51 52 55 59 61 61 62 61 60 59 59 61 66 66 67 67 67 67 67 69 71 74 75 75 75 75 75 75 74 74 75 75 74 74 74 74 74 73 73 73 73 72 72 72 71 72
63 59 53 51 53 56 58 61 61 62 60 58 60 58 63 65 67 67 67 67 68 68 69 72 70 74 75 75 75 74 74 75 75 75 75 75 74 74 74 73 73 72 72 72 71 72 72 72 72
63 56 52 53 52 55 58 61 65 62 60 59 59 58 61 64 67 67 67 67 68 68 70 71 71 72 73 73 75 74 75 75 75 75 74 74 74 74 74 74 74 72 71 71 71 71 71 73 73
60 56 55 50 52 55 59 59 63 62 59 59 59 59 62 66 67 66 67 67 68 68 70 69 71 72 74 74 74 75 75 75 75 74 75 74 73 73 71 73 72 72 72 72 72 71 71 72 73
61 57 53 52 52 54 58 60 62 60 58 59 59 60 63 65 65 65 65 65 66 67 69 69 70 71 72 71 74 74 72 71 72 73 74 74 73 72 70 71 72 72 73 72 73 73 72 69 68
60 55 55 52 54 56 58 60 61 59 58 59 59 61 63 64 64 64 64 64 64 67 69 71 71 73 71 72 72 72 72 72 73 74 73 74 72 72 71 70 71 70 70 69 70 71 69 70 68
58 59 58 58 55 55 56 58 58 60 59 61 60 62 63 61 63 63 63 64 65 67 69 71 71 73 72 72 71 72 71 71 71 71 73 73 71 72 72 70 71 71 71 71 71 70 70 69 70
58 58 58 58 57 57 57 56 56 58 61 61 61 62 61 60 61 62 62 64 66 67 69 70 72 73 73 74 72 71 72 70 70 70 70 71 71 73 72 72 71 72 72 71 71 70 68 69 68
50 56 56 55 55 55 55 54 55 59 60 60 60 60 60 59 60 62 63 63 65 67 67 70 71 72 73 72 74 72 71 71 70 70 68 71 72 74 74 76 72 72 73 72 71 69 68 68 69
49 49 47 48 48 51 52 51 54 59 60 59 59 60 59 59 60 62 63 64 65 66 68 70 71 71 72 72 72 71 69 69 70 71 71 71 73 73 74 74 76 72 73 72 73 71 69 66 67
34 38 36 44 48 48 48 47 55 59 59 59 58 59 59 58 59 62 62 64 66 67 68 70 68 70 71 71 71 69 68 69 70 71 72 73 72 73 75 74 72 73 73 72 72 70 67 69 66
35 22 31 36 46 48 48 47 56 59 59 58 58 57 57 58 59 62 63 64 66 68 69 69 70 69 70 71 70 69 70 69 69 70 71 73 73 73 74 73 73 74 73 73 71 71 71 68 65
27 26 37 35 45 47 47 47 58 60 58 57 57 56 56 56 59 61 63 65 67 68 69 69 69 71 71 70 71 68 67 68 69 70 70 73 73 73 74 74 74 74 75 71 71 69 66 69 67
33 34 29 40 43 45 46 46 55 60 59 58 57 56 55 56 59 61 63 65 67 68 68 69 69 71 70 69 67 67 65 67 68 70 73 73 73 74 75 73 74 74 72 73 72 68 68 65 66
25 31 33 37 39 44 45 46 49 59 59 59 57 56 55 56 58 61 63 64 65 67 68 69 69 71 71 69 70 67 68 68 69 72 73 73 73 75 75 75 74 74 72 74 73 71 65 65 65
24 23 30 31 32 37 40 41 44 57 59 60 60 58 57 56 57 60 63 64 64 66 68 69 70 71 71 71 70 70 71 71 69 70 71 72 73 74 76 75 74 74 76 77 74 71 68 63 67
16 19 25 30 31 33 39 38 44 46 57 59 59 60 59 58 58 60 62 63 64 65 67 69 70 71 71 72 71 72 67 66 67 69 70 72 74 73 74 76 75 76 73 76 73 72 70 67 64
19 20 19 20 29 32 33 34 41 48 51 55 58 59 60 60 60 60 61 63 64 65 65 67 70 72 72 73 73 70 70 67 69 68 72 74 74 74 73 75 75 76 75 76 74 74 73 67 65
23 22 23 21 17 20 32 33 35 41 50 53 56 59 60 60 61 62 62 63 64 64 65 66 70 71 72 72 72 73 73 71 68 69 68 68 70 71 74 74 75 75 74 75 74 76 74 73 69
28 26 23 21 20 13 22 31 34 39 47 50 54 58 60 61 61 61 62 62 64 65 66 67 69 70 71 71 72 72 73 73 72 71 68 69 67 69 73 74 75 74 75 75 75 75 75 74 71
28 26 21 21 18 11 21 29 32 36 38 48 52 55 59 60 60 61 62 63 65 66 67 67 69 70 70 71 72 73 73 68 68 71 68 67 67 68 73 74 74 74 75 75 75 73 73 74 73
26 28 25 21 27 22 15 23 32 36 37 38 47 54 58 60 60 61 62 63 64 65 67 68 69 70 70 69 71 72 73 72 70 73 72 69 72 68 72 73 74 74 74 75 75 73 74 74 74
30 27 27 26 22 20 20 22 20 34 35 38 41 49 55 58 60 61 62 62 64 64 65 67 68 69 70 69 70 70 71 72 72 72 72 72 71 72 71 73 73 74 74 75 75 73 74 75 73
27 27 28 28 28 21 18 20 29 31 40 39 40 43 51 56 59 60 62 63 64 64 65 66 67 69 69 69 70 70 70 71 71 71 71 73 72 73 73 74 74 74 74 74 75 75 74 74 75
26 32 28 28 31 29 27 21 29 32 33 36 37 40 44 54 58 60 61 62 62 64 64 65 66 66 68 69 70 70 71 71 70 71 71 73 73 73 73 73 73 74 73 74 74 74 72 74 74

GFSSGP_sfc_dewp_051.txt.gz
Dewpoint
69 65 65 61 60 56 52 53 55 53 54 54 53 52 56 58 57 57 63 66 67 68 69 71 75 75 74 75 74 74 75 75 75 75 75 75 74 74 74 74 74 74 73 73 72 73 72 71 73
63 62 64 66 59 52 53 55 55 56 56 54 55 54 56 57 59 60 62 65 66 66 66 68 76 76 75 75 75 75 74 75 75 75 74 74 74 74 74 74 74 73 73 73 73 73 73 72 72
63 65 64 61 56 52 55 57 56 56 55 56 56 56 60 58 60 61 64 65 63 61 63 72 76 76 75 75 75 75 75 75 75 74 74 74 73 74 73 73 73 73 73 73 72 72 72 72 72
61 64 66 59 55 53 53 57 58 57 55 56 58 59 61 62 60 62 63 62 58 59 65 74 76 75 75 75 75 75 75 75 74 74 74 74 74 74 74 74 73 73 72 73 72 72 72 72 72
60 66 60 58 56 56 54 59 60 59 58 58 57 59 61 61 62 62 62 59 57 60 65 70 76 75 75 75 75 75 75 75 75 75 74 74 74 74 74 73 74 72 72 72 72 72 72 72 72
64 63 58 52 53 56 57 58 60 64 64 59 59 60 62 63 61 61 60 59 57 60 63 70 75 75 75 75 75 75 75 75 75 74 74 74 74 74 74 74 73 73 72 72 72 72 72 73 73
62 62 55 53 53 53 58 60 61 63 62 60 61 59 63 63 62 60 60 59 58 58 63 67 70 73 74 75 75 75 75 74 74 74 75 74 74 74 73 73 73 72 71 71 72 72 72 73 73
60 56 53 51 50 56 58 61 63 62 60 61 61 59 61 63 62 60 59 58 58 59 60 65 67 69 70 72 75 75 74 74 74 75 75 74 74 73 73 74 73 71 72 72 71 72 73 74 74
59 55 53 50 52 56 58 60 61 64 60 59 60 59 62 63 62 60 58 57 58 59 59 61 62 67 73 72 74 75 75 74 75 74 75 74 67 69 71 74 72 71 70 71 71 72 73 73 74
56 50 50 52 51 56 57 57 58 58 57 57 58 60 62 62 62 59 58 56 57 59 57 58 62 67 69 65 72 72 70 69 69 68 72 73 70 69 67 71 72 71 72 72 72 71 72 72 70
51 48 49 51 51 54 56 57 58 58 55 57 57 61 62 62 61 59 57 56 56 58 56 60 67 69 69 69 69 68 69 68 71 70 72 70 66 66 69 67 67 68 72 70 70 71 73 72 72
47 48 48 53 52 55 59 61 57 57 63 57 60 62 62 62 61 58 57 56 57 59 57 61 63 70 70 67 69 69 67 63 64 67 70 70 74 72 72 71 66 70 71 65 70 63 66 68 70
46 46 52 54 53 53 56 57 56 56 57 58 61 62 61 61 60 59 57 57 58 57 57 61 64 70 73 74 69 63 64 62 64 68 69 72 72 71 72 68 71 70 70 66 67 64 68 64 63
38 43 51 54 54 54 52 54 55 57 57 58 60 61 60 60 59 59 58 57 58 58 59 61 65 69 71 74 70 69 69 70 64 65 67 70 74 74 69 69 72 74 70 68 69 70 65 65 61
35 37 40 52 52 56 54 53 54 55 57 58 59 60 59 59 58 58 58 58 58 59 60 63 65 68 70 74 70 73 71 63 68 66 71 72 73 72 73 73 68 73 70 69 67 65 68 61 65
30 34 38 45 50 51 51 48 50 56 56 57 58 59 59 59 58 59 58 58 60 60 62 64 62 66 69 70 70 67 65 68 71 72 70 72 72 72 73 69 66 70 72 71 64 68 65 64 63
18 24 30 33 46 48 48 51 58 55 56 57 59 58 58 58 58 59 58 59 60 61 64 65 65 66 69 71 69 68 70 71 72 72 73 73 73 72 75 73 70 71 71 71 68 65 63 65 61
13 18 22 29 41 44 46 53 59 53 54 57 58 58 58 58 58 59 59 59 60 60 63 66 65 70 72 70 70 67 67 68 71 71 72 73 71 72 73 71 71 73 65 70 72 69 66 67 65
16 13 19 25 34 43 46 50 61 52 52 56 58 58 58 58 58 59 59 59 59 61 63 66 68 73 69 67 66 66 64 67 68 72 71 73 71 72 74 70 71 71 69 74 69 66 67 61 62
18 18 21 23 33 44 46 47 49 51 52 55 56 57 57 57 58 59 60 59 58 61 64 69 70 74 71 67 69 68 68 65 65 66 72 72 72 73 70 74 74 73 70 72 70 71 65 59 67
20 18 20 28 31 37 43 45 46 52 52 54 55 56 57 56 57 58 59 59 59 61 64 69 72 74 73 72 69 69 69 67 65 70 69 71 72 73 73 72 75 72 75 69 71 70 72 63 61
20 19 17 20 31 32 38 38 46 48 51 52 54 54 56 56 57 58 59 59 59 61 64 70 72 74 73 74 69 72 66 64 63 66 66 69 72 72 72 73 73 73 70 75 72 70 71 71 63
21 20 16 15 18 25 31 35 42 45 51 49 53 54 54 56 56 57 58 60 60 61 63 66 73 74 74 74 73 68 70 64 63 62 75 75 76 73 71 73 74 74 70 73 73 73 73 65 72
23 20 21 18 13 14 24 32 35 41 44 48 50 53 54 55 56 57 59 60 60 61 63 66 73 75 75 75 74 74 72 70 62 65 67 66 68 70 73 73 74 74 73 74 73 74 73 74 69
25 22 20 19 15 11 15 25 34 37 45 44 47 51 54 55 56 57 58 59 62 63 64 67 72 74 75 74 73 73 74 74 74 72 65 67 63 64 74 76 76 73 75 74 74 75 74 73 70
25 23 19 23 17 12 14 16 25 34 38 50 53 50 52 54 54 56 58 60 63 64 66 67 71 74 75 73 74 74 75 66 64 70 65 64 62 63 76 74 73 74 74 73 76 72 71 74 71
26 25 22 18 19 18 14 13 14 25 31 38 42 47 51 52 54 56 58 59 62 64 67 68 71 74 74 70 74 75 74 72 66 70 73 68 72 64 70 72 73 73 73 75 77 70 73 75 74
26 28 23 21 22 23 21 21 13 20 25 31 38 42 47 51 54 55 58 59 61 62 64 67 69 72 73 72 73 73 74 75 73 74 75 73 72 74 70 72 71 72 74 74 78 73 75 75 71
11 18 25 24 21 19 21 21 25 24 23 26 31 39 43 46 52 54 57 59 60 61 63 64 67 70 71 72 73 72 72 72 74 74 74 75 74 75 75 74 73 73 73 75 77 77 74 74 76
2 13 13 20 29 24 20 21 24 25 22 24 29 36 38 44 49 54 55 59 61 61 62 64 65 65 69 71 73 72 72 72 71 73 74 76 76 75 75 75 75 74 73 75 76 74 72 73 73

GFSSGP_sfc_dewp_054.txt.gz
Dewpoint
70 66 65 65 59 58 55 55 59 53 53 57 54 57 56 57 56 57 65 67 68 67 68 72 75 76 75 75 75 75 75 75 74 75 75 74 74 74 74 74 74 74 73 73 73 72 72 74 74
62 62 64 65 59 52 53 54 55 55 54 54 55 56 56 56 60 62 64 67 67 66 68 70 75 75 75 75 75 75 75 75 75 75 75 75 74 74 74 74 73 74 74 73 74 73 73 72 74
68 64 64 62 55 53 55 59 56 59 55 54 59 62 59 57 60 61 65 66 66 66 68 72 76 76 75 76 75 76 75 75 75 75 74 74 74 74 73 73 73 73 73 73 73 72 72 73 73
62 63 66 60 55 56 55 60 62 55 57 58 58 58 60 59 60 62 64 65 64 65 69 75 77 76 76 76 76 75 75 75 75 75 75 74 74 74 74 73 73 73 73 73 73 73 72 72 72
60 66 60 57 57 61 57 63 60 58 59 59 60 59 59 62 63 61 63 63 59 66 68 72 77 76 76 75 75 75 75 75 75 75 74 74 74 74 74 74 72 73 73 72 72 72 72 72 72
63 62 58 55 55 58 57 59 60 62 63 61 59 60 62 62 61 60 62 61 63 64 66 71 75 76 76 75 75 75 75 75 75 75 74 75 75 75 75 73 73 73 72 72 72 73 73 73 73
59 61 57 57 55 57 58 62 59 62 62 61 62 59 61 61 61 60 58 61 61 62 67 70 71 74 75 75 75 75 75 75 75 75 75 76 75 75 74 74 73 72 71 72 72 73 74 73 71
56 60 54 57 53 56 60 61 62 60 60 63 63 59 60 61 62 60 58 59 58 63 65 68 70 70 72 73 75 74 75 76 75 75 75 76 75 73 73 75 74 72 72 72 72 73 74 73 72
54 56 54 54 53 61 62 61 60 60 62 61 61 61 61 61 60 59 58 57 60 60 62 64 66 70 74 74 74 74 75 75 75 75 76 75 71 71 71 74 73 71 72 73 73 73 72 72 72
53 53 51 53 55 57 61 58 59 59 58 58 59 61 61 60 60 58 57 57 58 57 59 61 65 69 71 67 74 74 73 72 72 71 73 76 72 73 68 72 73 71 71 73 75 74 71 70 72
50 50 50 52 55 58 58 56 57 57 55 57 60 61 61 60 59 58 57 58 57 57 57 60 69 70 69 71 72 71 71 71 72 73 72 75 72 71 70 71 71 70 73 71 73 72 70 69 71
45 47 48 49 54 56 61 62 59 62 64 63 61 61 61 60 58 57 55 57 57 57 61 65 67 73 73 70 71 71 72 71 70 71 73 76 74 72 71 72 72 72 71 72 72 71 69 73 72
41 44 46 51 55 55 61 61 62 61 62 61 61 61 61 60 59 58 56 57 57 56 60 66 71 72 72 75 74 71 70 66 70 70 72 72 74 74 74 71 70 73 71 70 69 72 71 72 71
39 41 43 49 52 54 56 59 61 59 61 59 60 61 61 60 58 59 57 57 58 58 62 65 70 73 73 73 74 70 72 68 69 69 72 73 76 75 75 75 71 73 71 72 67 72 71 66 69
32 35 36 41 52 52 53 51 53 60 61 59 59 60 60 59 59 59 58 58 58 59 62 64 70 71 73 73 75 74 68 69 71 71 74 76 76 77 75 75 71 71 74 75 74 72 65 70 67
26 29 32 36 51 52 52 48 51 62 65 58 59 59 60 59 58 57 58 57 59 60 65 65 61 68 72 73 75 74 71 72 73 72 74 76 76 77 75 75 73 74 73 69 64 67 70 67 69
24 22 30 33 44 49 50 50 58 63 64 58 59 58 58 59 59 58 57 58 59 64 67 66 68 68 71 73 73 71 70 71 69 75 73 77 75 75 74 73 75 69 71 72 72 71 69 71 67
21 17 22 28 32 44 46 50 59 63 60 57 58 57 57 58 58 58 57 58 60 64 67 67 68 72 73 73 76 75 71 73 73 73 75 77 76 74 74 75 75 75 71 70 73 69 67 70 67
22 17 13 21 26 42 46 54 54 56 56 57 57 57 57 57 58 59 58 58 61 62 66 70 71 74 72 71 70 70 70 70 71 73 73 76 76 75 72 74 75 74 74 71 76 71 70 69 65
26 23 16 15 21 35 51 53 54 54 58 58 56 56 56 56 58 59 59 58 59 63 66 70 71 73 72 71 73 73 69 71 71 70 76 75 74 76 76 75 76 71 73 75 74 73 73 68 71
21 20 18 17 22 29 34 50 52 52 55 60 53 55 56 57 57 59 59 59 60 63 66 69 72 73 72 74 72 75 76 73 70 74 73 75 74 75 76 76 77 78 76 74 75 75 71 70 68
20 19 18 17 19 25 32 33 52 55 57 58 57 54 54 56 58 59 59 59 59 63 66 69 72 74 72 74 71 74 71 70 68 72 72 74 76 75 76 76 76 76 74 74 76 75 73 69 70
20 21 20 19 17 21 29 31 35 54 55 57 61 55 54 56 57 58 59 60 59 63 64 68 71 74 73 73 73 71 72 70 73 71 74 75 78 77 75 77 78 77 77 77 76 76 75 75 72
19 19 21 21 14 13 18 24 30 40 51 53 59 58 56 55 56 59 60 61 61 62 64 67 70 72 74 73 73 73 71 73 71 71 71 72 73 75 77 75 78 79 77 76 76 77 77 76 75
19 18 19 18 16 12 13 14 24 34 49 55 54 58 59 57 56 58 60 61 62 62 64 67 70 71 73 73 71 74 72 72 75 75 72 71 71 71 75 77 77 76 78 77 77 77 77 76 76
21 20 19 20 16 16 20 14 16 23 37 52 55 57 60 55 55 57 59 61 62 62 64 66 70 71 72 73 72 73 74 69 70 73 70 73 72 71 75 76 75 77 77 77 78 76 75 76 76
23 23 21 18 18 17 17 18 18 19 27 42 51 54 58 59 57 57 59 60 62 63 64 67 70 71 72 71 73 71 74 73 69 73 74 73 74 71 75 75 76 76 77 76 78 75 76 77 77
20 23 22 21 23 23 18 22 18 24 27 36 49 51 55 62 63 59 58 60 62 63 65 66 70 71 72 72 72 71 70 73 73 69 73 73 75 75 75 76 75 76 77 77 77 75 76 77 75
17 17 23 25 25 22 20 20 28 34 28 31 49 53 49 54 62 64 65 60 62 63 65 65 68 71 72 73 72 71 71 71 71 72 69 75 73 78 76 77 76 75 75 77 77 76 75 75 76
13 13 8 10 28 27 24 20 23 31 25 24 25 32 53 57 62 63 61 62 61 63 64 65 66 69 71 73 72 71 72 71 70 69 73 73 76 75 79 76 77 75 75 76 76 75 72 74 75

GFSSGP_sfc_dewp_057.txt.gz
Dewpoint
71 69 66 65 59 58 55 56 57 56 54 57 56 56 57 59 57 55 65 68 68 68 70 73 75 75 75 76 76 76 75 75 75 75 75 75 75 74 75 74 74 73 74 74 72 73 74 73 74
68 65 65 65 57 53 53 60 58 59 56 57 59 57 57 58 61 63 65 67 67 68 71 72 76 75 75 75 76 76 75 75 75 75 75 75 74 74 74 74 74 74 74 74 73 73 73 74 74
68 66 63 60 57 53 54 61 62 61 58 59 59 60 58 59 64 65 66 67 66 69 70 72 76 76 75 75 75 76 76 75 75 75 74 75 74 74 74 74 73 73 73 73 73 73 73 73 73
68 66 65 58 56 57 58 61 61 63 62 60 59 56 59 61 63 65 66 66 66 69 72 75 76 75 76 75 76 75 75 75 75 75 75 74 74 74 74 73 73 73 73 73 73 73 72 72 72
66 65 59 57 57 58 61 61 62 62 63 60 57 57 60 62 64 65 66 66 69 71 73 74 77 76 75 75 75 75 75 75 75 75 74 74 74 74 74 73 73 73 73 73 73 73 72 73 72
61 62 58 54 55 58 63 64 62 62 61 60 59 60 61 62 63 64 65 67 69 71 73 73 76 76 76 75 75 75 75 75 75 74 75 75 75 75 73 73 73 73 72 73 73 73 73 72 72
59 61 57 57 57 56 61 66 60 61 62 59 62 59 60 60 61 63 64 66 67 70 71 73 74 74 75 76 75 75 75 75 75 75 75 75 75 74 73 73 73 72 73 73 73 73 73 71 70
60 59 56 57 55 57 60 62 63 60 61 63 62 59 58 59 60 62 63 63 67 69 70 71 72 73 73 73 75 75 75 75 75 75 75 74 74 74 73 74 74 72 73 73 73 73 73 73 72
61 53 55 55 53 60 63 61 60 61 62 62 61 61 60 59 59 61 60 63 66 67 68 70 70 72 73 73 73 74 75 75 75 74 74 75 71 70 72 73 74 73 72 73 73 73 73 73 73
55 52 52 54 55 59 62 61 57 59 61 61 61 61 61 61 59 58 57 61 63 64 66 68 68 71 72 71 73 73 73 73 73 73 73 73 71 71 71 73 74 73 72 73 74 70 68 69 70
50 50 51 52 55 59 60 63 59 59 58 60 60 60 60 60 58 57 58 59 60 62 64 66 68 70 69 71 73 73 73 72 72 72 72 73 71 69 70 71 70 70 73 70 73 68 66 67 70
49 48 49 50 59 63 63 66 60 61 63 65 63 61 59 59 58 57 57 58 57 59 62 66 68 69 70 71 71 72 71 72 70 67 70 72 70 68 70 72 70 70 71 69 72 68 67 69 70
45 45 45 51 57 63 63 61 61 61 63 65 63 61 59 58 58 57 57 58 57 64 65 69 69 69 70 72 71 69 70 72 70 71 70 71 71 70 70 72 70 70 72 72 71 69 68 70 70
41 41 40 43 57 61 59 60 61 61 60 62 62 60 59 58 58 57 57 57 60 64 66 67 65 64 69 72 70 69 69 69 70 70 69 69 72 72 72 70 71 71 69 68 68 70 70 69 70
34 32 32 37 50 56 59 57 58 62 62 61 60 59 58 58 58 57 58 56 57 66 67 67 67 67 69 71 70 70 69 70 69 70 71 72 71 72 72 70 70 68 70 71 70 68 69 68 66
30 27 27 33 45 51 53 54 61 65 64 60 59 59 59 58 57 58 58 57 61 66 66 68 67 68 70 71 70 70 69 68 70 70 73 73 72 72 72 72 71 69 71 68 63 64 66 65 64
33 24 24 27 33 51 52 57 62 65 63 59 59 60 59 59 58 58 58 57 59 62 66 65 66 68 69 71 67 67 68 68 70 71 73 72 72 72 71 71 73 70 71 69 67 66 65 65 64
31 23 21 21 30 49 52 58 61 61 61 61 59 59 59 58 58 58 56 57 63 62 62 66 67 68 68 71 70 69 71 69 71 72 72 72 73 70 68 70 72 70 69 67 69 68 65 66 62
28 27 23 19 22 43 51 58 61 60 61 63 63 59 58 58 59 57 56 58 63 62 62 66 67 68 71 71 70 69 68 68 70 71 73 73 74 73 72 71 72 69 68 65 69 66 64 65 64
26 26 25 25 20 26 50 54 56 60 59 63 62 59 58 58 58 57 55 59 62 63 63 68 69 68 70 69 70 69 69 67 68 72 73 72 72 72 70 71 72 70 70 71 69 69 67 66 64
25 25 25 23 21 34 51 51 53 55 58 61 63 61 59 57 56 57 55 57 61 64 65 67 70 69 70 68 69 71 69 70 68 70 72 73 73 73 73 73 73 71 71 70 69 69 68 64 64
21 24 22 19 19 19 48 45 51 53 57 61 60 60 59 57 56 57 56 57 59 63 65 68 70 69 69 68 67 69 67 66 67 69 71 72 72 72 73 72 72 72 72 72 71 71 69 65 66
20 23 21 21 19 18 17 19 47 52 56 57 61 57 56 59 57 56 56 56 59 63 64 68 70 69 68 70 67 68 67 69 68 69 70 72 73 73 73 73 73 72 71 70 71 71 70 70 68
21 20 19 21 20 18 16 17 26 51 54 55 54 55 56 58 57 57 57 57 60 63 64 67 70 68 68 69 71 67 67 68 67 69 69 71 73 73 74 73 73 73 72 72 71 72 70 70 71
20 25 18 19 18 18 17 14 14 52 54 55 54 55 58 61 57 57 57 57 59 62 63 66 68 70 68 68 69 71 67 68 68 69 70 70 71 72 73 73 74 74 73 72 72 72 72 72 71
20 18 20 17 19 18 20 17 19 18 55 54 53 57 61 60 59 57 58 58 58 61 63 65 66 68 69 68 67 70 70 66 69 70 69 70 70 70 73 73 73 72 73 73 73 72 72 73 71
25 23 19 17 18 19 19 19 21 21 41 53 54 56 57 59 63 63 59 58 59 61 62 64 66 66 69 69 67 68 72 66 68 68 69 67 69 70 72 73 72 74 73 73 74 72 73 72 73
23 25 21 20 18 19 21 22 24 24 19 50 53 54 60 62 64 65 65 63 61 60 62 64 67 66 69 69 69 66 68 71 68 67 69 68 67 69 72 74 73 74 73 72 74 71 73 72 72
20 21 25 22 25 22 19 20 25 30 35 49 52 53 59 58 63 65 65 67 64 61 61 63 67 67 68 68 70 67 66 70 70 68 66 70 68 73 73 73 73 74 74 74 73 72 73 72 72
14 16 17 17 19 26 28 27 29 33 40 44 51 51 58 61 63 64 63 65 64 61 60 62 65 68 69 69 68 69 68 68 69 69 67 65 70 70 73 73 73 73 72 73 73 73 72 72 72

GFSSGP_sfc_dewp_060.txt.gz
Dewpoint
71 70 68 64 58 58 55 56 61 58 56 57 55 56 58 60 58 55 65 67 69 68 72 74 76 75 75 76 75 75 74 75 75 75 75 75 75 74 74 74 73 74 72 73 74 73 73 74 74
70 68 66 64 56 53 54 60 59 59 58 58 58 58 59 59 62 63 66 68 68 70 72 73 76 76 76 75 76 75 75 76 75 75 75 74 74 74 74 74 74 74 74 73 73 74 73 74 74
67 65 63 61 57 52 55 59 61 61 60 59 59 59 59 61 62 64 67 67 68 71 72 73 76 76 76 76 75 75 75 75 75 75 75 74 74 74 74 74 73 73 73 73 73 73 73 73 73
66 68 65 56 55 57 58 59 61 63 63 61 58 57 60 64 64 66 67 68 69 70 72 75 75 75 74 74 75 76 75 75 75 75 74 74 74 74 73 74 73 73 73 73 73 72 73 73 74
68 65 59 57 57 58 61 62 62 62 62 61 59 58 60 64 66 66 66 68 70 71 73 74 77 77 76 76 75 75 75 75 75 75 74 75 74 74 73 73 73 73 73 73 73 72 72 73 73
61 62 57 54 55 60 62 64 62 62 62 60 59 59 60 64 66 66 66 69 71 73 74 74 76 76 76 75 75 75 75 75 75 75 75 74 74 73 74 73 73 73 73 73 72 72 72 73 72
58 61 56 56 56 59 61 62 62 62 60 59 61 57 60 63 65 66 69 70 71 73 73 74 73 75 75 75 75 75 75 75 75 75 75 75 74 74 73 73 72 72 72 73 73 72 72 71 72
60 59 56 57 54 59 64 61 64 62 61 62 61 56 57 62 64 67 68 69 71 72 73 73 73 73 74 74 75 75 75 75 75 74 74 74 73 73 73 74 74 72 72 72 73 73 73 72 73
62 57 54 53 53 59 64 62 63 63 62 61 61 60 59 62 64 66 66 68 70 70 72 72 73 73 73 73 73 75 75 75 75 74 74 74 71 71 71 73 73 72 73 73 73 73 74 73 73
61 56 54 53 58 60 63 62 59 61 61 61 62 60 59 61 62 63 66 67 68 69 70 71 72 72 72 72 73 73 73 73 73 73 73 72 71 71 71 72 73 72 72 73 73 69 72 71 70
54 55 55 54 59 58 57 59 62 59 59 61 60 58 59 59 61 62 64 66 66 68 69 69 71 71 71 72 73 73 73 73 73 72 71 71 71 71 71 71 71 71 72 72 71 67 67 68 70
51 52 51 52 60 60 60 63 62 61 63 63 61 60 59 59 59 61 63 64 65 67 67 68 70 70 70 72 72 72 72 72 71 71 71 71 70 68 71 70 68 70 69 68 70 67 67 70 71
47 48 51 51 62 60 59 60 59 60 64 64 63 60 59 59 57 60 61 62 63 65 66 67 70 70 71 72 72 71 71 72 69 68 71 71 71 69 70 71 70 69 71 69 70 67 67 69 69
46 44 42 61 61 61 61 61 61 60 63 64 63 59 59 59 57 59 59 58 61 63 65 68 69 70 71 71 70 69 70 71 70 70 69 70 72 71 70 71 70 70 70 71 69 70 68 68 69
44 39 32 49 62 61 60 59 59 60 62 64 62 59 59 59 57 57 58 60 59 64 66 67 65 68 69 71 70 67 67 69 70 68 65 70 72 71 70 70 70 70 70 69 67 70 69 68 68
35 31 25 37 60 60 55 55 61 62 63 62 60 59 58 59 58 57 58 63 63 65 66 65 65 66 70 68 69 70 69 69 69 70 70 71 72 72 71 70 70 68 69 66 65 67 68 67 65
33 31 29 25 41 59 57 58 61 63 63 61 59 59 58 59 58 58 58 63 65 65 65 64 63 68 69 69 68 68 69 70 69 70 72 72 71 71 71 71 71 70 69 69 66 66 65 65 64
32 31 25 23 23 53 56 58 62 63 62 60 59 58 58 59 58 58 59 64 66 65 66 66 66 68 69 70 66 68 68 69 71 71 72 71 71 70 70 71 70 70 68 66 68 66 64 66 63
31 29 28 28 28 31 55 59 62 63 62 60 60 60 58 59 60 58 58 63 64 65 65 66 66 68 68 69 68 69 67 68 68 72 72 72 72 69 69 71 71 68 66 64 68 65 63 65 64
31 29 27 27 28 30 57 58 61 61 61 61 61 60 59 59 59 59 57 61 62 63 64 66 66 67 68 68 69 68 68 67 68 71 73 72 72 71 70 70 71 69 68 66 69 67 66 64 63
31 29 28 26 27 53 55 55 58 59 60 62 63 62 63 59 58 58 58 60 61 61 65 66 67 68 68 68 69 70 69 68 68 70 71 72 71 71 71 71 71 69 70 69 68 68 67 61 63
28 26 25 25 22 25 49 47 52 57 58 61 57 59 61 61 59 59 58 60 60 60 65 67 67 68 68 67 68 68 67 67 66 68 70 72 72 72 72 72 72 70 70 69 69 70 67 65 62
28 27 23 25 22 19 23 18 44 55 56 60 56 56 58 60 58 58 57 61 61 61 64 68 67 68 68 66 65 67 67 67 67 68 69 71 72 72 72 71 71 71 71 70 69 70 70 69 67
26 22 20 21 20 17 18 16 42 51 55 59 60 61 61 59 58 57 57 59 61 62 63 68 68 67 68 67 66 66 67 67 68 67 69 70 72 72 72 71 72 71 71 70 70 70 68 69 70
21 19 17 17 15 16 19 17 17 51 52 57 59 60 59 58 57 58 57 57 60 62 64 68 68 66 67 68 69 66 66 66 67 68 68 69 71 72 72 72 72 71 71 72 71 71 71 70 70
21 18 18 15 16 18 20 17 19 40 52 55 57 58 56 56 59 59 57 57 59 61 63 67 67 66 66 67 68 70 66 66 68 68 69 69 70 71 73 71 72 73 72 71 71 71 70 71 70
24 22 19 17 26 18 20 21 25 34 34 55 54 54 56 57 60 61 57 57 60 61 62 64 67 66 66 66 66 68 70 67 67 69 70 70 70 70 73 71 72 72 72 72 72 70 70 71 71
29 24 20 21 17 18 20 21 23 34 42 50 53 54 54 61 61 62 59 57 61 61 62 64 65 67 67 66 65 65 67 70 66 67 68 69 69 70 71 72 72 72 72 72 72 70 71 71 71
13 16 20 21 24 21 19 20 32 38 41 43 53 54 55 60 62 64 62 62 63 64 62 63 64 65 68 68 67 65 65 68 70 66 66 68 68 68 70 72 71 72 72 71 73 71 70 71 70
14 18 16 17 16 22 26 24 33 36 38 35 41 54 59 61 62 63 63 64 62 62 62 62 64 64 65 68 68 67 65 66 69 69 66 66 68 71 72 73 72 72 72 72 71 71 71 71 70

GFSSGP_sfc_dewp_063.txt.gz
Dewpoint
71 70 69 64 57 57 54 56 60 58 57 58 54 54 55 59 58 54 64 67 68 69 72 74 76 75 76 76 75 74 75 75 74 75 75 75 74 74 73 74 73 72 74 73 73 73 74 74 75
70 68 66 64 55 52 53 59 59 61 60 59 59 59 59 59 63 62 65 67 68 70 73 74 76 76 76 75 75 74 75 75 74 75 74 74 74 73 74 73 74 73 72 73 73 73 73 74 74
69 66 62 60 56 52 54 59 60 63 62 59 58 61 61 60 63 62 67 67 69 72 73 74 76 76 75 75 75 75 75 75 75 75 74 74 74 74 74 73 73 73 72 72 73 72 73 73 73
65 67 65 56 54 57 59 58 61 63 63 62 60 59 63 65 62 67 67 67 71 72 72 75 75 75 75 75 75 74 75 75 75 74 74 74 73 73 73 73 73 73 72 72 72 73 73 73 73
68 64 59 57 57 58 60 61 63 62 63 63 60 59 61 64 67 67 67 69 71 71 73 73 76 75 74 74 75 75 75 74 74 74 74 74 73 73 73 73 73 73 73 72 72 72 73 73 73
61 61 57 54 56 60 62 63 62 61 63 61 59 59 61 66 66 66 67 70 71 72 73 73 75 75 75 75 75 75 75 75 74 74 74 74 73 73 73 73 73 73 72 72 72 73 73 72 73
59 61 56 56 57 58 61 63 63 62 61 59 61 58 63 64 65 66 69 71 72 73 73 74 74 75 75 75 75 75 75 74 74 74 74 73 73 73 73 73 73 73 72 72 72 72 72 72 73
60 59 56 56 54 57 61 61 63 61 60 59 59 58 60 64 65 69 70 71 72 73 73 73 73 73 73 74 75 75 75 74 74 74 74 73 73 73 72 74 74 73 72 72 72 71 72 73 74
63 57 53 53 54 59 62 62 64 64 61 57 62 58 62 65 68 69 70 71 71 72 72 72 73 73 73 73 74 75 75 74 74 73 73 73 71 71 71 72 73 73 73 73 72 72 73 73 72
61 57 56 55 58 59 62 62 62 61 60 59 57 61 63 66 67 67 68 67 69 71 71 72 72 72 73 73 73 73 73 73 73 73 71 71 70 71 71 72 72 72 73 73 72 72 72 71 70
57 56 55 55 59 61 62 61 61 59 59 61 56 60 62 65 65 67 67 68 68 70 71 71 71 72 72 72 72 72 72 72 72 72 71 71 71 71 71 71 71 71 73 72 68 67 67 69 70
52 54 55 53 58 57 58 62 61 61 61 62 58 61 62 63 64 66 66 66 67 69 70 70 71 71 71 72 72 72 72 72 71 71 70 70 70 70 70 70 69 70 68 68 69 66 68 70 70
51 51 50 51 56 58 58 58 60 62 64 64 59 60 61 62 63 65 66 66 67 68 68 69 71 70 70 71 71 71 71 72 70 70 70 71 69 68 69 69 68 69 70 68 68 66 67 68 69
48 48 47 53 59 58 57 60 60 62 65 63 59 59 59 61 62 63 64 64 66 66 67 68 70 70 70 71 70 71 71 71 70 69 70 70 70 69 70 70 69 70 69 69 68 68 67 67 68
46 45 42 59 59 59 61 59 58 63 64 63 61 58 59 59 60 62 61 63 65 65 66 68 69 70 70 70 70 69 69 71 70 68 68 70 71 70 69 69 70 69 68 69 69 69 68 67 67
34 32 28 56 59 60 59 52 60 64 64 62 62 59 59 58 57 61 59 62 64 64 66 68 68 69 70 70 70 68 68 69 69 69 68 70 71 71 69 69 69 68 70 68 66 67 68 66 65
33 32 32 40 60 59 59 55 60 63 63 62 61 59 59 58 57 59 60 60 62 64 67 66 67 67 69 69 69 69 68 69 69 69 70 70 71 71 70 69 70 68 68 65 64 66 66 65 64
32 32 30 27 55 58 57 56 60 61 62 61 61 59 58 58 58 58 61 60 63 65 66 66 66 67 69 68 68 68 69 70 70 70 71 72 71 71 70 70 69 69 66 66 66 65 64 65 63
32 30 29 30 30 27 55 55 60 61 62 61 60 60 57 58 59 58 62 63 64 65 65 64 64 68 69 67 66 68 67 68 69 71 72 71 70 69 69 70 70 68 66 64 66 63 63 65 63
32 30 30 30 29 29 38 55 60 62 61 61 60 59 58 58 58 58 60 64 64 64 64 64 64 68 69 67 67 68 67 68 69 71 72 71 71 69 69 70 70 67 65 66 68 66 66 64 62
32 30 30 29 28 55 55 55 58 61 61 62 62 61 60 58 58 58 61 63 64 64 64 65 64 67 68 68 68 68 68 67 68 70 71 71 72 71 69 70 70 69 68 68 68 67 64 59 62
32 32 31 28 24 19 50 43 55 58 58 60 62 61 60 58 59 59 59 62 63 63 64 65 65 67 67 67 68 68 66 65 66 68 70 71 72 71 71 71 71 69 70 68 68 69 66 62 61
31 32 28 26 21 20 24 29 39 57 56 57 61 62 61 60 59 58 57 60 62 62 64 65 66 66 67 67 67 67 66 66 66 67 69 70 71 71 72 71 71 69 70 69 69 70 68 66 66
31 29 21 21 19 16 17 18 35 53 54 56 59 61 61 61 60 60 59 60 61 61 63 65 66 66 67 66 66 67 67 67 67 66 68 69 71 71 71 71 71 71 70 70 69 70 68 68 68
23 20 18 17 16 15 19 17 18 48 55 55 57 60 57 59 59 60 58 59 59 60 63 66 66 66 67 66 65 66 66 66 67 67 67 69 70 71 71 71 71 70 70 70 70 70 69 69 69
19 19 17 14 16 17 21 16 21 37 46 54 56 57 58 59 61 59 57 60 60 60 62 66 66 65 67 66 66 66 65 66 66 68 68 68 69 71 71 71 71 71 70 71 70 70 70 70 69
22 20 19 18 23 16 19 21 27 41 42 44 55 59 59 60 61 60 58 59 60 60 61 65 66 65 66 66 66 67 66 65 66 68 69 69 69 70 72 71 71 72 71 71 70 70 70 70 70
18 23 22 19 15 14 19 21 31 37 36 40 53 57 59 60 60 59 59 57 60 61 61 64 66 65 66 66 66 67 68 67 66 67 69 70 70 70 71 71 71 71 71 71 71 70 70 69 70
17 18 18 21 20 18 18 26 34 37 35 36 45 54 57 55 58 60 59 59 59 61 61 63 65 65 65 65 65 65 66 69 68 66 66 68 69 70 70 72 71 71 71 71 71 70 70 70 70
20 19 17 17 18 20 23 25 25 34 32 31 55 54 55 59 59 64 65 65 64 64 64 64 64 65 65 65 65 65 64 66 69 68 66 66 67 68 69 70 71 71 71 71 71 71 71 70 70

GFSSGP_sfc_dewp_066.txt.gz
Dewpoint
71 70 68 64 56 56 53 56 61 58 58 58 54 53 54 56 55 53 63 66 68 69 72 73 76 75 74 74 73 74 74 74 75 74 74 74 74 73 73 72 72 74 73 73 73 74 74 74 75
70 68 66 63 55 52 53 58 58 61 60 58 58 59 60 59 62 62 65 67 68 70 73 73 76 76 75 74 74 75 74 74 75 75 74 74 74 74 73 74 72 73 73 73 73 73 74 74 74
69 67 61 60 56 52 55 59 61 60 62 59 59 62 62 60 62 62 66 67 70 72 73 73 76 75 75 75 74 75 74 74 74 74 74 74 74 74 74 73 73 72 73 73 73 73 73 73 73
65 67 64 56 54 56 58 59 60 61 63 63 61 60 63 65 61 66 66 69 71 72 73 75 75 75 75 75 75 75 75 75 74 74 74 73 73 73 73 73 73 73 72 73 73 73 73 73 73
68 65 58 57 57 59 61 61 63 62 63 63 61 59 60 64 67 66 67 70 71 71 73 74 76 75 75 75 74 74 74 74 74 74 74 73 72 73 73 72 73 72 72 72 73 72 72 72 73
62 61 57 54 56 60 62 62 64 63 63 63 60 59 62 66 65 65 69 70 71 72 73 73 75 74 74 75 75 74 74 74 74 74 73 73 73 73 73 73 73 72 72 73 72 72 73 73 73
60 60 57 56 56 58 61 65 62 61 62 59 61 58 64 65 65 67 69 70 72 73 73 74 73 74 75 75 75 74 74 74 74 73 74 73 73 72 72 73 73 72 72 73 72 72 73 73 74
61 59 55 56 53 57 61 62 65 62 61 60 61 59 61 64 66 69 70 71 72 73 73 73 73 73 73 74 75 74 74 74 74 74 73 73 73 73 73 73 74 72 72 73 72 72 73 74 74
63 57 53 53 54 59 61 62 64 65 60 57 59 61 63 66 68 69 70 71 71 73 72 72 73 73 73 73 74 74 74 73 73 73 73 73 72 72 72 73 73 72 71 71 71 72 73 73 74
61 57 55 56 58 60 61 62 63 61 59 58 61 64 64 68 68 67 66 66 66 68 72 72 72 73 73 73 73 73 73 73 73 73 72 72 71 72 72 72 73 73 72 71 71 71 73 71 71
59 57 56 56 61 61 61 61 62 60 59 59 61 63 66 67 66 66 66 66 66 68 71 71 72 72 72 72 73 73 73 73 73 72 72 72 72 71 72 72 72 73 73 71 68 67 70 70 71
53 54 56 54 58 59 60 61 60 61 62 61 62 64 66 66 66 65 66 67 68 68 70 71 71 72 72 72 72 72 72 72 71 71 72 71 71 71 71 71 71 71 70 70 69 68 70 70 70
51 52 52 53 53 58 60 60 61 61 63 60 63 64 65 65 66 67 67 67 68 69 70 71 71 71 71 72 72 72 72 72 71 71 71 71 71 70 70 70 70 70 70 70 68 68 69 69 70
49 50 49 47 50 56 57 59 60 63 62 61 63 62 64 64 66 66 66 66 67 69 69 70 70 70 71 71 71 71 71 72 71 70 71 71 71 71 71 71 70 71 70 70 69 69 70 68 69
47 45 43 43 59 58 61 59 58 64 62 61 62 62 62 63 65 65 65 66 66 67 68 68 70 70 70 71 71 71 71 72 71 71 70 70 71 71 71 71 71 71 70 71 70 70 70 68 68
35 33 31 51 59 60 56 51 60 65 62 60 61 60 61 61 63 64 65 65 66 66 67 69 70 70 70 70 71 70 70 71 71 70 70 69 71 71 70 70 71 70 71 70 68 69 69 68 67
33 33 32 32 59 60 57 53 60 64 63 59 59 58 60 61 61 63 63 64 65 66 67 68 69 69 70 70 70 70 69 69 70 70 71 70 71 72 71 71 71 70 70 68 67 68 69 67 66
33 32 30 30 57 58 57 56 61 63 62 61 60 58 58 59 59 62 61 63 65 65 67 68 69 69 69 69 70 70 69 70 70 70 71 71 72 72 71 72 71 70 69 69 68 68 67 67 66
34 31 31 31 36 37 37 52 59 61 62 62 61 59 58 57 58 60 60 62 63 65 67 67 67 68 69 68 67 68 68 69 70 71 72 72 72 71 71 71 71 71 68 68 68 66 68 67 66
33 32 31 30 32 28 39 48 58 59 62 62 61 59 58 58 57 58 60 59 62 65 66 66 67 68 69 68 68 69 68 70 71 71 72 72 72 70 70 71 71 70 67 70 70 69 68 66 65
34 33 31 30 31 44 53 51 57 61 62 62 62 61 60 58 58 57 61 61 63 65 65 65 66 68 69 68 69 69 68 69 69 71 72 72 72 71 71 71 71 70 69 70 70 69 68 64 65
34 33 32 32 26 20 48 38 52 58 59 60 61 61 60 58 59 58 59 63 64 64 65 66 66 68 69 68 68 68 67 66 68 70 71 72 73 72 71 71 71 71 71 71 71 71 69 66 65
35 32 31 28 25 20 25 40 35 55 56 58 61 61 60 60 58 59 60 63 64 64 65 65 66 67 69 68 68 68 67 67 68 70 71 72 73 72 71 72 73 71 71 71 71 71 70 69 68
31 27 21 21 19 17 18 34 20 51 54 55 59 61 61 60 59 60 60 63 64 64 64 65 66 67 68 68 68 68 67 67 67 68 69 70 72 73 72 73 72 72 72 72 71 72 71 71 71
25 22 20 17 17 16 19 18 21 36 39 47 56 60 62 61 60 60 59 60 63 64 64 65 66 66 67 68 67 68 68 68 68 68 68 69 70 72 72 73 72 71 72 72 71 72 71 71 71
22 21 19 14 16 16 23 17 25 39 41 41 55 59 61 62 61 60 59 59 61 63 63 65 65 66 67 67 67 67 68 68 68 68 68 69 70 71 73 73 72 72 72 72 71 72 73 72 70
20 20 23 18 21 16 19 26 32 35 33 35 40 57 60 60 61 61 60 60 61 61 63 64 66 66 67 67 67 66 67 68 68 69 70 69 71 71 73 72 73 72 72 72 73 71 71 72 72
20 22 20 19 15 15 19 30 32 33 32 33 40 50 58 59 58 60 61 59 61 61 62 64 65 65 66 67 67 66 66 67 67 68 69 70 70 71 73 73 73 73 73 72 72 71 71 71 71
20 19 18 21 19 17 21 28 28 32 34 30 55 60 55 60 62 62 64 60 62 61 61 63 65 65 66 66 67 67 67 67 67 67 68 70 71 71 72 73 73 72 72 73 72 72 72 71 71
21 21 18 20 19 16 24 25 22 23 25 33 50 61 61 61 63 64 64 65 63 64 64 63 64 65 65 66 67 67 67 68 67 66 67 69 70 71 72 72 73 72 72 72 73 72 72 71 71

GFSSGP_sfc_dewp_069.txt.gz
Dewpoint
70 68 67 64 58 56 54 55 59 59 55 56 54 53 52 54 54 55 62 64 66 67 71 72 76 74 74 74 74 74 74 75 75 75 75 74 73 73 72 73 73 73 73 74 74 74 74 74 74
68 67 66 65 56 52 54 59 59 60 59 56 58 55 56 56 62 61 62 65 66 67 70 70 76 75 74 74 74 74 74 75 75 75 75 74 73 74 73 73 73 73 73 73 73 74 74 74 74
67 67 63 62 56 52 54 59 61 61 58 61 60 62 61 60 62 61 64 65 66 69 70 72 75 76 74 74 75 75 74 75 74 74 74 74 74 73 73 73 73 73 73 73 73 73 74 74 74
65 67 65 57 54 55 58 60 61 62 62 63 61 60 62 63 61 64 65 65 66 69 69 74 75 75 75 74 75 75 75 75 74 74 73 74 73 73 73 73 73 73 73 73 74 74 73 73 73
67 65 59 57 56 59 61 61 62 61 63 62 60 59 59 62 66 64 65 66 66 68 70 71 76 75 75 75 75 75 75 74 74 74 74 73 73 73 73 72 72 72 73 74 73 73 72 73 73
63 62 57 54 55 60 61 62 62 62 63 61 59 58 61 66 64 64 66 66 67 68 69 71 75 75 75 75 74 74 74 74 74 74 74 73 73 73 72 72 72 72 73 73 73 73 73 74 75
60 61 56 55 55 57 61 64 61 62 61 61 61 59 64 64 63 65 66 68 68 68 70 72 71 73 74 75 75 74 74 74 74 74 73 73 73 73 73 73 72 72 73 73 73 74 74 75 74
62 59 55 54 53 57 62 63 65 60 60 61 61 58 60 63 64 66 67 68 69 69 70 70 70 73 73 73 74 74 74 75 74 73 73 73 73 73 73 74 73 73 73 73 73 73 73 74 74
64 57 53 52 53 59 61 62 64 64 59 58 59 60 61 64 65 65 66 68 68 69 70 71 71 73 74 74 74 74 74 74 74 73 75 73 71 71 71 74 73 72 72 72 72 73 73 74 75
61 59 54 55 57 58 62 63 63 61 58 60 61 62 63 64 64 64 65 66 66 68 70 70 72 72 73 72 75 73 72 71 72 73 74 72 72 72 72 73 73 72 71 72 72 73 72 71 71
59 56 56 55 58 60 60 61 63 60 57 59 61 62 63 62 62 62 63 65 65 67 69 71 73 73 72 74 72 71 71 71 72 74 73 73 71 72 72 72 71 72 70 68 69 68 68 71 70
57 56 55 54 57 58 59 62 60 60 61 62 62 61 62 61 61 62 63 64 66 67 70 71 72 73 73 73 71 72 70 71 70 72 74 73 69 70 71 70 71 71 69 69 68 68 71 71 71
55 54 53 52 52 54 59 59 59 60 62 62 62 62 61 61 62 63 64 65 67 67 69 71 72 74 74 74 73 72 71 70 71 71 73 72 70 71 71 71 70 71 70 69 68 70 70 70 70
51 50 48 46 46 51 55 58 59 61 61 62 62 62 61 62 62 64 65 66 66 68 68 70 71 73 73 73 74 73 71 71 71 71 72 73 72 73 71 70 71 71 71 70 70 70 70 69 68
48 44 38 53 54 56 59 57 57 61 62 62 62 62 62 63 63 66 65 65 66 67 68 70 70 72 73 74 73 71 70 70 70 72 73 73 74 74 73 73 71 71 72 73 73 71 71 68 67
40 35 37 53 57 58 57 53 59 62 62 62 62 61 62 63 64 65 66 66 66 66 69 70 68 70 72 72 73 70 70 71 71 72 71 72 73 74 74 72 75 71 72 70 70 69 68 68 67
35 37 34 35 58 58 56 53 61 62 61 61 61 60 61 62 64 66 66 67 66 67 69 70 70 70 71 73 71 71 72 71 72 72 72 73 72 74 73 72 71 72 70 69 68 69 69 67 66
37 33 30 36 52 57 54 53 61 63 62 60 62 60 61 61 63 65 66 66 66 66 68 69 69 71 72 71 72 70 70 71 71 71 72 72 73 74 73 72 72 72 69 68 68 71 69 68 67
36 33 32 32 42 41 32 35 51 62 62 61 61 60 60 60 62 64 64 65 65 65 67 69 70 72 71 70 69 69 69 70 70 71 73 73 74 74 74 75 72 72 69 70 71 69 70 67 68
37 35 34 32 33 34 33 37 58 58 61 62 60 59 59 60 61 62 64 64 64 65 67 69 70 72 72 70 70 70 70 70 71 72 73 73 74 74 73 74 72 72 68 72 71 71 68 68 67
36 36 34 31 32 43 51 50 56 60 61 62 63 60 59 59 59 61 62 63 64 65 67 69 71 72 72 71 71 71 71 72 71 71 71 72 74 72 73 74 73 72 71 70 72 70 70 65 67
37 35 34 32 31 24 42 29 50 57 59 61 62 62 59 59 59 60 61 62 63 65 67 69 70 71 72 73 71 71 69 68 68 70 70 72 74 73 72 73 73 73 70 73 72 72 71 68 65
38 35 34 32 31 25 30 32 41 54 55 58 62 62 60 60 60 59 60 62 62 64 66 68 70 71 72 73 73 70 71 68 70 70 73 74 75 74 73 73 74 74 72 73 73 73 71 69 67
35 28 25 25 25 23 23 30 29 40 44 44 57 61 61 60 60 60 61 62 63 64 65 67 69 71 72 72 72 72 71 71 69 70 70 70 71 77 74 73 75 75 73 74 73 74 74 73 72
32 28 24 23 22 22 23 24 35 37 38 40 46 53 62 62 61 60 61 61 63 64 66 66 68 70 71 71 71 71 72 72 72 72 69 71 70 71 74 75 75 74 74 75 74 74 74 73 71
29 27 23 22 20 20 23 21 33 31 38 46 54 54 59 62 61 60 61 62 64 65 66 67 68 69 70 70 72 73 72 69 69 71 69 69 69 70 75 75 75 75 74 74 74 72 71 73 71
23 24 23 20 21 19 21 28 31 29 39 48 57 58 57 61 62 62 61 62 63 65 66 67 68 69 69 69 71 72 72 72 70 72 72 69 72 70 73 74 75 74 74 74 75 71 73 74 74
24 23 20 22 22 20 25 32 28 30 40 50 57 59 56 59 63 62 62 61 63 64 65 66 68 68 69 69 69 69 70 71 71 72 72 72 72 73 73 74 74 74 75 75 75 73 74 74 72
22 22 23 23 23 19 22 27 24 34 47 49 48 55 61 61 61 63 63 63 63 63 64 65 66 68 68 68 70 70 69 69 70 70 71 73 73 74 74 74 74 74 74 75 75 74 73 73 73
22 22 21 22 27 24 26 23 27 40 45 43 46 48 52 58 61 64 64 64 64 64 63 63 64 65 67 69 70 69 70 70 69 70 70 72 73 73 74 74 74 74 74 75 75 74 72 73 73

GFSSGP_sfc_dewp_072.txt.gz
Dewpoint
69 65 65 64 58 54 54 57 59 55 54 55 53 52 52 52 53 55 60 61 64 65 68 71 76 74 74 75 75 75 75 75 75 75 74 74 73 73 73 73 73 73 74 74 74 74 75 75 74
62 65 66 63 55 50 54 59 59 59 56 55 54 52 54 57 60 59 60 63 64 64 65 68 76 75 74 75 74 74 75 75 75 75 74 74 74 73 73 74 73 73 73 74 74 74 74 74 75
65 66 62 61 52 52 55 60 60 58 57 56 58 57 60 59 60 59 61 63 63 64 66 72 76 75 74 75 74 74 75 75 74 74 74 74 74 73 73 73 74 73 74 74 74 74 74 74 74
64 66 64 57 54 56 57 60 60 59 61 61 59 59 61 63 59 60 62 62 63 64 65 74 76 75 75 75 75 74 75 75 74 74 74 73 73 73 73 73 73 73 73 74 74 74 73 73 74
65 64 60 57 56 59 60 61 61 59 60 61 59 58 59 61 62 61 62 61 62 63 66 71 76 75 75 75 75 75 75 74 74 74 74 73 73 73 73 73 73 73 73 73 73 73 73 73 74
62 60 57 53 55 59 60 61 62 60 61 59 58 59 61 63 61 61 62 62 62 63 65 70 75 75 75 74 75 75 74 74 74 74 73 73 73 72 73 73 73 73 73 73 73 73 74 74 74
61 61 55 52 55 57 61 62 59 60 60 60 59 58 61 60 61 62 63 63 63 63 66 68 71 74 75 75 74 75 74 74 74 73 74 73 73 73 73 72 73 73 73 73 73 73 74 75 74
62 57 52 52 54 57 61 61 60 60 59 61 60 58 58 60 62 63 63 62 63 64 66 67 66 67 70 71 74 74 74 74 73 74 73 74 73 73 73 75 74 73 73 74 74 73 74 74 74
62 58 51 51 54 58 60 60 63 62 59 58 59 59 59 61 62 63 63 63 63 65 66 63 66 70 74 73 74 74 74 74 74 73 73 72 66 68 69 73 73 73 73 73 73 73 74 75 74
59 59 51 53 54 58 62 62 62 59 58 58 59 59 60 61 62 61 61 61 63 64 64 63 67 68 70 70 73 70 68 66 68 69 70 68 69 71 68 72 72 72 73 73 74 72 71 72 68
57 55 53 52 55 56 60 61 63 59 57 59 59 59 59 60 61 60 61 61 61 64 62 65 68 70 69 72 66 65 66 68 70 71 70 70 68 67 65 68 68 68 70 67 69 68 67 69 66
56 55 55 52 52 55 56 59 59 60 60 61 61 60 59 59 59 60 60 61 62 64 64 65 68 70 70 68 65 66 66 67 66 69 71 70 66 67 67 66 68 68 66 67 68 68 70 71 69
55 54 53 51 48 49 54 57 58 60 61 62 61 59 58 58 59 60 60 61 63 63 65 65 69 71 72 70 66 66 67 65 67 68 70 68 67 69 68 69 67 68 67 67 68 68 69 69 68
50 51 49 46 43 46 54 56 57 60 61 60 59 58 58 58 59 60 61 62 64 64 66 66 68 72 72 70 71 69 67 68 67 67 70 72 69 71 69 69 68 68 67 67 68 69 68 66 66
47 45 45 46 46 50 55 57 57 61 62 60 58 58 58 58 59 61 62 62 62 63 65 67 68 70 71 71 71 68 67 66 67 68 72 72 72 73 73 69 69 68 70 71 70 70 69 64 65
42 42 41 47 48 52 55 54 60 62 62 60 59 57 58 59 59 61 62 61 62 62 66 68 65 68 70 70 70 68 68 67 68 68 69 72 73 72 72 68 68 69 69 68 67 67 64 64 64
37 36 38 46 50 52 54 52 60 62 61 60 61 58 58 59 60 62 61 63 64 64 66 68 68 68 70 72 69 69 71 69 68 68 69 73 72 71 70 69 69 72 68 67 65 66 67 64 63
31 35 38 37 50 50 50 52 60 61 60 60 61 59 59 59 60 61 63 65 65 65 66 68 67 70 71 71 71 68 68 69 69 69 70 72 72 73 73 69 71 69 66 66 66 68 67 65 64
31 36 36 36 47 44 40 36 52 58 60 61 61 60 59 58 60 61 64 66 65 65 65 67 68 71 70 69 67 67 67 68 68 69 72 72 72 73 75 70 71 70 67 69 71 67 68 62 66
36 36 35 34 33 37 32 31 49 52 58 61 61 60 59 59 59 61 64 64 63 64 64 67 69 72 71 67 68 68 68 68 68 69 72 71 72 73 72 72 70 70 66 71 71 70 62 62 65
35 33 36 34 33 33 37 37 50 54 56 60 61 60 60 59 58 61 63 64 62 63 64 67 70 72 71 70 70 72 71 73 75 71 70 71 73 73 73 74 70 72 69 65 70 69 69 60 65
32 35 34 35 32 29 33 32 45 54 55 61 61 59 58 59 60 60 61 63 61 63 65 67 70 72 72 73 71 72 67 65 65 68 68 71 73 72 72 73 73 74 68 71 70 69 69 69 60
34 37 35 34 34 31 27 29 44 48 53 59 61 61 59 59 59 60 60 62 62 63 64 66 71 72 72 73 72 70 71 66 68 67 75 73 75 73 72 73 74 74 70 72 72 73 73 66 62
38 34 33 32 31 28 27 27 33 39 42 44 57 61 61 59 60 60 61 62 62 63 64 66 70 73 73 73 74 73 72 71 66 68 76 68 72 71 73 72 74 74 73 72 71 73 73 71 68
37 31 25 23 23 22 26 26 36 38 42 46 48 49 61 60 60 60 61 61 62 62 64 65 69 72 72 72 73 73 73 73 72 75 66 69 68 67 72 75 76 72 75 72 72 75 72 74 68
34 30 21 23 19 19 27 24 31 38 48 55 56 52 52 60 59 60 61 62 63 63 64 66 68 71 72 72 73 74 74 70 69 70 66 67 66 68 72 73 72 73 73 72 73 70 68 70 70
32 30 25 20 22 18 22 33 31 37 50 53 57 55 55 59 60 61 61 62 63 64 65 67 68 71 71 70 72 73 73 72 69 71 71 67 70 67 72 71 72 72 73 73 75 70 72 71 72
25 27 24 22 23 21 22 29 29 39 50 52 55 58 58 59 61 61 61 62 63 63 64 66 67 70 71 70 70 71 72 73 72 72 72 71 69 72 71 73 73 72 73 75 75 70 73 73 69
22 22 24 21 21 19 21 25 30 44 49 50 51 52 55 59 62 63 65 63 63 63 64 65 66 68 69 70 70 70 70 71 72 71 72 72 71 72 73 74 74 73 72 73 75 73 71 73 72
23 25 25 21 27 24 23 25 38 44 46 46 45 46 47 50 52 55 57 59 63 64 64 64 65 65 67 68 70 70 71 70 69 71 71 72 72 72 73 75 74 74 73 74 74 72 70 71 71

GFSSGP_sfc_dewp_075.txt.gz
Dewpoint
69 64 63 62 58 54 55 57 58 53 53 51 50 49 51 57 57 55 60 63 65 65 68 71 75 74 76 74 74 74 75 74 74 74 74 73 73 74 73 73 74 74 75 74 75 75 75 75 74
62 60 64 63 55 52 55 59 59 60 53 53 51 51 55 56 58 57 60 64 63 62 64 66 75 75 75 74 74 74 74 74 74 74 74 74 74 74 74 73 74 74 74 74 74 74 74 75 74
68 64 63 61 54 55 55 58 60 60 53 53 51 58 59 56 57 57 61 63 61 61 64 71 76 74 75 74 75 74 74 74 74 74 74 74 73 73 74 74 73 74 74 74 74 74 74 74 74
62 65 64 60 55 56 57 59 60 60 60 57 57 57 60 58 57 59 61 61 60 64 66 73 75 74 75 75 74 75 74 74 74 74 74 74 73 73 73 74 73 74 74 74 74 73 74 74 74
63 66 61 58 56 59 60 60 60 60 60 57 56 57 57 58 59 60 60 60 60 65 67 71 76 75 75 74 74 74 74 74 74 74 74 73 73 73 73 73 74 74 74 74 74 73 74 74 74
64 61 57 53 57 59 61 62 61 59 60 58 58 58 59 60 59 59 59 60 61 61 65 70 75 75 75 74 74 74 74 74 74 73 73 73 73 73 73 73 74 74 74 74 74 74 74 74 74
61 62 55 54 58 58 59 62 59 58 58 57 59 58 59 59 59 59 59 60 60 64 64 68 70 74 74 74 74 74 74 74 74 74 73 73 73 73 73 74 73 73 73 73 73 73 74 74 74
59 59 53 53 54 58 59 58 59 58 59 59 60 57 56 59 60 59 59 59 60 64 63 66 67 66 70 71 74 74 74 74 74 73 73 74 73 73 74 75 73 73 73 73 74 74 74 74 73
61 59 53 53 54 58 60 59 60 61 58 58 58 58 57 59 59 58 58 59 60 64 61 60 62 68 73 72 73 73 74 74 74 72 73 73 69 69 70 74 73 74 73 73 74 75 74 74 73
58 58 51 53 56 58 60 60 60 58 57 57 57 57 58 59 58 58 57 57 58 62 57 60 65 66 69 66 73 70 69 69 69 69 73 73 71 68 68 72 73 73 73 73 73 74 74 73 66
56 54 52 53 55 59 60 61 62 57 56 56 56 57 58 58 58 57 56 56 57 58 57 64 67 71 70 68 64 64 65 64 66 73 72 71 66 67 65 69 69 70 73 68 70 72 71 70 63
55 54 52 51 53 56 59 59 57 59 61 59 57 58 58 58 57 56 56 56 57 58 59 62 65 72 71 64 63 69 65 67 68 70 73 68 64 66 71 69 67 72 70 67 70 67 72 66 65
54 51 51 50 48 50 55 57 60 61 61 60 59 58 57 57 57 57 56 56 58 58 60 63 66 74 74 67 65 71 64 67 64 70 73 72 70 71 71 71 69 70 69 66 68 70 71 68 67
53 52 49 47 45 46 53 56 58 61 60 60 59 57 57 56 56 58 57 57 58 59 61 64 67 72 70 69 71 74 71 64 70 69 69 72 68 73 67 67 70 70 71 72 71 72 71 70 64
48 49 47 44 43 48 54 56 57 60 59 58 57 56 56 56 57 58 58 58 59 60 63 64 66 68 70 70 69 72 70 67 68 70 71 70 73 72 71 67 71 71 70 71 69 68 69 66 65
44 45 42 43 44 49 54 55 58 60 60 57 56 56 56 57 57 58 59 58 59 59 64 65 62 66 67 69 68 72 70 70 72 72 71 71 71 72 73 67 70 67 69 70 72 71 69 69 67
38 38 38 42 43 47 52 54 57 60 59 57 57 55 55 56 57 59 59 57 58 60 65 65 65 66 67 70 68 72 72 72 72 74 72 72 71 71 71 70 68 74 74 72 68 69 69 69 65
29 33 34 39 43 46 50 59 58 59 59 58 58 58 56 56 57 59 58 59 61 63 65 66 65 69 70 69 70 69 66 72 74 74 74 71 73 71 71 68 70 74 70 70 69 72 68 69 67
26 30 32 36 42 42 44 53 55 58 58 59 60 61 58 57 58 60 58 62 63 63 64 66 67 71 69 67 65 65 70 73 73 74 71 72 74 72 73 68 70 73 70 71 69 67 68 63 64
27 27 32 35 41 41 37 36 50 54 57 60 60 60 59 58 58 59 58 62 63 63 64 67 68 72 70 68 70 66 71 71 73 73 71 71 71 73 71 74 70 73 67 71 69 73 71 64 64
32 30 33 34 34 38 33 34 45 48 53 60 61 60 61 59 57 58 61 62 64 63 63 66 69 71 72 72 69 69 69 72 71 72 68 70 72 71 72 73 76 71 73 66 70 68 72 69 61
29 28 30 32 33 30 34 30 43 46 49 60 60 60 58 59 59 58 60 62 63 62 61 66 69 71 71 72 72 74 68 68 65 70 73 69 72 71 71 72 72 73 71 73 69 65 73 69 62
29 28 29 33 31 29 31 31 45 48 50 57 59 59 59 60 58 59 61 62 63 61 62 66 70 73 73 73 75 70 72 68 67 72 73 74 74 72 71 73 73 73 71 73 73 72 73 64 63
34 33 32 31 29 25 28 25 44 44 54 55 57 60 59 59 60 61 62 63 63 60 61 65 71 73 73 72 73 74 73 73 72 71 69 68 67 69 72 72 73 74 75 73 70 73 72 73 71
36 33 28 27 24 22 25 23 38 41 43 44 53 56 59 61 59 61 62 61 62 62 60 64 70 73 73 72 72 73 73 72 73 72 68 68 73 65 73 73 74 72 74 72 73 75 73 70 69
34 30 22 24 19 19 26 25 36 45 52 54 53 51 58 59 59 59 61 63 63 63 60 63 68 72 72 72 74 74 74 69 68 71 69 67 71 71 75 73 72 72 73 72 73 70 68 73 69
32 31 26 20 18 16 24 33 38 47 50 54 58 54 49 59 60 60 60 62 63 64 63 63 69 71 72 71 73 74 74 73 70 74 71 68 73 73 72 72 72 72 72 73 74 69 72 75 72
27 30 27 24 24 21 22 31 31 45 49 53 55 56 60 62 64 64 64 62 63 63 62 62 65 70 71 71 71 71 73 74 73 71 73 72 73 71 73 72 72 71 72 72 74 73 74 73 69
24 26 28 24 21 20 21 29 40 49 51 51 49 51 52 55 58 60 61 64 66 65 64 64 64 67 69 70 71 71 71 72 73 71 71 73 71 72 72 75 73 72 72 72 75 76 72 72 73
24 23 26 23 28 22 22 29 43 49 49 48 46 46 48 49 49 55 58 60 60 63 65 68 64 64 66 69 72 70 71 71 71 72 72 73 74 72 72 73 73 73 72 73 74 72 69 71 71

GFSSGP_sfc_dewp_078.txt.gz
Dewpoint
69 64 64 64 58 57 57 57 61 57 49 49 50 54 55 56 53 56 62 65 66 67 70 72 76 75 74 75 75 75 75 74 74 75 74 73 74 73 74 75 75 75 75 75 75 75 75 75 75
63 61 62 62 56 54 56 58 58 58 56 51 56 56 55 54 57 61 62 65 65 66 68 69 76 76 74 75 75 75 74 74 74 74 74 75 75 74 74 74 74 75 75 75 75 75 75 75 75
69 62 63 62 54 55 56 58 59 58 56 52 57 58 55 55 58 61 64 63 63 63 65 71 76 76 74 75 74 75 74 74 74 74 74 74 75 74 73 74 74 75 75 75 74 75 75 74 74
64 66 63 61 56 58 57 58 59 59 57 59 56 54 55 57 59 60 61 59 60 64 66 74 76 75 75 75 75 75 74 75 75 74 74 74 73 74 74 74 74 74 74 74 74 74 75 74 73
63 65 61 58 57 59 58 60 59 58 58 59 57 53 54 58 59 60 60 61 64 65 67 71 76 76 76 75 74 74 74 75 74 74 74 74 73 73 74 74 74 74 74 74 74 74 74 74 73
64 65 58 55 57 59 59 62 60 58 60 57 55 54 56 59 59 59 61 64 66 64 66 70 75 75 75 74 75 75 74 74 74 75 73 73 73 74 74 74 74 74 74 74 74 74 74 74 73
62 63 56 57 56 57 59 62 58 58 57 57 57 54 56 57 58 59 63 63 63 65 68 70 71 74 75 75 75 74 75 74 74 74 73 74 74 74 74 74 74 73 73 73 73 74 74 74 73
62 62 57 56 55 55 59 59 58 57 60 59 58 55 55 58 57 59 60 63 63 66 66 68 69 69 71 72 74 74 74 74 74 73 73 75 75 74 73 74 75 73 73 73 74 74 74 73 72
61 58 54 54 54 57 59 57 58 60 60 60 59 55 56 57 56 58 59 64 67 66 66 63 67 71 74 73 73 74 74 74 74 73 72 74 72 70 71 74 75 74 74 74 74 74 73 73 73
62 59 52 54 56 57 59 57 58 58 58 57 59 55 56 56 55 57 58 63 63 62 61 64 69 70 70 65 73 72 71 70 72 72 74 74 72 71 71 73 75 73 74 74 75 74 73 72 68
63 56 53 55 56 58 58 59 61 61 56 57 55 55 55 55 55 54 55 57 54 60 65 67 71 71 70 71 72 70 71 71 72 74 74 73 70 71 70 72 71 72 73 71 73 73 73 71 71
55 54 52 55 57 57 58 60 56 62 61 58 56 56 55 54 55 52 53 55 55 64 65 67 70 70 71 70 68 68 69 68 71 72 74 75 73 70 72 72 72 73 72 71 72 72 71 70 68
59 57 53 49 57 57 58 57 59 60 60 58 57 56 55 55 55 53 53 55 57 61 64 69 71 74 75 70 73 69 69 68 69 72 74 74 68 73 72 71 73 69 71 71 72 72 72 68 67
53 56 49 47 47 50 54 59 59 62 59 59 57 56 55 55 55 56 55 56 57 58 64 70 70 73 73 72 69 72 70 71 71 73 74 74 71 76 72 70 73 72 70 73 71 74 69 70 69
47 53 48 45 44 49 56 56 57 61 59 59 56 56 55 55 56 57 57 58 58 58 66 68 70 71 73 74 73 70 73 70 69 73 73 73 74 74 73 74 70 71 75 75 73 73 74 69 68
41 45 45 43 41 48 54 55 59 60 58 57 56 55 56 55 56 58 57 58 60 61 67 67 65 68 71 73 75 74 72 71 72 74 73 72 74 74 70 74 71 72 75 74 69 73 68 70 67
37 39 40 42 41 48 51 56 58 59 56 55 56 55 55 56 57 59 58 59 59 64 68 67 68 68 70 74 74 72 73 73 74 73 74 76 75 75 73 72 71 73 74 73 68 71 71 70 70
33 36 39 44 41 44 53 55 60 58 56 55 56 55 56 55 57 59 59 58 59 65 68 68 69 72 74 72 76 72 72 72 72 73 72 75 75 75 77 72 75 76 75 71 71 73 71 68 66
30 30 33 43 45 41 53 57 61 57 57 56 56 59 56 56 58 60 59 59 59 64 67 69 72 74 72 71 70 70 71 73 73 77 74 74 73 76 77 75 75 75 71 67 76 74 71 71 69
25 24 27 42 46 51 51 52 58 57 57 57 57 60 59 57 58 60 59 60 61 64 67 70 73 74 73 71 74 69 74 74 73 75 75 74 74 76 75 75 74 73 74 75 74 73 70 72 68
21 21 29 40 48 48 46 52 56 57 56 58 59 60 61 59 59 59 59 63 62 65 67 70 73 74 73 75 75 73 71 72 70 72 75 74 75 75 76 76 77 69 76 74 74 73 70 72 68
22 25 29 38 36 32 37 35 47 51 56 59 58 58 60 60 59 60 61 63 63 66 67 70 72 74 73 75 74 76 72 71 73 73 74 74 75 75 73 76 77 75 72 71 75 72 72 72 71
27 27 28 35 34 30 29 29 41 48 57 59 59 58 59 59 59 59 58 63 64 64 64 69 71 74 73 75 77 74 75 74 73 73 73 75 77 75 73 75 77 74 73 70 75 75 75 75 70
31 30 25 29 33 27 29 28 46 51 53 57 59 59 62 59 59 60 60 64 64 64 62 68 71 74 75 74 75 76 74 71 70 74 71 75 73 74 74 74 77 76 72 74 71 75 75 76 76
30 31 25 25 27 25 26 27 43 53 57 58 54 60 64 64 62 59 60 63 63 62 62 69 72 73 74 73 73 75 75 75 72 73 70 73 71 72 75 77 78 76 77 75 76 77 77 74 74
29 29 26 26 22 21 25 25 40 50 59 60 53 55 59 61 61 65 61 64 63 63 64 68 72 73 74 74 75 75 76 75 72 72 73 72 70 73 76 76 76 77 75 76 76 76 75 75 74
29 30 30 23 22 19 26 40 46 51 53 56 57 57 61 64 64 65 63 64 66 64 63 68 72 73 74 73 75 75 75 75 74 75 76 72 72 74 74 75 75 75 74 77 76 74 75 75 73
31 31 27 27 26 26 29 37 41 48 51 54 53 53 55 59 62 64 65 64 67 65 63 67 72 73 73 73 74 74 75 76 76 77 76 77 72 71 71 72 73 75 74 75 76 76 72 74 72
30 33 29 26 26 25 30 37 46 50 52 51 50 50 50 54 57 61 61 63 66 67 69 69 70 72 73 73 73 74 74 74 75 75 76 76 76 72 70 66 67 73 75 76 76 75 73 73 74
26 27 27 26 31 27 37 41 49 50 49 49 49 49 47 49 53 56 58 58 60 63 65 65 69 69 71 72 74 73 74 74 74 75 75 77 77 76 73 69 69 73 75 75 76 74 73 73 74

GFSSGP_sfc_dewp_081.txt.gz
Dewpoint
70 69 67 64 58 59 54 55 62 57 56 52 56 56 55 55 55 56 65 67 69 70 72 73 76 75 74 75 76 75 75 74 75 74 74 74 73 74 75 75 75 75 75 75 75 75 75 74 74
68 63 63 62 56 53 54 59 57 59 58 58 56 56 57 58 61 63 64 67 69 70 72 74 76 76 76 76 76 75 74 74 74 74 75 75 74 75 74 75 75 75 75 75 75 75 74 74 74
69 68 63 61 57 52 54 58 59 60 59 58 55 56 59 60 62 63 65 67 69 69 71 74 77 76 75 75 75 74 74 74 74 74 74 74 74 74 74 75 75 75 75 74 75 75 74 74 74
66 67 64 60 57 60 57 59 60 60 61 60 55 55 60 62 62 63 65 66 66 68 72 76 76 75 75 75 75 75 74 75 74 74 74 73 74 74 74 74 75 75 74 75 75 74 74 74 74
65 65 60 58 57 58 58 59 60 61 62 58 56 57 58 61 63 63 62 65 67 70 72 74 77 76 75 75 75 75 75 74 74 74 74 74 74 74 75 75 74 74 74 74 75 74 74 74 74
63 64 58 56 56 57 58 60 58 61 60 56 57 57 57 60 60 60 64 65 68 69 72 72 75 76 75 75 75 75 74 74 74 74 73 74 74 74 74 74 74 74 74 74 74 73 73 74 74
62 61 58 58 57 57 58 62 60 59 56 55 58 55 57 58 60 64 65 64 66 69 71 73 73 73 75 75 75 75 74 74 74 74 74 74 74 74 74 74 74 74 75 75 74 74 73 74 74
64 62 57 58 55 56 59 61 62 62 57 56 57 55 55 61 63 64 65 65 67 69 70 70 72 72 72 73 74 75 74 74 74 74 73 74 74 74 74 76 75 74 74 74 74 74 73 73 73
63 59 55 55 54 56 59 59 61 65 60 60 56 56 57 61 62 62 63 66 67 68 69 69 70 71 72 72 73 74 74 74 74 73 72 74 71 70 72 75 75 74 74 74 73 72 72 71 71
62 58 55 57 57 57 59 59 62 62 61 59 55 57 57 60 61 62 61 61 65 66 68 68 69 71 71 71 72 73 72 72 72 70 71 71 71 70 72 73 75 74 74 74 73 72 71 72 69
60 58 57 55 57 58 58 58 63 61 58 56 54 55 56 60 62 62 59 58 62 66 68 69 68 69 68 70 71 71 71 72 72 69 70 71 72 72 72 72 72 72 73 72 73 72 73 71 70
58 60 58 58 58 58 59 62 62 64 62 57 55 55 55 57 60 62 60 59 63 65 68 69 69 68 69 72 72 70 70 70 69 70 72 71 71 70 70 72 72 72 70 69 70 71 72 72 70
58 55 56 57 57 59 60 61 61 62 64 57 55 55 55 55 55 57 56 61 64 65 68 67 66 68 70 68 69 69 69 68 69 69 72 71 71 70 70 70 70 72 69 68 69 70 70 66 65
56 53 54 58 57 57 58 59 58 60 57 56 55 55 54 55 54 54 56 63 64 67 67 69 70 70 69 68 68 67 70 68 69 72 71 71 71 71 65 69 71 69 71 70 70 69 68 67 64
57 50 54 55 57 58 60 59 58 59 60 56 55 55 54 55 55 55 55 60 67 67 68 69 69 70 69 69 65 68 69 69 70 70 65 70 70 70 71 69 70 70 70 68 70 70 70 67 67
50 52 50 47 49 58 56 55 61 59 60 58 55 55 55 55 55 57 56 56 65 67 67 68 67 69 68 69 68 70 70 71 71 73 70 71 69 67 67 71 68 70 71 67 69 69 67 67 65
35 39 44 47 49 55 54 57 63 60 60 57 55 55 55 55 57 58 56 57 62 66 66 66 66 68 67 69 71 69 71 72 71 72 72 72 72 71 70 72 67 71 72 70 68 68 68 67 66
34 36 38 43 43 54 55 55 62 63 60 57 55 55 55 56 57 57 57 59 61 65 63 66 66 69 67 69 69 70 71 70 71 71 70 71 72 72 71 70 70 72 70 68 67 67 68 66 65
31 35 36 43 49 53 53 53 55 59 60 57 55 55 55 56 57 59 57 60 61 65 64 68 67 71 67 69 70 69 68 69 71 72 71 72 69 72 72 71 70 70 69 68 65 69 65 68 64
27 24 30 44 52 55 53 52 52 51 58 56 55 56 55 56 57 59 57 58 62 64 65 69 70 70 68 68 70 69 69 71 71 72 72 72 71 72 72 71 70 69 70 71 69 68 68 68 66
25 24 26 43 47 53 53 54 54 57 58 56 57 59 57 57 58 58 57 58 62 64 67 69 69 70 70 69 71 70 71 70 68 69 71 73 72 72 72 69 72 69 71 70 68 67 65 68 63
22 24 23 44 43 43 53 45 53 58 56 56 56 59 58 58 59 59 58 61 62 64 67 69 71 71 69 71 70 68 68 69 69 69 71 73 73 71 72 72 72 69 68 68 71 71 69 69 65
22 23 29 40 40 40 47 44 51 56 56 58 59 59 58 58 59 58 61 61 64 65 66 68 72 71 67 70 71 70 68 71 70 71 72 72 72 72 72 71 72 70 69 69 69 69 70 70 69
23 25 30 37 37 34 33 36 47 55 55 58 60 59 59 61 61 60 61 62 63 64 65 67 71 70 70 70 71 70 69 65 65 68 69 71 72 72 71 72 72 72 70 70 69 69 69 69 71
24 29 29 25 32 33 34 33 49 56 59 59 60 59 58 60 61 59 61 63 64 63 65 67 69 71 72 70 71 71 69 66 64 69 69 70 71 71 70 72 72 72 72 70 70 71 69 70 68
26 29 29 24 26 29 28 43 48 53 54 56 53 59 59 61 64 64 61 62 63 64 65 66 68 71 71 70 71 71 71 70 70 69 70 71 70 71 72 73 72 72 71 71 71 70 71 71 69
25 25 29 27 25 24 40 48 52 52 54 56 57 60 61 64 65 66 66 65 64 64 63 66 68 70 71 71 72 72 71 71 70 68 69 71 69 72 72 72 72 72 72 71 72 70 70 70 70
20 32 27 30 29 25 43 46 50 54 53 51 51 52 56 59 64 64 64 64 67 68 66 67 70 70 71 72 72 73 73 72 72 72 72 70 71 71 69 68 69 72 72 73 72 71 70 70 68
32 33 37 30 30 26 36 43 53 54 50 49 48 49 52 54 57 60 62 63 64 66 68 69 68 70 71 72 72 72 73 73 72 72 72 71 71 69 69 68 66 69 72 72 71 71 71 70 70
25 32 34 30 28 38 42 43 53 52 49 48 48 47 49 53 55 56 58 59 61 64 65 66 67 67 67 68 71 72 73 73 73 72 72 72 71 71 69 69 66 67 70 72 72 71 70 71 70

GFSSGP_sfc_dewp_084.txt.gz
Dewpoint
71 69 68 64 58 57 54 55 60 57 56 54 47 51 51 54 55 54 66 68 69 71 73 74 76 74 75 75 75 74 75 74 74 75 74 74 75 75 75 75 75 75 75 75 74 74 74 74 73
69 66 65 62 55 52 53 58 58 59 57 60 57 57 58 59 63 65 67 69 70 72 73 74 76 76 76 75 75 74 75 75 75 75 75 74 75 75 75 75 75 75 75 75 74 74 74 73 72
69 65 62 60 57 51 52 58 59 62 58 56 57 60 60 61 64 65 68 70 71 72 74 73 76 77 75 75 74 74 75 75 74 74 75 74 74 75 75 75 75 75 75 76 75 74 74 73 73
65 67 64 59 56 57 56 59 61 59 58 59 59 59 62 63 64 66 69 70 70 73 74 75 75 75 75 75 74 75 75 74 74 74 74 74 74 75 75 75 75 75 75 75 74 74 74 74 73
65 66 59 58 57 57 59 59 62 61 61 59 59 58 60 63 66 67 68 68 71 73 74 73 76 75 75 75 75 75 74 74 74 74 74 74 74 75 75 74 74 74 75 75 74 74 74 73 75
63 64 57 56 56 57 58 61 61 61 58 59 59 59 60 64 65 65 66 68 70 72 74 73 75 75 75 75 75 75 74 74 74 74 74 74 74 75 74 74 74 74 75 74 74 74 74 73 74
62 61 58 57 55 55 57 62 61 57 58 57 58 58 61 63 63 65 68 68 70 72 72 73 73 74 75 75 74 74 74 74 74 74 74 74 74 74 74 75 75 74 75 74 73 73 73 74 74
64 62 57 57 56 56 58 61 63 57 57 58 59 58 59 60 64 66 66 68 70 71 73 73 72 73 73 73 74 74 74 74 74 73 74 74 74 74 74 75 75 74 74 74 73 73 73 73 74
65 60 55 56 54 56 61 60 63 65 57 57 57 58 60 63 64 63 65 67 69 70 71 72 72 72 72 72 73 74 74 74 73 73 74 73 71 71 72 75 74 73 73 73 73 73 73 72 72
63 57 56 58 57 57 60 61 62 61 57 57 56 60 63 64 63 63 65 67 68 69 70 70 70 71 72 72 72 72 71 72 72 71 72 71 70 70 72 74 74 73 73 72 72 72 72 72 68
61 58 59 58 56 57 59 61 63 60 60 57 56 60 61 61 63 64 66 67 67 68 68 69 70 71 71 72 72 72 71 71 68 69 69 70 72 72 72 72 72 72 72 71 72 71 71 70 70
56 59 60 57 57 57 59 63 60 64 62 57 57 60 60 61 61 63 64 65 66 66 67 69 69 70 68 71 71 70 70 70 69 68 70 70 70 70 70 71 71 71 70 70 70 70 71 71 71
59 57 61 58 58 58 62 62 61 63 63 59 57 59 60 61 61 59 60 63 66 66 68 68 69 69 70 71 70 69 69 69 69 71 72 71 68 68 70 70 70 72 68 67 69 70 70 66 65
57 55 63 61 58 60 60 61 60 62 62 56 55 58 60 61 61 59 61 64 65 67 68 66 66 68 70 70 68 68 69 67 69 70 71 70 70 69 68 68 70 70 69 68 69 69 68 66 64
52 51 57 57 59 60 61 58 58 60 61 55 54 54 56 59 61 58 64 64 67 67 67 68 69 68 67 66 67 68 68 69 70 70 69 71 71 70 68 68 69 69 68 69 69 69 68 66 66
54 52 48 55 57 59 57 55 60 62 58 55 54 54 55 55 56 62 63 64 67 67 67 68 67 67 66 65 68 68 70 71 71 71 70 70 71 70 69 69 68 70 71 68 69 67 67 66 64
47 48 48 52 57 58 57 57 63 61 60 55 54 54 55 55 55 61 65 66 66 66 67 67 68 67 68 68 69 69 71 71 71 71 71 71 71 66 69 70 68 71 70 67 67 66 67 67 65
28 36 41 48 56 58 58 58 61 62 61 56 54 55 54 55 55 61 65 66 66 67 66 66 67 67 68 70 69 70 69 70 71 70 70 71 72 72 70 69 69 72 70 68 66 68 68 65 64
30 30 35 48 56 56 57 56 58 60 61 58 55 55 55 56 56 57 64 65 66 65 66 65 67 67 67 69 69 69 68 67 70 71 69 70 70 72 70 71 70 69 68 67 68 66 65 66 65
30 29 28 52 53 53 55 56 57 59 61 60 56 55 55 56 56 56 60 62 63 63 66 67 68 67 66 67 69 68 69 70 70 71 70 71 71 71 72 71 69 69 69 68 69 67 67 67 66
26 27 28 46 53 54 54 52 53 55 57 61 59 56 57 56 57 56 58 59 63 63 67 67 69 66 66 68 70 70 70 68 68 69 70 72 71 72 70 70 70 69 70 69 68 66 65 66 63
24 26 26 47 45 43 50 41 54 55 54 59 57 56 57 57 60 59 58 60 62 63 68 68 69 68 67 70 68 68 68 67 67 68 70 72 72 71 72 71 70 69 68 68 70 70 69 67 65
21 25 26 41 42 49 48 47 48 56 57 58 59 59 59 58 61 60 57 61 62 64 67 67 68 69 69 70 69 67 67 70 69 70 69 71 71 71 71 72 70 68 68 68 68 69 68 70 68
21 28 38 39 39 36 42 45 46 54 55 57 61 61 60 59 61 62 61 62 62 64 66 69 69 68 67 69 70 69 68 68 67 68 69 71 71 71 72 71 71 71 70 69 67 68 68 68 69
21 28 27 26 32 33 37 44 43 54 58 58 60 59 60 59 62 60 61 62 63 63 66 69 69 68 68 68 70 70 68 65 66 68 68 69 70 70 70 71 71 70 70 69 69 70 69 68 66
21 27 29 24 28 30 38 42 47 57 59 60 60 60 58 59 64 62 62 62 64 65 66 67 70 68 69 69 70 70 69 68 66 68 70 70 70 70 71 72 72 71 71 70 70 70 70 69 70
21 24 28 26 27 24 45 48 50 55 54 55 56 59 60 64 65 66 66 67 66 66 66 66 69 69 69 70 70 70 70 69 69 69 68 69 70 70 71 72 72 72 71 70 71 69 69 70 69
19 27 28 28 27 25 44 46 47 52 50 51 52 54 56 58 61 64 65 66 68 68 69 68 67 70 70 70 70 71 70 70 70 69 67 69 69 72 71 71 72 72 71 71 71 70 69 69 68
28 29 33 30 29 26 38 43 54 51 50 49 50 52 54 57 59 60 63 66 67 68 68 68 68 69 68 68 68 71 72 71 71 71 71 71 70 71 70 69 68 69 70 72 72 70 70 69 69
31 30 32 30 28 39 41 46 53 52 52 50 49 50 52 55 56 58 59 62 65 65 67 67 67 67 67 68 69 69 70 71 71 71 71 71 70 69 69 67 66 66 68 71 71 70 70 70 69

GFSSGP_sfc_dewp_087.txt.gz
Dewpoint
71 69 68 64 57 57 54 54 59 57 54 47 42 46 48 53 54 53 66 69 70 72 73 74 75 73 74 75 74 74 73 73 73 74 75 75 75 75 75 75 75 75 75 74 74 74 73 74 73
69 67 65 62 54 51 53 58 57 59 57 46 43 56 58 59 64 65 67 69 71 72 73 74 75 76 75 75 74 74 74 74 74 73 74 74 75 75 75 75 75 75 75 74 74 73 73 73 73
67 65 61 59 54 51 52 59 60 62 56 44 56 61 61 62 65 66 68 69 71 73 73 73 75 75 75 75 74 74 74 74 74 74 74 74 74 74 75 75 75 75 75 74 74 73 72 72 71
65 66 66 58 54 54 55 60 61 61 59 60 61 60 62 65 64 68 69 71 72 73 73 75 75 75 75 74 74 74 74 74 74 74 73 74 74 75 75 75 75 75 74 74 74 74 73 72 72
66 66 59 57 55 56 58 61 62 61 61 60 60 59 61 65 68 69 69 71 72 73 73 74 75 75 75 74 74 74 74 74 74 74 74 74 74 74 75 74 75 75 74 74 74 73 73 73 74
63 64 57 55 56 57 60 62 61 61 60 59 60 59 62 67 67 68 69 71 73 73 73 73 75 75 74 74 75 74 74 74 74 74 74 74 74 75 74 74 75 75 74 73 74 73 73 74 73
61 61 57 56 56 56 57 62 61 59 58 58 60 59 64 65 67 68 69 71 72 73 73 73 73 73 75 75 74 74 74 73 73 74 74 74 74 74 74 74 74 74 73 73 74 73 73 74 74
64 62 58 57 54 54 60 61 60 58 58 60 60 60 61 64 66 67 68 70 71 72 73 72 72 73 73 72 74 74 73 73 73 73 74 74 74 74 74 74 75 74 73 73 73 73 72 73 74
66 59 55 56 54 56 60 60 62 64 58 59 60 61 63 64 66 66 68 69 70 72 71 71 72 72 72 72 73 73 73 73 73 73 74 73 71 72 73 74 73 73 73 72 73 72 72 73 74
62 56 55 58 56 57 61 61 62 58 57 59 60 61 63 64 64 65 65 67 68 69 70 71 71 71 71 72 72 71 72 71 71 72 71 70 70 71 73 73 73 73 73 72 72 71 71 70 69
61 57 59 56 56 60 60 62 62 56 57 58 59 61 62 63 63 64 64 66 67 69 70 70 70 71 71 71 72 71 70 70 69 70 70 69 71 72 72 72 72 72 72 71 71 71 71 70 68
55 58 60 57 59 60 60 62 60 61 61 59 62 62 62 62 62 64 66 66 68 68 68 69 70 70 69 71 71 70 70 69 67 68 69 70 70 70 70 71 71 71 70 69 69 69 70 71 70
57 59 60 57 59 60 62 60 60 62 64 61 62 62 62 62 63 65 66 66 68 67 68 69 69 70 69 71 70 70 70 69 69 70 70 70 68 68 69 70 70 71 68 67 68 69 69 66 67
59 59 60 59 57 61 60 59 61 61 61 60 60 61 61 62 63 64 64 65 66 66 68 68 69 69 69 70 69 69 69 68 69 70 71 70 67 68 68 68 69 69 69 68 68 69 68 65 64
57 57 58 60 59 60 61 59 58 62 59 59 59 60 60 61 60 61 63 65 66 67 68 67 68 68 69 69 69 68 68 68 70 69 70 70 70 68 66 67 68 68 68 69 69 69 67 65 65
53 55 53 56 59 61 59 55 61 62 61 58 58 59 60 61 61 59 62 65 67 67 67 67 68 68 66 67 68 68 69 70 70 68 69 70 71 70 69 68 68 70 70 68 68 67 66 66 64
39 47 48 56 61 60 58 57 61 61 60 54 56 57 59 60 61 62 64 66 67 67 66 68 67 66 65 67 68 68 70 70 71 69 70 69 71 69 69 69 68 70 70 66 67 66 67 67 64
33 44 47 51 58 59 57 57 60 61 61 55 53 54 55 57 59 62 64 66 66 67 67 68 66 67 66 68 69 69 69 70 70 70 70 71 72 68 70 70 67 71 69 68 66 67 67 65 64
31 30 29 50 57 57 56 57 59 61 61 56 54 55 54 55 60 63 65 66 66 66 66 67 66 67 68 68 68 68 67 67 70 70 69 70 70 71 70 69 70 69 68 67 68 68 65 65 64
32 30 37 54 57 56 57 55 58 60 61 59 56 55 55 55 60 64 64 65 65 66 66 66 66 67 68 68 69 68 68 68 70 70 70 70 70 71 71 70 68 68 68 67 68 67 66 66 65
27 27 28 50 54 55 55 53 55 59 59 62 62 59 57 55 57 62 64 64 65 65 65 65 67 66 66 68 70 69 69 68 68 69 70 71 71 71 71 70 70 68 70 68 67 66 64 63 64
29 26 29 51 48 46 52 44 52 55 55 58 61 59 57 55 57 62 63 63 63 64 66 66 67 65 66 69 68 68 67 66 67 68 70 70 71 71 71 70 70 69 68 68 69 71 68 66 64
25 25 26 49 43 46 49 44 45 53 52 55 61 58 58 58 57 59 61 63 63 64 66 67 67 66 67 68 68 67 67 67 69 69 67 70 71 71 71 70 69 68 67 68 68 68 68 69 67
24 25 33 39 39 39 42 42 44 52 52 55 60 59 58 58 58 59 60 64 65 64 67 68 67 66 68 69 68 67 67 68 68 68 68 70 70 71 71 71 69 69 67 68 67 69 68 68 69
24 26 26 34 35 35 40 44 42 54 56 57 59 59 59 61 61 60 62 62 64 64 67 67 67 67 68 69 69 69 68 68 67 68 68 70 69 70 70 70 70 70 69 69 68 68 69 68 66
21 21 26 25 30 32 43 40 47 55 59 60 61 62 61 63 62 62 62 63 65 65 66 67 67 66 67 68 69 69 68 66 66 67 69 69 70 70 71 71 71 70 70 69 69 70 70 69 69
22 25 27 26 31 27 44 47 53 54 53 57 59 59 59 62 65 64 64 65 65 66 65 67 68 66 68 67 69 69 68 68 66 66 69 69 70 69 70 71 71 71 70 69 70 69 68 69 69
20 26 24 27 26 26 43 44 45 53 51 53 56 56 58 60 61 63 65 67 67 67 68 67 69 68 69 68 68 69 69 69 68 69 68 68 68 69 70 71 71 71 71 70 70 70 69 68 68
23 30 32 29 29 29 38 42 51 52 51 51 53 54 57 58 60 61 63 67 68 68 69 69 68 70 68 69 69 70 70 70 69 69 68 67 68 69 71 70 70 71 70 71 70 70 70 69 68
23 24 32 28 31 37 39 42 52 51 51 51 51 52 55 57 58 59 61 63 66 67 68 68 68 67 67 68 68 69 70 70 70 70 70 70 70 70 69 69 68 68 68 70 70 70 70 69 68

GFSSGP_sfc_dewp_090.txt.gz
Dewpoint
71 69 67 64 56 56 53 55 58 51 49 46 42 43 46 55 54 50 66 69 71 73 73 73 75 73 73 73 74 73 72 73 74 74 75 75 75 75 75 75 74 75 75 74 73 73 73 73 74
69 67 64 61 54 51 52 57 56 58 54 44 43 52 59 60 64 65 67 70 72 73 73 73 75 75 74 74 74 74 74 74 73 74 74 75 75 75 75 74 74 75 74 73 73 73 73 73 72
68 66 61 59 54 51 52 58 60 60 47 41 49 62 62 62 64 66 68 71 72 73 73 73 75 75 74 73 74 74 74 74 73 74 74 75 75 75 74 74 73 73 74 74 73 73 72 72 72
66 66 66 56 52 55 56 59 61 61 48 53 61 60 63 65 64 68 70 72 73 72 72 75 75 75 74 74 74 74 74 74 73 74 74 74 74 75 74 74 74 74 74 73 73 73 73 72 72
66 66 59 56 53 56 60 61 62 61 60 60 61 60 61 67 68 69 71 72 72 72 73 74 75 74 74 74 73 74 73 74 73 74 74 74 74 74 74 74 74 74 74 74 73 73 73 73 74
63 64 57 54 54 56 60 62 62 61 60 60 60 60 63 68 67 69 71 72 73 73 73 73 74 74 74 74 73 73 73 74 73 73 74 74 74 74 74 75 75 74 73 73 73 73 73 73 73
61 61 57 56 55 56 59 62 61 59 59 59 61 59 64 66 68 69 71 73 73 73 73 73 73 73 74 74 73 73 73 73 74 74 74 74 74 74 74 75 74 73 73 73 72 72 73 73 73
63 62 58 56 54 55 61 62 61 59 59 61 62 58 62 66 67 69 71 72 72 73 73 72 73 73 72 72 74 73 73 73 73 73 74 74 74 74 73 75 75 73 73 73 72 72 74 74 73
65 59 56 55 54 56 60 59 62 63 58 59 61 61 64 66 67 68 70 70 71 72 71 71 72 72 72 73 73 73 73 73 74 73 74 73 73 73 73 75 74 73 73 72 72 72 72 73 73
61 55 56 58 56 58 60 59 61 58 58 59 62 63 65 66 66 66 67 67 69 70 71 71 71 71 72 73 72 72 72 72 72 71 71 71 72 74 74 73 73 73 73 72 72 71 72 70 72
61 56 59 56 57 60 61 61 62 58 58 58 61 62 64 64 64 64 66 68 68 69 71 71 71 71 71 72 71 70 70 70 71 70 70 71 72 73 73 73 73 72 72 72 71 71 71 70 69
55 59 59 57 59 60 59 63 57 60 59 60 62 63 64 63 63 63 64 66 67 69 70 70 70 71 71 72 71 70 70 68 68 70 70 70 71 71 71 71 72 72 70 70 70 71 71 71 72
57 60 58 59 58 60 61 60 58 60 60 62 62 62 62 62 63 64 65 66 68 68 68 69 70 70 70 71 70 70 70 68 68 70 71 71 70 69 70 71 71 72 69 70 70 71 70 68 68
59 60 57 59 60 61 59 60 59 60 63 61 61 61 61 62 63 65 66 66 67 67 68 69 70 70 69 70 70 70 70 70 70 71 71 70 69 70 70 69 71 70 71 70 70 70 69 68 67
57 57 58 57 60 60 60 59 58 61 63 61 61 61 61 62 64 65 65 66 67 67 68 68 69 69 69 70 70 69 70 69 70 71 71 70 70 70 69 69 70 70 70 70 71 70 69 68 66
54 55 53 58 59 61 59 55 61 62 61 60 61 61 61 62 64 64 65 66 67 68 68 68 68 68 69 69 69 69 69 71 70 70 71 71 71 71 70 70 70 71 72 70 70 69 69 67 67
47 47 50 55 59 59 58 56 61 62 59 59 59 60 60 61 60 61 63 65 67 68 68 68 69 68 68 68 69 69 70 71 70 70 71 71 71 70 71 71 70 71 71 69 69 69 69 69 67
41 45 48 52 56 60 58 57 60 61 59 58 59 59 60 61 60 60 63 66 67 67 68 68 68 67 67 69 69 70 70 71 71 71 72 72 72 69 72 72 71 73 71 70 70 70 70 68 67
37 38 40 48 57 58 57 57 58 59 60 56 57 59 59 59 61 62 64 66 67 67 68 68 67 67 68 68 68 68 69 69 71 71 70 71 72 72 71 70 72 71 71 69 71 71 68 68 68
31 30 48 56 59 57 55 56 57 59 61 57 55 55 56 58 60 62 64 66 66 66 67 67 67 68 68 68 69 68 69 69 71 71 71 71 71 72 71 71 70 70 70 70 71 70 68 68 68
28 28 30 50 55 57 55 54 56 59 61 62 62 56 55 56 60 62 64 65 66 66 67 67 67 68 68 69 70 70 70 69 70 71 71 71 72 71 73 71 71 71 71 70 70 69 69 67 67
31 27 33 53 50 46 54 47 54 56 58 59 61 59 55 56 61 63 64 64 65 66 67 67 67 67 68 69 69 69 68 68 68 70 71 72 73 72 72 71 71 71 70 71 71 72 70 69 68
27 26 28 51 46 48 50 44 43 56 55 57 59 61 57 56 61 63 63 64 65 65 66 66 68 66 67 69 69 68 68 68 69 70 70 71 73 72 72 71 72 71 70 70 71 71 71 71 70
31 25 36 40 43 40 44 43 42 52 53 56 58 60 59 56 59 63 63 65 65 65 66 66 67 66 67 69 68 68 68 68 69 70 69 70 72 72 72 72 71 71 70 70 70 72 71 70 71
24 22 26 35 37 36 41 43 41 54 57 56 56 60 60 58 58 62 63 64 65 64 66 67 67 66 67 68 68 68 68 69 69 69 70 70 71 71 72 72 72 71 71 71 70 71 72 70 69
21 21 26 30 33 35 44 39 43 54 57 61 60 61 61 62 61 61 63 65 65 65 66 67 67 66 68 69 69 69 69 69 69 69 70 71 71 71 72 72 72 72 71 70 71 71 71 71 71
23 19 22 26 29 34 42 46 52 55 56 59 59 60 62 63 63 63 64 64 66 66 65 67 67 67 67 69 70 70 69 68 67 68 70 71 71 71 72 72 72 72 72 71 71 71 71 71 71
24 27 26 26 25 26 42 43 43 53 54 57 57 57 60 61 63 65 65 65 66 67 68 68 68 68 68 68 68 70 69 69 69 69 69 70 70 71 71 71 72 72 72 72 72 72 71 71 70
26 31 29 29 29 33 37 41 50 52 54 55 55 58 59 60 61 62 64 67 67 67 68 69 70 70 69 69 69 70 70 70 70 70 70 70 70 69 70 71 72 72 71 72 71 72 71 71 70
24 26 31 27 31 37 37 37 51 52 52 54 54 57 58 59 59 61 62 64 67 67 69 68 69 68 69 68 69 70 71 71 71 70 71 71 71 71 70 71 71 71 71 72 72 72 72 71 70

GFSSGP_sfc_dewp_093.txt.gz
Dewpoint
70 67 66 65 56 56 54 54 57 46 44 43 41 39 49 57 54 45 64 68 69 69 70 72 75 73 73 74 74 73 73 75 74 75 75 75 75 74 74 74 74 74 74 74 74 74 74 74 74
67 66 64 63 54 51 53 56 48 48 45 43 43 46 56 59 62 63 65 69 70 69 70 68 75 75 75 74 74 74 73 74 74 74 75 75 74 75 74 74 74 74 74 74 74 73 73 72 70
66 66 63 59 53 51 52 57 58 56 45 43 55 60 61 61 63 64 66 69 70 70 68 72 75 75 74 74 74 74 74 73 74 74 74 74 74 74 74 74 74 74 75 74 73 73 73 73 73
64 66 66 56 50 54 54 58 59 49 43 51 59 60 63 64 63 66 68 69 69 68 68 74 75 74 74 74 74 74 74 74 74 74 74 74 74 74 74 74 74 74 74 73 73 73 73 72 71
66 66 57 54 52 55 59 60 60 48 43 53 60 59 61 66 68 67 69 68 66 66 72 72 75 74 74 74 74 74 74 74 74 74 74 74 74 74 74 74 74 74 74 73 73 74 74 74 74
64 64 57 53 52 56 60 61 61 59 57 58 59 58 61 67 66 68 68 68 65 70 69 71 74 74 74 74 74 74 74 74 74 74 74 74 74 74 74 74 74 74 73 73 74 74 74 73 73
61 61 57 54 55 55 59 62 59 59 59 58 60 56 62 66 67 69 69 69 66 69 70 71 70 73 74 73 73 74 74 74 74 74 74 74 74 74 74 74 74 74 73 73 73 73 73 73 72
62 62 57 56 54 56 60 61 60 59 59 61 58 56 60 65 68 69 69 68 67 70 70 72 72 72 72 71 74 73 74 74 74 74 74 75 74 74 74 74 75 73 73 72 73 73 73 73 73
64 60 56 55 54 57 61 59 60 60 58 59 60 57 62 66 67 67 68 67 67 69 70 70 70 72 74 73 72 73 73 74 74 74 74 74 72 72 73 74 74 73 72 72 73 73 73 73 74
60 59 56 56 56 58 60 59 58 57 58 61 62 64 65 66 66 65 65 66 66 68 70 71 70 71 72 72 73 74 73 73 72 73 74 73 74 74 71 73 74 73 72 73 73 73 72 70 73
60 57 58 56 57 59 58 59 58 57 56 59 60 62 64 64 65 64 63 66 66 68 69 70 71 73 74 74 71 70 70 71 71 73 73 74 73 73 72 72 70 70 71 68 68 69 69 69 69
55 58 59 56 59 60 58 59 56 56 58 59 61 63 64 63 63 62 61 65 66 68 69 70 70 72 73 71 69 70 69 70 69 70 73 73 70 71 72 71 71 70 69 71 71 70 72 71 71
56 58 57 58 59 59 61 57 57 59 59 61 63 63 62 61 60 59 59 64 66 66 68 68 70 72 73 72 70 70 69 68 69 70 72 71 69 71 72 72 71 71 70 70 71 71 69 69 68
58 58 58 58 59 59 58 58 57 61 60 61 61 61 61 61 61 60 61 63 65 65 67 68 69 72 72 72 73 72 70 70 69 70 70 72 69 72 70 71 71 70 70 71 72 71 69 68 68
58 56 57 58 59 59 61 57 58 62 60 59 59 60 61 62 63 61 60 61 65 66 67 68 68 70 71 72 72 71 71 70 70 70 73 71 72 72 72 70 70 70 73 72 73 70 70 67 66
56 55 53 57 58 63 60 55 59 63 61 59 59 60 61 62 63 63 63 63 66 66 68 69 66 69 70 71 72 70 71 71 70 71 71 72 73 73 73 70 70 73 72 71 70 69 68 67 67
52 50 52 55 59 60 59 56 60 63 61 57 59 59 60 62 63 65 63 65 66 68 69 69 69 70 70 72 71 71 72 72 71 71 72 73 73 72 72 71 71 74 69 70 69 69 70 69 68
49 48 50 52 56 58 57 58 61 63 61 58 59 59 60 60 62 64 65 65 66 68 69 69 69 71 72 71 72 71 70 72 72 71 72 72 72 72 73 72 72 74 72 70 70 72 71 70 68
48 47 46 48 56 56 56 58 59 61 59 59 59 59 60 61 62 63 64 65 66 68 69 70 70 72 70 70 70 70 69 71 72 71 73 73 74 73 75 71 73 73 72 71 73 71 71 67 69
34 40 38 54 56 56 56 56 58 59 58 59 59 59 59 60 61 62 63 65 66 68 69 71 71 72 71 70 71 70 71 70 71 72 73 73 73 74 73 73 72 73 71 73 73 72 68 67 68
30 30 50 48 56 55 54 53 55 58 60 59 59 59 59 59 60 62 63 64 65 67 69 70 71 72 72 72 71 72 72 71 71 72 71 71 73 73 74 73 72 73 73 70 72 72 72 66 69
29 29 39 53 49 49 52 46 51 55 58 60 57 57 57 59 60 62 63 64 65 66 68 70 71 71 71 73 71 73 72 73 69 70 71 72 73 72 73 74 73 74 73 73 73 73 72 71 68
30 28 34 51 48 49 48 48 47 55 55 59 60 58 55 57 59 61 63 64 65 66 67 69 71 71 71 72 73 70 74 70 70 70 73 74 74 74 73 73 74 73 71 74 74 74 74 71 69
31 35 41 46 45 37 45 43 42 52 54 56 59 60 59 56 58 62 64 65 66 66 67 68 71 71 72 72 72 73 72 73 70 71 70 70 71 72 74 73 74 74 72 73 73 74 73 73 72
26 22 31 31 34 26 42 45 41 53 56 57 56 59 61 58 59 62 64 65 66 66 67 67 70 71 71 71 72 72 72 73 73 72 70 70 72 74 73 74 74 72 73 73 73 75 74 72 70
26 23 26 28 31 31 44 37 42 54 57 60 60 58 61 60 59 61 64 66 66 66 66 67 68 70 70 70 71 72 73 70 70 72 71 70 73 76 75 74 74 74 74 73 73 71 71 74 72
24 21 25 30 32 31 40 45 52 56 58 59 58 58 60 61 60 61 64 65 66 66 67 68 69 70 70 69 70 72 72 72 71 73 73 72 73 71 73 74 73 74 74 73 73 70 72 73 73
25 25 22 26 30 29 41 43 43 53 56 58 59 60 62 63 62 64 64 65 66 67 68 69 69 69 71 70 70 72 73 73 72 72 71 72 72 73 74 73 73 74 74 74 74 72 73 73 71
26 25 29 27 30 26 30 38 53 54 56 57 58 59 60 62 63 64 66 66 67 68 68 69 70 70 71 70 71 71 72 72 73 72 72 72 73 72 73 74 73 74 74 74 75 75 73 73 73
25 31 31 21 33 39 35 37 52 54 57 57 58 59 60 61 62 63 65 67 67 67 68 69 70 71 71 71 70 70 72 72 73 73 73 73 73 73 73 73 73 73 72 74 74 73 71 72 72

GFSSGP_sfc_dewp_096.txt.gz
Dewpoint
68 64 64 65 57 53 50 52 47 45 45 44 42 40 49 55 48 49 60 64 65 64 67 71 74 73 73 74 73 74 75 75 75 75 75 75 74 74 74 74 73 74 74 74 74 74 74 73 72
62 64 64 61 54 48 51 49 45 45 44 43 43 52 52 56 55 58 62 66 64 66 66 65 75 74 74 74 73 73 74 74 74 75 75 75 75 75 75 75 74 74 74 74 73 73 71 72 72
64 66 63 57 54 49 51 47 50 44 43 46 47 58 59 55 57 60 64 65 64 67 64 71 74 74 74 74 74 74 74 74 74 74 75 75 74 75 75 74 74 74 74 73 74 74 74 73 73
63 65 61 56 52 55 53 53 49 44 46 54 56 58 60 57 60 62 66 65 65 64 66 73 74 73 74 74 74 74 74 74 74 74 74 74 74 74 74 74 74 74 73 73 73 73 73 72 73
64 65 56 53 53 55 55 54 48 47 53 58 58 58 57 61 63 65 65 64 62 62 66 70 74 74 74 74 74 74 74 74 74 74 74 74 74 74 74 74 74 74 74 74 74 74 74 75 74
63 64 54 52 51 55 57 58 49 47 48 57 57 55 57 63 64 64 64 63 61 62 64 68 74 74 74 74 74 74 74 74 74 74 74 74 74 74 74 75 74 73 74 74 74 74 73 73 73
62 62 57 53 52 54 57 60 56 48 51 53 56 54 60 61 64 64 64 61 62 62 65 67 68 73 74 74 74 74 74 74 74 74 74 74 74 74 74 75 74 73 73 73 73 73 74 72 71
61 62 56 54 53 52 58 59 58 57 57 59 57 55 59 62 65 64 63 60 62 64 66 67 68 68 69 69 73 74 74 74 74 75 74 75 74 74 74 75 75 73 73 73 73 73 74 73 71
64 61 56 55 52 56 60 58 60 59 59 57 58 52 61 63 65 63 62 60 62 64 64 63 64 69 72 71 72 73 74 75 75 74 74 73 70 71 71 74 73 72 72 73 73 73 73 74 73
60 60 56 56 54 57 59 58 59 58 58 57 54 58 61 63 63 61 60 59 61 63 63 62 65 65 67 64 71 71 69 69 69 70 72 71 72 72 68 72 73 72 72 73 73 73 72 72 68
59 57 58 55 56 57 57 58 58 57 57 58 57 59 61 62 62 60 59 59 60 64 63 63 67 70 67 67 65 67 67 67 70 73 71 70 68 67 65 67 67 68 71 66 69 68 67 69 67
54 57 57 55 57 56 57 59 56 57 55 57 58 60 61 61 59 58 57 59 61 64 63 64 67 72 69 67 64 65 65 66 66 68 71 69 66 67 67 66 68 68 66 69 69 67 70 70 70
56 57 56 56 58 59 58 55 55 57 57 58 57 59 59 59 59 58 58 60 62 62 62 64 68 71 72 70 66 66 67 64 64 67 70 67 67 70 68 70 68 68 67 68 68 67 67 68 67
57 56 56 57 58 59 55 55 55 57 58 57 58 58 58 58 57 58 57 60 62 62 62 65 68 71 71 71 71 69 66 66 65 67 70 71 68 70 68 69 68 67 67 67 68 68 66 65 64
57 55 56 57 58 57 58 55 57 57 57 57 57 56 57 57 57 57 57 61 62 61 63 66 68 69 71 71 71 68 66 65 66 67 71 71 70 73 71 69 68 68 70 71 69 68 66 63 62
56 55 54 57 59 61 59 55 58 59 56 55 55 57 57 58 56 57 58 61 62 62 65 66 64 67 69 70 70 68 68 67 67 67 68 71 73 73 72 67 67 70 70 68 66 65 63 63 62
56 52 52 56 58 60 59 56 61 62 59 53 55 56 57 58 57 59 60 61 62 65 66 67 67 67 69 72 69 69 72 69 68 68 68 73 72 72 70 68 70 72 69 67 66 65 66 65 64
50 50 50 53 57 58 59 55 61 63 60 54 55 55 57 57 57 60 61 62 63 65 68 68 68 70 72 72 72 69 68 69 69 69 69 72 71 73 71 69 71 71 69 67 66 70 67 67 65
49 50 48 52 57 58 57 57 60 62 62 56 55 55 55 56 59 61 61 62 64 65 67 69 70 73 73 72 67 67 66 68 68 69 73 73 72 72 74 68 71 71 70 71 72 68 69 63 65
43 47 46 51 55 55 57 57 60 62 61 59 54 54 54 55 57 60 61 62 63 66 67 69 71 73 73 70 71 68 68 68 68 69 72 72 72 73 72 72 70 72 68 73 73 72 65 64 67
38 42 43 49 54 54 55 54 55 58 62 60 57 55 56 58 57 60 61 62 63 66 68 69 71 73 73 71 71 74 73 72 73 70 70 70 72 72 73 73 71 72 71 67 72 71 71 62 66
34 33 45 51 49 49 52 47 51 54 59 61 57 56 55 57 59 60 61 62 62 64 68 70 72 73 73 73 71 72 75 73 73 68 69 70 72 71 71 73 73 73 70 72 71 70 70 71 65
33 31 38 44 46 49 50 44 49 55 53 58 59 56 55 56 57 59 61 62 63 64 66 69 72 73 72 73 73 69 69 74 66 68 75 73 73 72 71 73 73 74 69 73 73 73 73 69 67
32 31 36 42 42 41 43 41 44 48 52 52 58 58 57 55 56 59 61 62 63 64 65 68 71 73 73 73 73 73 71 70 75 73 70 68 69 71 72 72 73 74 72 72 71 74 73 72 71
34 32 30 31 32 31 42 40 40 46 55 54 57 58 58 56 56 57 61 62 64 65 66 67 71 72 72 72 71 72 72 72 71 73 74 69 73 72 72 74 75 71 74 73 73 73 73 72 70
34 31 30 32 30 29 38 39 40 50 55 57 57 58 59 59 56 57 63 64 66 65 66 68 70 71 72 71 73 73 73 68 71 70 69 75 70 68 72 71 71 72 73 73 74 70 68 71 69
30 31 31 29 32 29 34 37 51 53 55 57 57 57 57 60 59 59 61 64 66 68 68 68 69 69 71 70 72 73 74 73 69 72 72 76 76 70 71 71 71 71 72 73 74 68 71 72 71
23 27 28 28 31 28 31 35 34 52 54 58 57 57 57 60 62 61 62 64 66 67 69 68 68 71 71 70 70 71 70 70 70 71 73 73 72 74 73 71 71 71 71 73 75 70 72 73 70
23 22 22 25 27 25 26 32 49 50 56 58 59 61 61 61 62 63 64 66 66 68 68 69 70 69 71 71 71 72 71 69 70 70 70 71 72 74 75 74 71 72 71 71 73 73 71 72 72
21 21 23 19 30 27 28 35 52 54 56 58 59 61 62 64 64 65 66 67 68 68 68 68 70 70 71 71 72 71 71 71 69 70 70 72 72 75 74 73 74 73 71 72 72 71 70 72 70

GFSSGP_sfc_dewp_099.txt.gz
Dewpoint
66 64 63 63 61 55 47 45 46 44 42 41 39 44 50 53 50 50 58 61 62 63 67 71 73 72 74 73 74 75 75 75 75 75 75 74 74 75 75 75 75 74 74 74 74 74 71 71 73
62 62 64 60 57 46 46 45 44 44 43 41 46 52 51 50 54 57 59 61 63 63 65 64 74 74 73 73 74 74 74 75 75 75 75 75 75 75 74 74 74 75 75 73 72 72 73 73 73
64 66 63 57 55 48 44 45 45 44 42 43 53 57 52 54 56 58 60 64 65 68 63 72 74 74 74 74 74 74 74 74 75 75 75 75 74 75 74 74 74 73 73 73 73 73 73 73 73
61 64 59 57 54 49 45 46 44 44 48 52 55 52 53 57 58 59 61 65 65 64 65 72 74 74 74 74 74 73 74 74 75 75 74 74 75 74 74 74 74 73 73 73 74 74 73 73 73
63 59 55 55 51 49 50 45 44 47 53 55 55 50 54 58 60 62 63 64 60 62 64 68 74 74 74 74 74 74 74 75 74 75 74 74 75 75 74 74 74 74 74 74 74 75 74 73 73
60 62 52 51 50 50 51 46 49 55 56 55 54 52 57 60 61 61 64 61 60 65 64 68 74 74 74 74 74 74 74 74 75 74 74 74 74 75 75 74 74 74 74 74 74 73 72 72 72
60 62 57 52 51 50 53 49 50 51 50 54 54 53 57 59 61 60 58 58 57 64 64 65 68 73 74 74 74 74 74 75 74 74 74 74 75 75 75 74 74 73 73 73 74 74 72 71 71
61 62 55 54 50 52 54 52 46 47 50 54 55 54 56 60 61 59 57 56 60 62 61 64 69 71 68 69 74 74 74 74 74 74 74 75 74 75 75 75 74 73 73 73 73 74 73 72 71
61 61 56 54 50 52 55 54 55 58 55 55 55 54 57 59 59 58 57 57 60 63 59 62 63 67 69 69 72 74 74 75 74 73 74 74 69 69 71 75 73 73 73 73 73 73 74 73 73
60 60 56 56 50 54 56 55 56 55 55 55 52 56 59 59 59 57 55 56 58 57 57 61 66 67 68 63 72 70 70 70 70 71 73 76 71 72 66 71 72 72 73 73 73 73 75 75 69
58 58 57 55 54 56 55 56 56 55 54 52 54 57 58 58 58 56 55 55 57 58 57 63 69 64 62 67 65 68 68 65 71 73 76 74 65 66 65 68 68 69 72 70 71 71 68 66 67
53 57 57 55 55 55 55 56 54 53 53 54 56 57 58 57 56 55 54 55 58 59 59 63 67 68 64 62 62 67 63 64 70 69 70 68 64 67 71 68 65 70 68 68 68 66 68 66 66
54 56 56 56 54 55 55 53 52 55 54 56 56 57 57 56 55 55 55 57 59 58 59 64 69 71 69 66 63 65 64 62 65 67 67 65 67 69 69 71 69 69 70 72 66 65 66 66 64
57 56 56 57 57 58 54 53 52 54 54 55 56 56 56 55 54 55 56 58 60 58 60 65 67 70 73 68 70 66 64 63 64 65 67 70 70 73 69 70 70 65 71 71 65 67 64 65 61
57 55 56 58 57 57 55 52 53 54 54 55 55 55 55 55 55 55 56 59 59 59 62 65 66 67 72 72 69 67 63 62 69 67 71 70 70 72 72 69 70 69 68 70 68 66 64 60 59
57 56 55 58 56 58 56 54 54 54 54 53 53 53 53 54 54 54 58 59 60 60 64 64 62 65 68 72 73 73 67 67 68 68 68 71 72 71 73 67 71 67 71 64 66 62 60 60 60
56 53 54 56 57 59 58 56 58 55 53 52 52 52 53 54 53 55 57 59 60 63 65 64 65 66 70 70 72 73 71 71 71 71 72 72 71 71 73 74 69 73 68 66 68 61 68 62 60
50 53 53 55 57 57 57 56 60 59 59 51 52 52 53 52 53 56 57 59 61 64 65 65 64 71 73 68 70 72 70 71 72 71 72 71 70 71 74 68 69 73 70 65 66 73 64 65 62
53 53 53 55 57 56 56 55 60 61 59 59 52 52 52 52 55 57 57 59 60 64 66 66 72 71 71 70 67 71 70 71 70 73 71 71 71 71 73 71 70 70 73 72 69 67 69 60 63
45 51 53 57 56 53 57 56 60 61 58 59 58 52 52 53 55 58 58 58 59 63 66 68 71 73 73 70 73 73 71 72 72 73 71 71 71 72 71 74 71 73 68 71 71 72 67 60 62
37 48 49 52 56 55 56 55 58 61 60 61 61 55 52 52 54 56 58 57 59 63 65 67 70 73 72 73 74 72 72 74 69 72 70 70 71 71 73 73 75 71 75 69 71 69 71 66 62
34 50 54 55 50 53 55 48 54 57 58 60 59 55 52 53 56 56 57 58 58 63 66 68 70 72 72 71 74 71 75 74 69 73 73 72 71 70 71 72 72 74 72 77 73 68 73 72 62
36 37 55 55 49 49 51 46 51 55 55 57 59 56 54 55 55 60 56 58 58 62 64 67 71 72 72 73 75 69 70 73 69 73 73 74 73 71 69 71 72 73 70 72 77 72 74 66 69
37 33 34 45 46 46 44 41 47 49 54 57 58 59 57 57 58 60 56 59 60 62 66 66 71 73 72 72 72 71 70 70 73 72 73 69 71 69 71 71 73 73 73 73 71 73 73 76 73
38 32 31 32 46 36 42 40 43 49 54 57 59 60 57 59 55 58 57 60 63 64 66 68 71 72 72 72 71 70 71 72 71 72 67 71 71 73 74 73 73 71 74 72 73 74 73 72 72
35 32 31 32 31 34 43 38 42 46 49 50 55 57 58 56 59 56 59 62 63 65 64 67 70 72 71 71 72 72 71 68 67 69 73 67 71 67 75 72 72 72 72 72 72 69 68 73 69
29 34 33 32 32 37 37 46 49 46 47 52 55 54 57 57 58 57 58 62 67 65 66 68 71 73 71 70 71 73 73 72 72 71 72 70 73 74 71 71 71 71 71 72 73 69 70 73 72
22 29 30 30 32 33 35 37 37 50 52 53 53 55 58 59 59 58 63 64 66 67 71 69 69 72 72 70 70 71 71 71 70 71 71 72 72 75 73 70 70 71 71 72 73 72 72 72 70
20 21 28 28 26 26 32 36 46 51 53 55 55 56 56 58 60 63 64 64 66 68 69 71 72 71 73 71 72 73 70 71 71 70 70 71 71 73 72 72 71 71 71 72 74 75 73 72 73
19 19 22 23 31 26 26 45 47 52 54 57 60 62 63 64 63 63 63 67 68 69 68 68 69 70 70 72 72 72 70 70 72 70 70 71 72 72 72 73 73 73 72 73 73 72 70 71 71

GFSSGP_sfc_dewp_102.txt.gz
Dewpoint
66 63 64 64 61 60 44 42 43 40 39 40 49 49 51 52 48 51 61 63 62 65 69 71 74 73 73 73 74 74 75 75 75 75 75 75 75 75 73 74 74 74 74 74 72 72 73 74 74
55 62 63 66 58 50 44 44 42 42 41 53 52 48 52 51 55 59 58 62 63 64 65 66 75 74 73 74 74 74 74 75 75 75 75 75 75 75 75 74 74 75 74 73 73 73 73 74 73
62 64 64 57 54 49 42 44 44 41 42 58 59 52 52 53 55 58 62 64 63 65 67 72 74 74 74 74 74 74 74 75 75 75 75 75 74 75 74 74 74 74 74 74 74 73 73 73 73
62 63 59 57 53 48 43 44 43 45 50 55 53 50 55 57 57 61 62 62 64 66 69 74 74 74 74 74 74 74 74 75 75 75 75 75 74 74 74 73 73 74 74 74 74 74 73 72 72
62 58 57 57 55 44 44 43 45 50 55 51 51 51 55 60 62 62 62 62 62 64 68 70 75 74 74 74 74 74 75 75 75 75 75 75 75 74 74 74 74 74 74 75 75 73 73 72 71
61 57 56 54 46 46 43 44 49 55 56 56 51 53 57 61 59 59 64 68 63 64 67 70 74 74 74 74 74 74 75 75 75 76 75 75 75 76 75 75 75 74 74 73 72 72 72 71 70
59 61 57 52 48 46 44 47 55 53 52 50 53 53 58 59 59 61 64 64 62 63 65 68 70 73 74 75 74 74 75 74 74 75 75 76 75 75 75 76 75 74 74 74 73 72 71 71 70
63 63 58 57 49 49 47 50 53 51 56 53 53 54 57 59 61 60 61 61 64 65 67 68 69 69 71 71 74 75 74 74 75 75 75 76 75 74 74 76 76 73 73 74 74 73 72 71 71
62 59 56 56 48 51 48 47 51 53 52 53 55 55 59 58 55 53 60 60 57 64 65 67 67 69 72 73 73 74 75 75 75 74 75 76 71 72 72 75 75 74 73 74 74 74 73 71 71
61 60 57 56 53 50 52 52 54 55 54 53 53 55 56 56 55 53 53 59 59 62 64 64 66 65 67 66 73 74 71 71 72 72 74 75 74 73 68 72 74 73 73 74 75 75 75 74 72
60 60 60 60 60 52 54 54 55 54 54 52 53 54 54 54 54 52 53 55 55 60 64 65 68 70 66 71 72 71 72 72 74 74 76 75 70 69 68 71 72 73 73 72 72 73 72 72 72
54 57 59 57 59 52 54 56 53 54 53 52 55 56 54 53 52 52 52 54 56 61 65 62 67 72 68 69 70 70 70 70 72 73 74 76 70 73 70 71 69 73 72 73 73 71 72 69 68
56 57 57 59 56 54 56 55 57 55 56 54 55 56 53 53 52 53 54 54 57 58 65 64 69 73 75 69 69 69 68 70 71 71 71 71 70 75 71 70 71 71 70 72 72 71 71 71 68
57 56 57 57 59 55 53 50 53 57 54 53 55 54 52 52 51 53 55 57 57 61 68 66 67 71 73 74 75 68 67 68 69 72 72 73 70 73 71 71 72 73 71 73 70 71 70 71 66
54 55 58 59 60 56 53 50 53 50 53 53 53 53 53 52 53 54 56 58 58 59 66 68 68 70 72 74 74 73 68 68 70 70 73 72 74 72 71 72 72 73 74 73 74 73 70 68 66
54 55 55 59 60 56 55 54 56 51 53 52 52 52 53 53 52 54 57 58 60 62 67 68 65 68 70 73 75 70 70 67 71 71 73 75 75 74 73 73 73 75 76 75 71 72 71 68 69
57 54 54 56 58 58 56 56 59 52 51 50 52 52 52 53 53 55 58 59 60 65 66 65 68 69 70 75 71 74 71 72 72 73 73 75 75 73 76 71 73 75 75 69 69 70 71 69 66
50 53 53 55 59 57 58 57 56 56 53 50 52 51 52 51 52 54 58 59 62 65 66 68 70 73 74 70 72 73 73 71 71 73 75 76 74 74 75 75 75 72 75 70 74 72 69 73 65
51 56 54 55 57 55 56 57 59 60 58 58 52 51 52 52 52 55 58 60 62 64 68 70 70 74 72 72 70 72 71 71 73 71 75 76 75 75 77 76 75 74 73 74 74 73 73 72 71
53 52 54 54 54 58 56 56 59 61 60 59 59 57 52 50 52 57 58 59 60 64 68 73 73 75 74 74 76 75 71 75 74 74 75 75 73 76 75 75 75 70 73 76 75 76 75 70 70
48 48 51 51 53 56 55 55 58 60 61 60 59 60 62 53 54 57 58 57 61 65 68 71 72 75 75 76 73 75 72 76 72 76 74 74 73 75 75 76 74 75 74 73 75 76 75 72 70
49 52 52 53 50 48 55 49 55 57 57 58 59 59 60 57 57 57 57 58 59 64 66 72 73 75 74 73 73 74 73 69 74 75 72 73 75 74 75 75 75 75 73 72 75 75 76 76 72
42 51 51 52 50 51 52 47 52 57 56 57 58 58 59 58 56 56 57 57 61 63 64 69 73 75 76 76 76 75 74 73 74 74 72 73 75 75 73 75 75 75 75 73 71 75 77 76 75
41 45 51 52 52 48 47 46 52 54 55 57 57 58 62 59 54 60 59 60 63 63 66 69 73 75 76 75 75 75 75 73 73 70 73 73 75 75 76 74 77 77 73 74 75 76 76 77 77
38 37 41 46 46 44 52 44 51 54 54 57 57 61 61 61 58 57 60 59 62 65 66 69 73 73 74 73 73 74 75 74 74 75 71 73 71 70 73 78 76 76 76 75 76 76 76 76 75
32 38 32 38 39 45 51 43 48 52 53 55 57 57 62 62 62 60 62 64 63 68 68 70 72 74 73 73 74 75 76 72 73 75 74 71 71 71 73 75 75 75 75 75 76 76 75 76 75
28 29 32 32 39 39 46 48 50 49 50 53 54 58 60 60 62 64 63 63 65 66 70 70 72 73 73 72 75 75 75 75 75 75 77 74 72 71 70 67 74 75 73 74 74 75 75 73 71
26 28 26 39 34 35 40 46 46 48 50 53 55 56 55 58 62 61 64 64 63 64 70 71 73 72 73 71 73 73 74 75 75 76 75 75 70 68 69 68 72 74 74 75 76 75 75 75 71
20 21 24 25 32 33 34 43 53 50 50 51 53 56 57 60 62 65 64 68 63 63 70 71 71 72 73 72 72 75 74 73 74 75 75 76 72 69 69 73 74 73 75 75 76 76 75 73 73
18 19 20 23 30 29 30 40 55 55 54 53 56 56 63 59 63 64 66 68 67 68 70 70 71 71 72 72 73 72 72 73 74 72 71 73 75 75 76 77 75 75 74 74 75 75 73 73 73

GFSSGP_sfc_dewp_105.txt.gz
Dewpoint
65 64 64 69 60 59 43 42 42 49 51 50 52 52 53 53 53 54 65 67 67 70 72 72 75 73 73 75 75 75 75 75 75 75 76 75 74 74 74 75 74 74 74 72 73 73 74 73 73
55 55 67 65 56 50 44 44 45 54 53 53 53 56 56 55 58 60 63 66 68 70 70 71 75 75 74 74 75 75 75 75 75 75 75 74 75 75 75 74 73 74 73 73 73 74 73 73 73
60 64 63 59 54 49 44 44 44 56 52 53 54 54 56 56 60 61 64 65 66 67 71 73 75 75 74 74 74 74 75 75 75 75 75 75 74 75 75 74 74 74 74 74 74 73 73 73 73
60 64 61 55 53 54 44 42 52 55 54 54 55 55 57 61 61 63 64 66 68 70 73 75 75 74 74 74 74 74 75 75 75 75 75 74 75 73 73 74 74 74 74 74 73 73 72 72 73
58 60 58 56 55 46 43 44 55 53 53 54 57 57 59 60 62 62 64 67 68 70 72 73 76 75 74 74 74 75 75 75 75 75 75 74 75 74 74 74 74 75 75 74 73 72 71 71 72
60 58 56 54 52 44 44 49 56 55 53 56 58 58 59 62 61 65 67 67 68 69 71 72 75 75 74 75 75 75 75 75 75 75 75 75 75 75 75 75 75 73 73 72 72 71 71 71 71
60 59 56 54 43 43 44 51 55 55 51 55 59 57 59 59 64 66 67 66 67 69 71 71 72 73 75 75 75 75 75 75 75 75 75 75 75 75 75 75 74 74 73 71 71 70 70 70 69
65 62 58 56 43 44 45 54 55 52 51 58 58 56 56 60 64 65 66 66 66 67 69 70 71 72 72 73 75 75 74 74 75 75 75 75 75 74 74 76 75 74 74 73 71 69 69 69 69
66 56 55 56 47 46 55 56 57 55 52 57 57 57 59 60 62 63 62 64 64 66 67 69 69 71 72 73 73 74 75 75 75 75 75 75 73 72 72 75 75 73 73 73 72 71 71 71 71
62 58 56 58 58 53 50 55 56 55 53 55 57 57 58 60 60 60 60 62 63 66 67 67 68 69 70 70 73 73 73 73 73 72 72 73 71 71 71 73 73 73 72 72 74 73 73 71 71
62 58 60 56 57 61 52 55 55 54 54 55 55 55 57 53 55 57 57 63 64 65 66 65 66 67 67 70 72 72 72 72 72 71 72 71 72 70 71 69 67 68 63 64 66 74 71 67 69
57 60 60 60 64 61 55 55 54 56 55 56 56 56 55 52 52 53 58 62 62 62 63 65 67 66 68 70 71 70 71 66 66 71 72 72 69 69 71 65 65 66 69 65 66 72 71 71 70
58 58 61 62 60 61 55 55 56 55 55 55 54 54 53 52 52 54 57 63 64 62 63 66 68 69 67 69 69 69 70 68 66 71 72 70 71 70 69 66 68 69 70 70 69 69 67 68 64
58 59 62 61 64 64 55 56 54 56 56 55 55 53 52 52 53 54 55 62 64 64 65 66 68 68 70 67 68 68 68 69 70 71 70 69 71 70 70 67 68 70 70 69 68 64 65 66 63
59 58 59 62 63 61 57 54 54 55 55 55 54 53 52 52 55 56 56 62 66 65 66 66 67 67 68 68 68 68 67 69 70 69 64 70 69 68 67 69 69 71 71 69 67 65 67 67 65
55 56 55 60 62 62 58 53 56 56 54 54 53 53 52 53 55 57 56 57 66 66 66 65 63 67 67 67 69 68 67 69 68 70 70 72 71 68 70 69 69 70 72 72 70 69 67 66 67
57 52 54 57 63 62 57 55 57 56 53 52 52 52 52 52 55 57 57 58 64 65 65 66 66 67 69 70 71 70 69 71 70 70 70 70 72 72 72 71 69 73 71 68 68 66 66 65 65
50 52 53 54 58 58 58 57 59 60 53 51 52 52 52 51 54 58 58 62 62 65 64 67 68 66 69 69 70 71 70 69 71 71 71 71 71 72 71 73 70 67 71 71 70 67 70 68 63
53 54 51 56 57 55 57 57 59 61 60 59 52 53 51 51 53 58 60 62 62 63 65 69 69 70 68 68 69 69 67 68 70 70 72 70 71 71 71 73 69 63 71 70 69 70 70 69 68
51 51 52 55 56 53 54 57 59 60 60 60 59 59 55 51 52 58 60 61 61 65 65 69 70 69 70 71 72 71 69 71 71 71 71 71 69 70 71 72 71 70 71 71 70 69 71 68 66
51 51 52 51 54 54 54 55 56 59 61 61 60 59 60 58 54 57 60 60 62 66 69 70 71 71 71 71 71 71 71 71 69 71 71 71 72 71 71 71 71 70 69 64 68 72 71 70 68
49 52 52 52 50 47 55 48 55 57 57 58 59 58 60 60 57 57 59 60 62 64 67 69 71 71 71 72 69 69 69 67 70 70 71 70 72 71 72 69 69 68 64 60 67 72 72 71 70
51 53 51 49 50 51 51 51 53 56 54 55 56 57 59 60 58 56 56 60 62 66 66 69 70 71 71 70 71 70 68 69 71 71 70 67 71 72 71 72 72 70 69 70 71 69 72 73 71
52 51 51 52 51 45 49 50 51 52 51 53 55 58 59 61 61 60 58 59 63 64 68 69 70 70 71 71 70 69 69 70 69 68 70 71 71 71 72 71 72 71 66 63 68 72 72 72 72
51 50 46 43 42 41 49 48 50 53 56 54 55 57 58 62 61 60 59 61 60 62 66 70 70 71 71 71 70 69 70 70 69 68 68 70 70 69 70 71 71 71 68 67 71 70 70 72 71
49 43 41 38 42 44 50 48 50 53 55 57 57 57 60 61 62 63 58 64 66 64 66 69 71 71 71 71 71 70 71 71 71 71 70 70 69 71 71 72 71 71 72 71 71 70 71 71 69
31 36 38 42 45 44 49 51 54 53 55 55 56 58 59 60 62 63 63 66 68 68 68 70 71 71 72 70 72 70 72 70 70 71 71 72 72 71 71 69 67 68 71 71 71 71 69 69 67
23 32 29 39 39 39 46 48 50 48 52 54 54 54 55 57 60 63 65 67 69 69 68 70 72 71 71 71 72 71 71 71 71 71 69 69 69 69 69 67 67 68 72 70 71 71 71 69 65
22 28 28 38 36 36 41 45 52 51 51 52 53 54 55 57 59 63 66 67 67 67 68 67 67 71 71 72 72 72 71 72 70 70 71 70 68 67 66 68 70 72 71 71 70 71 70 69 70
22 20 22 24 27 35 33 48 56 55 54 52 55 57 58 57 57 64 66 66 65 65 67 67 68 70 71 72 71 71 71 69 70 69 69 70 70 69 69 71 73 72 71 71 71 71 71 70 70

GFSSGP_sfc_dewp_108.txt.gz
Dewpoint
66 65 67 69 59 57 47 48 50 51 50 52 50 54 52 54 52 52 66 69 69 71 72 73 75 73 74 74 75 75 75 74 75 75 75 75 74 74 74 75 75 73 73 74 74 74 74 73 72
57 58 68 64 53 46 46 52 51 52 55 56 56 56 56 57 61 65 66 68 70 71 72 72 75 74 74 75 75 74 74 75 75 74 74 74 74 75 75 74 72 72 72 73 73 73 73 73 72
59 65 60 58 52 50 43 53 53 54 55 54 56 57 58 59 63 64 67 69 71 70 71 72 75 75 74 74 75 75 75 75 75 74 74 74 74 74 74 73 74 74 73 74 73 73 73 73 73
58 64 61 53 52 54 44 54 53 54 56 57 57 56 60 62 62 64 68 70 68 71 72 74 74 74 74 74 75 75 75 75 75 75 74 74 74 74 74 74 74 74 73 73 72 72 73 73 73
56 61 56 55 54 50 50 55 54 55 58 57 57 57 59 63 64 66 67 69 71 72 73 73 75 75 74 74 74 75 75 75 75 74 74 74 74 74 74 74 74 74 73 73 72 71 72 72 73
60 59 55 52 50 44 52 55 54 57 58 59 58 58 60 64 65 66 69 70 71 72 73 73 75 74 74 74 75 75 75 75 75 75 74 74 74 74 74 74 73 74 74 71 71 71 70 71 72
60 59 55 54 44 45 50 54 54 57 57 57 58 58 60 63 65 67 68 69 70 71 72 72 72 73 75 75 75 75 75 75 75 75 74 74 74 74 74 74 73 71 71 70 70 69 69 70 71
64 61 56 55 42 44 51 57 55 57 58 59 59 57 58 63 65 66 68 69 70 71 71 71 72 72 72 73 75 75 75 75 75 75 75 75 75 74 73 75 75 72 71 70 69 69 69 69 70
65 56 55 55 45 49 56 55 55 58 58 56 57 57 60 64 64 65 65 67 69 69 70 71 71 71 72 73 73 74 75 75 75 75 75 74 72 72 73 74 73 73 72 71 70 69 69 70 71
62 57 55 58 58 56 57 58 53 56 56 56 54 60 62 63 63 63 63 64 67 67 69 69 70 71 72 72 72 72 73 73 74 73 73 72 71 71 73 73 73 73 71 71 72 72 72 72 70
61 58 59 57 58 58 59 57 56 55 55 54 55 59 61 61 62 62 62 64 65 67 68 68 69 70 69 72 72 72 72 71 72 71 71 71 72 71 68 67 67 66 66 63 65 67 73 68 67
59 61 60 59 59 61 60 59 55 58 56 55 55 58 59 59 60 61 62 64 65 65 66 66 67 68 69 71 71 71 71 68 70 71 71 69 69 70 64 63 63 63 67 66 66 67 70 71 71
59 59 60 62 62 60 61 60 55 56 57 55 57 57 58 59 57 61 63 64 62 63 64 66 66 67 70 71 70 71 70 63 68 71 71 72 67 69 66 64 66 67 68 69 69 68 69 69 68
59 60 61 63 61 62 61 59 55 56 57 54 55 55 54 53 60 62 62 62 61 63 66 68 68 68 68 69 69 70 70 67 70 70 70 70 70 69 66 65 67 68 70 69 69 69 64 65 66
59 58 61 61 63 62 62 57 55 55 54 54 54 52 52 55 60 61 62 62 62 64 66 66 66 69 69 67 69 68 69 69 70 68 70 70 69 69 68 67 68 70 71 70 69 68 66 66 66
56 58 55 59 61 59 63 54 55 55 54 53 52 52 53 55 59 62 63 63 63 65 65 65 66 66 67 67 69 67 68 70 69 66 70 71 69 67 67 68 70 71 68 72 71 70 68 67 66
57 51 53 59 60 62 60 56 56 55 55 53 53 53 53 55 55 61 64 64 64 64 64 63 65 67 69 70 69 70 70 68 69 70 71 70 71 71 71 71 70 71 72 69 68 67 66 65 64
47 51 53 53 57 59 56 57 59 58 54 53 53 52 53 55 55 61 64 64 64 64 64 65 66 69 68 70 70 69 70 70 70 70 70 71 69 71 72 71 69 66 70 70 70 68 69 66 64
53 53 53 55 57 55 55 55 59 60 56 56 53 52 53 55 55 60 63 63 64 64 65 66 66 68 66 68 69 66 67 69 70 71 71 70 70 72 71 72 68 68 70 70 70 69 69 68 67
53 53 53 53 56 54 54 54 56 60 60 60 58 52 52 54 56 61 61 62 63 64 66 67 67 68 68 69 70 70 69 70 70 71 71 71 70 71 72 71 70 70 69 66 68 71 70 68 66
51 51 52 51 53 55 53 52 53 59 61 61 60 60 60 53 58 59 59 60 63 64 67 67 68 68 70 70 70 69 70 70 69 70 70 70 73 71 71 70 70 69 67 60 66 71 71 69 69
49 52 52 52 50 46 53 47 55 57 58 59 59 58 59 59 59 59 59 59 63 65 67 68 69 70 70 70 69 67 67 67 69 69 70 70 67 71 72 68 69 68 62 65 68 71 71 70 69
52 52 50 51 50 50 50 48 53 57 55 56 57 58 59 60 58 59 60 59 64 66 67 69 69 70 70 70 69 69 67 67 70 69 68 67 69 71 72 67 70 68 68 69 70 71 71 72 70
51 51 50 50 49 43 48 48 50 53 55 55 56 58 59 59 59 59 60 61 62 65 67 69 69 69 70 70 70 69 68 68 68 68 69 70 70 70 70 71 71 70 68 66 66 71 71 71 71
50 47 44 43 43 41 50 48 49 54 55 54 54 59 59 61 61 60 59 61 62 64 66 68 68 68 70 69 69 69 69 69 68 68 68 69 70 69 69 70 71 69 67 62 68 69 69 71 70
49 42 40 37 40 44 50 46 50 54 53 53 54 57 60 61 61 61 60 62 64 66 66 68 68 68 70 69 68 68 70 70 69 68 70 70 69 69 70 71 71 71 71 70 71 70 70 70 69
47 40 41 42 43 44 48 50 53 52 55 54 55 55 59 60 63 62 62 65 66 66 68 68 69 69 70 70 69 70 70 70 70 71 70 70 70 70 70 71 68 67 70 71 70 70 68 69 68
41 40 35 37 38 39 44 45 48 47 51 55 57 55 58 60 62 63 64 67 68 67 67 69 70 70 70 70 70 69 71 70 70 70 70 70 71 70 70 69 67 66 68 70 70 70 70 69 69
22 28 29 36 39 39 42 45 50 47 49 54 56 57 57 58 60 64 66 68 68 68 69 68 69 70 71 70 71 70 71 71 70 69 69 69 68 67 68 67 66 69 70 70 70 70 70 68 68
22 21 25 23 23 36 38 44 51 51 50 54 55 56 57 57 60 65 65 65 66 67 67 68 67 69 70 70 71 71 71 71 70 70 70 69 68 66 65 66 69 71 71 70 70 70 71 70 69

GFSSGP_sfc_dewp_111.txt.gz
Dewpoint
68 68 68 69 56 54 48 50 52 48 47 49 51 51 53 57 52 47 65 67 68 68 72 73 74 73 74 75 75 74 74 74 74 74 74 74 74 74 74 74 74 74 74 74 74 74 73 73 73
61 57 67 62 51 47 50 53 52 54 56 54 55 55 57 57 63 65 64 68 68 71 72 72 75 74 74 74 74 74 74 73 74 74 74 74 74 74 74 72 71 72 73 73 73 73 73 72 73
60 65 60 57 52 44 50 53 55 56 56 55 57 58 57 60 64 64 68 69 71 71 71 72 73 74 74 75 74 74 75 74 74 74 74 74 73 72 72 73 73 73 74 73 73 73 73 73 73
58 64 60 53 50 53 50 53 55 57 57 58 58 58 61 63 63 65 68 71 70 70 71 73 73 74 74 74 74 74 74 74 74 74 74 74 74 74 74 74 73 73 73 73 73 73 73 73 73
57 60 54 54 53 51 53 55 56 57 59 58 58 58 60 64 66 67 69 69 70 71 72 71 74 74 74 74 74 74 75 74 74 74 74 73 73 73 73 74 73 73 73 72 72 72 73 73 74
60 58 52 51 51 46 54 55 58 58 59 59 59 59 61 65 66 67 69 70 71 72 73 72 74 74 74 74 75 75 75 75 74 74 74 74 73 74 73 74 74 73 72 71 71 71 72 73 74
59 57 54 53 43 48 54 57 57 58 57 57 59 58 62 64 66 68 70 71 72 72 72 72 72 72 74 75 75 75 75 75 74 74 74 74 74 74 73 72 71 71 70 70 70 70 71 71 72
62 59 55 55 43 46 54 57 58 57 58 59 60 58 60 64 68 69 70 70 70 71 72 72 72 72 72 73 75 75 75 75 75 74 74 74 74 73 73 74 73 71 71 70 69 70 70 71 71
64 56 54 55 48 53 56 56 59 59 57 58 58 59 61 65 67 67 68 69 70 70 71 71 71 71 72 73 73 74 75 75 74 74 74 74 72 72 72 73 72 72 72 71 71 70 70 71 72
61 56 55 59 57 57 58 55 57 57 55 56 58 60 64 65 65 66 66 67 68 69 70 70 71 71 72 72 72 72 73 74 73 73 72 71 71 71 73 73 73 73 71 70 73 73 73 69 68
60 57 58 56 58 58 57 57 57 55 55 56 58 61 63 63 64 64 64 66 67 68 70 70 70 71 71 72 72 72 72 72 72 71 71 71 71 70 68 67 67 66 67 62 65 65 68 72 68
59 60 60 57 58 58 58 61 55 56 56 57 59 61 62 62 63 63 64 65 66 68 68 69 70 70 70 72 71 71 71 70 70 70 70 70 70 68 64 63 63 63 66 68 69 68 67 68 70
59 60 61 61 61 60 61 59 58 56 55 59 60 61 61 61 62 63 64 65 66 66 67 68 68 68 70 71 71 71 70 68 69 70 71 70 68 68 64 64 66 67 68 68 68 68 68 65 66
59 59 61 61 61 60 60 59 59 57 55 58 59 59 60 60 61 62 64 64 64 64 65 66 66 67 70 70 70 70 69 64 69 70 70 69 67 68 66 65 67 68 69 69 68 68 67 65 66
60 59 61 61 62 61 62 57 56 57 57 55 57 58 59 60 61 62 64 62 63 64 66 67 66 67 69 69 70 70 69 68 70 69 70 70 69 68 66 67 68 69 68 70 70 69 67 66 66
58 58 54 59 61 61 61 55 58 58 54 54 55 55 57 57 61 62 63 61 63 65 66 66 67 68 68 67 68 68 68 70 68 65 70 69 68 68 68 68 68 69 65 71 68 69 68 68 66
52 50 53 57 61 60 60 57 59 57 55 54 55 52 55 59 61 62 62 62 64 65 65 65 66 67 67 68 68 68 68 70 68 66 71 69 68 68 70 71 70 69 70 70 69 68 67 66 64
43 51 52 53 58 59 57 57 59 58 56 53 54 53 56 59 60 62 62 63 64 64 64 65 68 69 70 70 69 70 69 69 68 70 71 70 70 71 71 69 68 68 70 70 69 68 69 66 64
53 53 52 54 58 56 55 55 58 60 58 53 53 53 54 57 60 63 63 63 64 64 64 65 68 67 68 68 66 67 67 68 69 71 70 71 71 72 71 70 65 68 69 68 70 70 68 66 66
52 52 52 54 56 55 55 54 56 58 60 60 54 53 54 54 60 63 63 63 63 63 64 65 67 66 67 68 68 69 69 70 69 70 71 71 71 71 71 70 69 69 66 65 70 71 69 68 68
52 50 51 50 53 55 53 53 55 58 61 61 60 56 55 54 59 62 62 63 63 63 65 65 67 66 68 69 69 69 70 69 69 70 70 70 71 71 70 70 68 68 65 60 68 70 70 68 69
48 52 52 52 50 46 53 46 53 56 58 59 59 59 55 54 60 62 61 62 62 64 66 66 67 69 69 69 68 67 67 66 68 68 69 70 67 71 71 69 68 66 62 66 69 71 71 69 67
49 52 52 51 49 49 51 47 51 56 54 56 59 59 58 56 59 60 60 61 63 65 66 66 68 69 69 69 68 68 66 66 68 68 68 68 67 70 72 68 69 67 68 69 70 70 70 71 68
52 50 50 50 48 43 48 48 48 53 53 54 58 59 60 57 58 59 59 60 63 65 66 68 68 69 69 68 68 68 67 67 68 68 68 68 69 70 70 71 70 69 69 67 67 70 70 70 69
50 45 39 38 40 41 49 47 47 52 57 56 58 60 59 61 59 59 59 60 64 65 67 68 68 68 69 68 68 68 68 68 68 68 68 68 69 69 69 70 71 69 67 66 66 69 68 70 70
48 42 37 33 38 42 50 46 48 53 56 59 58 59 60 61 59 60 60 61 63 65 66 67 67 67 69 68 68 69 69 69 68 68 68 69 69 69 69 70 71 70 70 66 70 70 69 70 68
47 41 41 42 41 41 46 50 52 52 51 54 56 55 59 61 62 60 60 62 64 64 66 67 67 67 69 68 68 68 69 69 69 69 69 69 69 69 69 70 70 70 70 70 70 69 68 68 67
43 43 38 40 38 35 43 46 46 50 52 55 54 55 57 60 63 62 61 63 65 66 67 68 68 67 69 69 68 68 69 69 69 70 69 69 69 70 68 69 68 67 67 69 70 70 69 68 68
28 34 32 37 39 39 39 42 49 45 48 54 54 54 57 59 62 64 64 65 66 68 68 69 69 69 69 70 69 69 69 69 70 70 69 69 69 68 68 69 67 65 68 70 70 70 70 69 68
24 30 30 28 24 39 39 40 53 50 50 55 57 56 57 58 61 64 66 67 67 67 68 68 68 70 70 70 70 70 70 70 70 69 69 69 68 67 66 66 66 68 70 70 70 69 71 70 68

GFSSGP_sfc_dewp_114.txt.gz
Dewpoint
67 69 68 68 53 52 48 49 50 47 48 50 52 52 53 58 53 44 64 66 66 67 70 70 72 72 74 75 75 74 74 74 74 73 74 74 74 74 74 74 73 73 74 74 73 73 73 73 73
64 63 66 61 50 47 49 53 50 53 53 52 56 57 57 57 64 64 63 67 67 70 72 72 74 73 74 75 74 74 74 74 74 73 74 74 74 74 72 72 73 73 73 73 73 73 73 73 73
58 61 59 54 50 47 49 54 56 55 56 55 58 59 58 60 63 63 67 70 71 72 72 72 73 74 74 74 74 74 73 74 74 74 74 73 74 73 72 73 73 74 73 73 74 73 73 73 74
57 64 59 52 49 51 52 55 57 57 58 59 58 58 61 64 63 66 70 71 70 71 71 72 73 73 74 74 74 74 74 74 74 74 74 74 73 74 74 73 73 73 73 73 74 74 74 74 74
58 61 54 54 52 51 54 56 58 58 59 58 59 59 60 65 67 69 69 70 70 70 72 72 74 74 74 74 74 74 74 74 74 74 74 73 73 73 73 73 74 73 72 73 73 73 73 73 74
59 58 52 51 47 53 55 58 59 59 59 59 59 60 61 66 67 68 69 70 71 71 72 72 73 73 74 74 74 74 74 74 74 73 73 73 73 74 74 74 74 72 72 72 72 72 73 73 73
59 57 54 48 48 52 54 58 58 57 57 58 60 59 62 64 67 69 70 71 72 73 72 72 73 72 74 74 74 74 74 74 74 74 74 74 74 74 73 72 72 71 71 71 71 72 72 73 73
62 58 55 53 48 50 56 58 59 57 58 60 60 59 60 64 69 70 70 71 71 72 72 72 72 72 73 73 74 74 74 74 74 74 74 74 74 74 74 74 73 71 70 70 70 71 72 72 73
64 55 52 55 45 55 57 57 59 60 57 59 59 61 63 67 69 68 69 70 70 71 71 71 72 72 72 73 74 74 74 74 73 73 75 73 73 73 73 73 73 73 72 71 71 71 72 73 72
61 56 55 59 57 57 59 57 58 57 57 58 60 64 66 67 67 67 67 67 68 69 70 71 71 72 72 74 72 73 74 73 73 73 72 72 71 72 73 74 73 72 70 70 71 71 73 70 68
61 57 58 57 58 59 58 57 58 56 54 57 59 63 65 65 65 66 67 67 67 69 70 70 70 71 72 72 72 72 72 73 73 72 72 72 72 69 68 68 67 66 68 67 67 67 68 69 70
57 60 59 61 61 57 58 61 56 56 56 58 61 63 64 64 64 64 64 66 67 68 70 70 70 71 71 72 72 71 71 71 71 72 71 71 70 68 66 63 64 66 69 69 70 70 69 68 69
58 59 60 63 61 59 61 59 59 56 57 60 62 63 63 63 63 64 64 65 67 68 68 69 70 70 71 72 71 71 71 70 70 71 72 71 71 69 66 66 68 69 70 70 70 69 68 67 67
59 60 61 62 61 61 60 58 59 57 58 59 61 62 62 63 63 63 64 65 66 67 67 68 69 69 70 71 71 71 69 68 70 71 72 70 70 69 67 67 69 70 71 70 70 70 69 67 67
60 59 59 61 61 60 62 57 58 59 59 59 60 61 61 62 63 63 64 65 66 65 66 67 67 68 70 70 70 71 70 66 70 71 71 71 68 69 68 68 70 71 69 72 71 70 70 69 68
58 57 53 59 62 61 59 54 59 61 58 58 59 59 60 61 62 63 64 64 65 65 66 67 66 67 69 69 70 70 70 69 70 69 71 71 70 69 69 70 70 70 68 72 72 71 69 69 68
50 49 54 55 60 60 59 56 60 60 56 57 58 58 59 60 61 63 64 63 64 66 66 67 67 68 68 69 69 69 70 70 69 68 71 69 69 69 70 72 71 72 72 72 71 72 69 68 67
45 51 52 53 57 57 54 54 60 60 58 56 56 57 58 58 60 62 63 62 64 66 66 66 68 68 69 70 70 70 70 70 69 69 71 70 70 71 72 71 70 72 72 72 71 71 71 68 68
52 52 52 54 57 55 54 54 58 58 60 57 54 54 56 58 61 62 63 63 65 65 65 66 68 69 68 68 68 68 68 69 70 71 72 72 71 72 72 71 68 72 71 70 72 72 70 70 69
53 52 52 54 56 54 55 54 57 58 59 60 56 54 56 59 61 62 62 63 64 64 65 67 68 68 68 68 68 69 69 70 70 72 72 72 72 72 71 70 70 71 69 70 72 72 70 70 70
51 49 51 50 54 55 54 52 55 58 60 61 60 56 56 58 60 61 63 62 64 64 64 66 68 68 69 69 69 70 70 70 70 71 71 72 72 72 72 71 71 70 68 69 72 73 71 70 69
46 51 51 53 50 46 54 45 53 55 57 59 60 57 54 56 60 62 63 63 63 64 65 66 68 67 69 70 69 69 68 67 69 70 71 71 70 72 71 71 70 68 66 70 72 73 72 71 69
42 53 52 51 48 49 51 47 50 55 54 56 59 59 55 55 59 62 62 63 63 64 66 66 68 68 69 69 69 68 68 68 70 70 70 70 70 71 72 71 71 69 71 71 72 72 73 72 70
52 50 49 48 47 42 48 47 47 52 52 54 57 59 58 55 59 62 62 63 63 65 66 66 68 68 69 69 68 68 68 68 69 69 69 70 70 71 72 71 70 71 71 70 71 73 72 72 71
49 43 38 37 39 39 48 46 47 54 57 56 58 59 59 56 59 61 61 61 63 65 66 67 67 68 69 68 68 68 68 68 69 69 69 69 70 71 71 72 72 71 71 69 68 72 71 72 72
47 40 37 30 35 39 49 44 47 51 54 56 56 59 60 59 58 60 60 61 63 64 66 67 67 68 69 69 68 69 69 69 69 69 70 70 70 70 71 71 72 72 71 68 69 71 71 72 71
47 42 43 40 39 40 45 48 50 53 55 58 58 59 60 61 60 60 60 61 64 65 66 67 67 67 68 69 69 69 70 69 69 70 70 70 71 70 70 71 72 72 72 72 72 71 70 71 70
45 46 40 41 34 34 41 44 45 50 52 57 58 58 59 61 61 60 61 62 64 66 67 67 68 67 68 69 68 69 69 70 70 71 70 70 70 70 70 71 70 71 70 71 72 72 72 71 69
33 39 37 39 40 37 36 38 48 49 51 56 56 57 57 59 62 61 62 63 64 65 67 67 68 67 68 69 69 69 69 70 70 70 70 70 71 71 70 70 70 69 69 71 72 72 72 71 71
32 37 34 32 27 39 37 38 52 50 50 54 54 55 57 58 60 63 62 64 65 66 67 67 68 68 69 70 70 70 70 71 70 70 70 70 70 69 69 70 70 68 70 72 72 71 72 71 71

GFSSGP_sfc_dewp_117.txt.gz
Dewpoint
65 68 67 68 56 53 48 45 49 46 48 50 52 51 51 56 50 48 61 63 62 65 69 69 70 70 73 74 74 75 74 73 73 74 74 74 74 74 74 73 74 74 74 74 73 74 74 74 74
66 65 66 62 53 44 48 51 48 47 49 53 55 55 55 56 61 61 61 62 62 65 69 68 72 71 71 74 74 74 74 74 74 74 74 74 74 73 73 74 74 74 74 73 73 73 73 74 74
58 60 60 57 51 47 48 52 52 53 51 53 57 57 56 57 61 59 63 63 64 68 67 69 73 73 73 74 74 73 74 73 75 74 74 74 73 72 72 73 74 74 74 73 73 73 73 74 74
58 64 60 53 50 51 52 54 55 55 55 57 55 53 59 61 59 63 65 65 65 68 67 71 74 74 74 74 74 73 74 74 74 74 73 73 74 74 74 74 73 73 74 74 74 73 74 74 74
58 61 56 53 50 52 55 55 56 56 57 56 54 54 56 65 67 66 66 65 66 67 68 67 74 73 74 74 74 74 74 74 74 74 74 73 74 73 73 74 73 73 74 74 73 73 74 74 73
61 58 52 50 48 52 55 57 57 57 58 57 55 56 60 66 66 66 66 66 66 65 69 70 73 74 74 74 74 74 74 74 74 74 73 74 74 74 73 73 72 73 73 73 73 74 74 74 73
60 58 53 48 51 52 54 57 56 56 56 56 58 54 62 64 67 66 67 68 66 68 68 70 70 72 73 74 74 74 74 74 74 74 74 74 73 73 72 72 71 72 72 72 72 73 73 73 73
62 60 52 49 49 50 56 57 57 55 57 58 57 55 57 64 67 66 67 66 70 70 69 71 70 71 71 72 74 74 74 74 74 74 74 73 74 74 73 74 73 71 71 71 71 72 72 73 73
62 57 52 50 49 53 57 56 57 59 56 57 59 57 60 65 66 65 65 67 70 69 69 70 70 72 75 74 74 74 74 74 74 74 75 74 71 71 70 73 73 72 71 71 71 71 72 72 72
60 57 54 59 57 57 56 55 57 55 55 58 61 62 64 65 65 64 63 65 68 67 69 69 71 71 73 72 74 75 73 74 74 74 74 73 72 73 72 72 72 71 70 71 71 71 71 70 68
61 57 57 59 60 61 58 56 57 54 53 57 57 62 64 65 65 63 62 64 65 67 68 70 72 73 73 73 72 72 72 72 73 74 73 73 72 69 68 67 67 68 68 67 67 68 68 69 70
55 58 57 58 58 60 58 58 55 56 54 56 58 62 63 63 63 61 62 64 64 67 68 70 71 73 74 71 73 71 70 70 70 72 73 73 68 68 68 64 66 69 69 70 71 69 70 69 69
55 59 60 59 56 56 59 57 57 55 57 59 61 62 62 63 62 62 63 63 64 65 68 69 71 73 73 73 72 72 70 68 69 72 73 73 71 70 67 69 70 71 71 71 71 70 69 70 67
59 60 61 61 61 59 58 57 58 55 58 60 61 61 62 62 62 62 63 63 64 65 67 69 70 72 73 72 73 72 70 69 70 71 73 73 72 71 69 68 70 71 71 71 71 71 70 70 65
59 59 60 61 60 59 59 55 56 57 59 60 60 61 62 62 63 62 63 63 64 65 67 68 69 70 72 72 73 72 70 69 70 72 73 72 71 72 72 70 71 70 69 73 73 72 72 69 64
56 55 53 59 60 62 57 54 58 59 58 59 59 61 61 62 62 63 63 64 65 65 68 69 66 68 70 71 72 71 70 69 70 72 72 73 71 72 72 71 70 70 72 73 73 71 69 68 66
53 47 53 56 60 60 57 55 59 61 58 55 59 60 60 61 62 63 63 64 65 66 68 68 69 68 70 72 71 71 72 69 71 70 72 73 72 71 72 72 71 74 74 74 72 73 71 67 66
45 49 53 53 57 55 57 57 58 60 58 56 58 59 60 60 61 63 63 64 65 67 68 69 68 70 71 71 72 71 71 71 70 70 72 71 70 72 74 72 72 74 73 73 71 73 72 69 68
42 48 50 54 57 55 53 54 57 59 58 57 58 59 59 59 61 62 64 64 65 66 67 69 69 71 71 70 70 69 74 70 70 70 73 73 73 74 75 72 70 73 72 74 75 72 73 70 71
44 46 51 54 56 54 54 52 57 59 58 57 57 59 57 59 60 62 63 63 64 66 68 69 70 72 71 70 71 70 71 70 70 72 74 74 73 74 73 73 71 74 71 75 75 74 70 70 71
45 39 50 49 54 54 52 51 54 59 59 60 60 58 56 57 59 61 63 63 64 66 67 69 71 72 72 72 71 72 72 75 71 72 72 73 73 74 74 73 73 73 71 71 75 74 73 69 70
33 47 49 53 51 47 53 46 52 56 58 58 58 58 56 56 59 61 62 62 64 65 67 69 71 72 72 72 71 73 69 68 73 77 75 72 73 74 73 73 72 73 68 73 74 73 73 73 69
28 50 51 52 50 49 50 49 49 54 54 56 57 56 58 56 58 60 61 62 63 65 66 68 71 72 72 72 72 69 74 69 72 72 74 73 73 73 73 73 73 71 69 74 75 75 75 72 69
52 50 50 50 49 45 45 47 46 52 52 54 55 55 56 57 57 60 61 63 63 64 65 66 69 71 72 72 72 72 73 73 70 73 70 72 71 70 74 74 73 73 73 73 74 75 74 74 72
49 45 40 40 43 38 49 48 47 51 52 53 53 55 57 57 57 59 62 63 64 64 65 66 68 70 71 71 71 72 72 72 73 73 75 73 75 73 74 76 73 73 74 73 72 75 74 74 73
45 37 25 27 34 40 49 46 45 50 52 53 54 56 59 57 56 59 61 63 64 64 66 66 67 69 71 71 72 72 72 69 69 72 73 70 70 70 73 73 75 75 74 73 72 70 72 73 73
46 42 39 40 44 43 46 47 48 51 52 55 56 57 59 58 57 59 61 63 64 65 66 66 67 68 70 70 71 72 72 72 70 72 72 70 72 71 73 72 73 74 74 73 73 70 72 73 73
46 45 42 45 34 32 39 44 44 50 52 54 55 58 58 59 59 59 61 62 64 65 67 67 68 68 69 70 70 70 71 73 73 72 73 73 72 73 73 72 72 73 74 74 75 75 73 73 71
42 41 42 43 43 32 33 33 47 50 52 55 56 58 58 60 60 61 62 63 64 66 66 68 69 69 69 70 71 71 71 71 73 73 73 73 73 73 72 73 72 73 73 73 73 75 74 73 73
40 39 38 34 35 39 39 32 53 52 51 56 57 58 59 61 61 61 63 64 64 65 66 67 69 69 70 70 72 72 72 72 72 73 73 73 73 72 73 72 72 71 72 72 73 72 72 73 73

GFSSGP_sfc_dewp_120.txt.gz
Dewpoint
64 66 64 67 55 45 43 44 48 46 48 49 50 49 50 54 50 50 57 60 63 64 67 68 71 72 74 74 74 74 73 74 75 74 74 74 74 74 74 75 75 74 74 74 74 75 75 74 74
62 64 64 61 48 40 45 48 47 48 50 53 52 51 51 54 55 56 57 61 64 62 63 66 72 72 73 74 74 74 74 74 74 74 74 74 74 74 74 74 74 74 73 74 74 74 75 75 75
61 62 59 55 47 42 44 48 48 50 52 54 55 55 53 55 56 56 58 59 60 63 62 68 72 73 74 74 74 74 73 74 74 73 74 72 72 72 74 74 74 73 73 73 73 74 74 75 74
58 63 60 52 46 50 47 50 51 51 52 55 54 53 56 57 57 59 59 59 61 63 63 70 73 73 74 74 73 74 74 74 74 73 73 74 74 74 74 74 74 74 74 74 74 75 74 74 73
58 60 54 52 48 50 50 52 53 53 54 54 51 50 56 61 60 60 60 60 61 61 63 65 74 74 74 73 73 74 74 74 75 74 74 74 73 73 74 73 74 74 74 73 74 74 73 73 73
59 56 50 50 48 51 53 55 55 54 55 54 50 52 58 62 60 60 60 60 60 60 61 66 73 73 74 74 73 74 74 74 74 74 73 74 74 73 73 73 73 73 73 73 74 74 74 73 72
57 55 50 47 49 51 54 55 53 54 54 52 54 52 58 59 60 61 61 61 60 62 63 65 67 73 74 73 74 74 74 74 74 74 73 73 74 73 72 72 73 73 73 73 74 74 74 73 73
59 56 50 48 47 50 54 55 55 53 54 56 53 50 56 61 62 61 61 60 63 62 64 66 66 66 69 70 73 74 74 74 74 74 74 74 73 72 72 73 73 72 72 73 73 73 74 73 73
61 56 49 48 47 52 55 54 55 56 53 52 55 51 56 61 61 61 60 62 63 62 63 64 65 69 72 72 72 73 74 73 74 73 73 71 65 67 69 73 71 71 71 71 71 72 72 73 73
60 56 54 56 57 56 54 54 55 52 52 55 55 57 59 60 61 60 59 60 61 61 61 63 66 66 69 68 72 73 69 68 68 69 70 66 68 70 68 71 72 72 72 72 73 72 71 70 65
60 58 57 58 59 59 57 54 55 52 51 53 54 57 59 59 60 59 58 59 59 61 61 64 66 69 68 69 68 69 66 67 69 71 68 69 67 66 65 67 66 66 69 64 66 67 66 67 65
55 56 56 58 59 59 56 56 55 53 54 53 53 57 58 59 59 58 58 59 60 62 63 64 66 69 70 68 66 65 66 66 65 68 71 70 65 67 67 64 66 68 66 68 69 65 69 68 67
53 55 58 57 56 57 56 56 55 55 54 53 55 58 58 58 59 58 58 59 61 61 63 64 67 71 71 70 67 66 66 64 66 68 70 68 66 66 66 68 67 69 68 68 69 68 67 67 64
55 58 59 59 59 57 54 56 56 55 55 55 57 57 57 57 58 60 58 59 60 62 64 65 67 71 70 70 70 68 65 66 66 67 69 71 67 70 67 68 67 68 69 69 69 68 67 64 63
57 57 59 60 59 58 59 56 57 55 56 56 56 56 57 58 59 60 59 59 60 61 64 66 67 69 71 71 73 68 66 65 66 67 72 71 70 71 73 68 68 68 71 73 70 69 67 62 61
53 52 52 58 59 60 59 53 59 57 57 56 54 55 57 59 59 60 61 58 60 62 65 66 63 67 70 70 71 67 66 66 67 68 69 71 72 73 73 68 68 70 72 69 67 65 63 63 62
46 41 48 55 59 59 57 55 59 60 57 57 57 55 56 59 61 62 61 60 60 63 66 66 66 67 70 72 70 69 71 68 68 68 69 73 71 71 72 68 69 74 72 71 68 66 65 63 62
35 40 45 48 57 57 54 55 58 59 59 57 56 54 54 57 59 62 62 61 61 63 66 66 67 69 71 71 72 68 67 68 68 68 68 71 70 72 73 69 72 72 70 69 69 71 69 67 65
36 38 40 53 57 55 54 55 58 59 59 58 56 56 53 55 58 61 62 62 62 64 66 68 69 72 70 69 67 66 66 68 67 68 72 72 72 73 74 68 71 72 70 72 73 70 71 66 70
35 36 41 53 56 55 53 54 54 59 58 58 57 59 55 53 56 60 62 62 62 64 66 69 70 72 72 70 71 67 67 67 67 68 71 71 72 73 72 74 70 73 70 75 74 73 67 67 70
34 33 35 44 54 54 52 51 53 57 59 59 58 59 57 54 55 59 61 62 62 64 66 68 70 72 72 72 70 70 75 71 71 69 68 70 72 72 73 73 72 73 71 69 74 73 72 65 70
27 34 35 49 47 43 51 38 52 55 59 58 58 57 57 54 56 57 60 62 62 63 66 67 70 72 72 72 73 73 68 64 70 70 70 72 71 71 72 72 73 74 70 73 72 72 73 73 67
23 34 36 46 45 45 47 44 41 52 56 57 58 57 56 54 54 56 58 61 62 63 65 67 70 73 72 73 74 68 68 65 66 67 71 72 74 72 70 73 73 73 69 73 75 73 75 70 68
34 38 44 47 46 37 36 43 39 49 52 54 56 57 57 56 55 57 58 60 62 63 64 66 70 72 72 74 72 72 70 69 68 69 67 69 68 68 73 72 74 74 72 72 72 74 74 74 72
37 33 31 32 33 30 44 41 42 45 50 52 54 56 57 57 56 56 58 59 62 63 64 66 69 71 71 72 72 71 70 71 70 70 67 70 67 67 71 73 74 71 74 73 73 75 74 73 71
34 27 23 25 21 26 46 39 40 48 48 50 55 56 57 56 56 56 58 60 62 63 65 66 68 70 70 71 71 72 72 73 68 69 71 68 68 68 71 71 72 72 73 73 73 70 70 71 71
33 37 29 26 26 28 30 41 44 46 47 49 50 52 52 54 56 57 57 61 63 64 65 66 68 69 69 69 71 72 73 73 69 71 75 70 76 75 74 73 72 71 72 72 73 69 70 72 72
42 41 32 29 29 27 26 35 38 43 47 50 52 53 55 56 57 58 58 60 63 64 65 66 67 68 68 68 69 70 71 72 72 72 75 72 72 74 73 73 73 73 73 73 75 71 72 72 70
39 39 38 32 32 28 29 31 41 45 50 50 52 54 56 59 59 59 59 62 63 65 65 67 67 68 68 69 70 70 70 70 71 71 73 74 75 74 74 74 73 73 73 73 75 74 72 72 72
27 33 32 30 32 33 31 41 48 50 51 51 52 57 57 61 61 61 61 63 64 64 65 67 68 68 68 69 71 71 71 71 70 72 72 74 74 75 74 74 73 73 73 73 73 73 70 71 71